[[{"header":{"parameterUnit":"m.s-1","parameterCategory":1,"la1":30.6,"la2":29.2853,"lo1":-89.7004,"lo2":-87.6739,"dy":0.0162,"dx":0.0183,"nx":112,"ny":82,"refTime":"2023-09-14T18:00:00:Z","depth":0,"parameterNumber":2,"parameterNumberName":"U-component_of_WINDS"},"data":[0.0,0.0,0.0,0.0,0.0,0.0,0.0,0.0,0.0,0.0,0.0,0.0,0.0,0.0,0.0,0.0,0.0,0.0,0.0,0.0,0.0,0.0,0.0,0.0,0.0,0.0,0.0,0.0,0.0,0.0,0.0,0.0,0.0,0.0,0.0,0.0,0.0,0.0,0.0,0.0,0.0,0.0,0.0,0.0,0.0,0.0,0.0,0.0,0.0,0.0,0.0,0.0,0.0,0.0,0.0,0.0,0.0,0.0,0.0,0.0,0.0,0.0,0.0,0.0,0.0,0.0,0.0,0.0,0.0,0.0,0.0,0.0,0.0,0.0,0.0,0.0,0.0,0.0,0.0,0.0,0.0,0.0,0.0,0.0,0.0,0.0,0.0,0.0,0.0,0.0,0.0,0.0,0.0,0.0,0.0,0.0693,0.107,0.0931,0.0,0.0,0.0,0.0,0.0,0.0,0.0,0.0,0.0,0.0,0.0,0.0,0.0,0.0,0.0,0.0,0.0,0.0,0.0,0.0,0.0,0.0,0.0,0.0,0.0,0.0,0.0,0.0,0.0,0.0,0.0,0.0,0.0,0.0,0.0,0.0,0.0,0.0,0.0,0.0,0.0,0.0,0.0,0.0,0.0,0.0,0.0,0.0,0.0,0.0,0.0,0.0,0.0,0.0,0.0,0.0,0.0,0.0,0.0,0.0,0.0,0.0,0.0,0.0,0.0,0.0,0.0,0.0,0.0,0.0,0.0,0.0,0.0,0.0,0.0,0.0,0.0,0.0,0.0,0.0,0.0,0.0,0.0,0.0,0.0,0.0,0.0,0.0,0.0,0.0,0.0,0.0,0.0,0.0,0.0,0.0,0.0,0.0,0.0,0.0,0.0,0.0,0.0,0.0,0.0,0.0,0.0,0.0,0.0,0.0781,0.0956,0.0219,0.0,0.0,0.0,0.0,0.0,0.0,0.0,0.0,0.0,0.0,0.0,0.0,0.0,0.0,0.0,0.0,0.0,0.0,0.0,0.0,0.0,0.0,0.0,0.0,0.0,0.0,0.0,0.0,0.0,0.0,0.0,0.0,0.0,0.0,0.0,0.0,0.0,0.0,0.0,0.0,0.0,0.0,0.0,0.0,0.0,0.0,0.0,0.0,0.0,0.0,0.0,0.0,0.0,0.0,0.0,0.0,0.0,0.0,0.0,0.0,0.0,0.0,0.0,0.0,0.0,0.0,0.0,0.0,0.0,0.0,0.0,0.0,0.0,0.0,0.0,0.0,0.0,0.0,0.0,0.0,0.0,0.0,0.0,0.0,0.0,0.0,0.0,0.0,0.0,0.0,0.0,0.0,0.0,0.0,0.0,0.0,0.0,0.0,0.0,0.0,0.0,0.0,0.0,-0.0706,-0.0529,-0.0059,0.0,0.0,0.0,0.0373,0.0425,0.0019,0.0607,0.0,0.0,0.0,0.0,0.0,0.0,0.0,0.0,0.0,0.0,0.0,0.0,0.0,0.0,0.0,0.0,0.0,0.0,0.0,0.0,0.0,0.0,0.0,0.0,0.0,0.0,0.0,0.0,0.0,0.0,0.0,0.0,0.0,0.0,0.0,0.0,0.0,0.0,0.0,0.0,0.0,0.0,0.0,0.0,0.0,0.0,0.0,0.0,0.0,0.0,0.0,0.0,0.0,0.0,0.0,0.0,0.0,0.0,0.0,0.0,0.0,0.0,0.0,0.0,0.0,0.0,0.0,0.0,0.0,0.0,0.0,0.0,0.0,0.0,0.0,0.0,0.0,0.0,0.0,0.0,0.0,0.0,0.0,0.0,0.0,0.0,0.0,0.0,0.0,0.0,0.0,0.0,0.0,0.0,0.0,0.0,0.0,0.0,0.0,0.0,0.0,0.0,-0.1,-0.0745,-0.0079,0.0,0.0,0.0,0.0,0.0,0.0,0.0,0.0,0.0,0.0,0.0,0.0,0.0,0.0,0.0,0.0,0.0,0.0,0.0,0.0,0.0,0.0,0.0,0.0,0.0,0.0,0.0,0.0,0.0,0.0,0.0,0.0,0.0,0.0,0.0,0.0,0.0,0.0,0.0,0.0,0.0,0.0,0.0,0.0,0.0,0.0,0.0,0.0,0.0,0.0,0.0,0.0,0.0,0.0,0.0,0.0,0.0,0.0,0.0,0.0,0.0,0.0,0.0,0.0,0.0,0.0,0.0,0.0,0.0,0.0,0.0,0.0,0.0,0.0,0.0,0.0,0.0,0.0,0.0,0.0,0.0,0.0,0.0,0.0,0.0,0.0,0.0,0.0,0.0,0.0,0.0,0.0,0.0,0.0,0.0,0.0,0.0,0.0,0.0,0.0,0.0,0.0,0.0,0.0,0.0,0.0,0.0,0.0,0.0,-0.0098,-0.0059,0.0,0.0,0.0,0.0,0.0,0.0,0.0,0.0,0.0,0.0,0.0,0.0,0.0,0.0,0.0,0.0,0.0,0.0,0.0,0.0,0.0,0.0,0.0,0.0,0.0,0.0,0.0,0.0,0.0,0.0,0.0,0.0,0.0,0.0,0.0,0.0,0.0,0.0,0.0,0.0,0.0,0.0,0.0,0.0,0.0,0.0,0.0,0.0,0.0,0.0,0.0,0.0,0.0,0.0,0.0,0.0,0.0,0.0,0.0,0.0,0.0,0.0,0.0,0.0,0.0,0.0,0.0,0.0,0.0,0.0,0.0,0.0,0.0,0.0,0.0,0.0,0.0,0.0,0.0,0.0,0.0,0.0,0.0,0.0,0.0,0.0,0.0,0.0,0.0,0.0,0.0,0.0,0.0,0.0,0.0,0.0,0.0,0.0,0.0,0.0,0.0,0.0,0.0,0.0,0.0,0.0,0.0,0.0,0.0,0.0,-0.1116,-0.0608,0.0,0.0,0.0,0.0,0.0,-0.0235,-0.0774,0.0,0.0,0.0,0.0,0.0,0.0,0.0,0.0,0.0,0.0,0.0,0.0,0.0,0.0,0.0,0.0,0.0,0.0,0.0,0.0,0.0,0.0,0.0,0.0,0.0,0.0,0.0,0.0,0.0,0.0,0.0,0.0,0.0,0.0,0.0,0.0,0.0,0.0,0.0,0.0,0.0,0.0,0.0,0.0,0.0,0.0,0.0,0.0,0.0,0.0,0.0,0.0,0.0,0.0,0.0,0.0,0.0,0.0,0.0,0.0,0.0,0.0,0.0,0.0,0.0,0.0,0.0,0.0,0.0,0.0,0.0,0.0,0.0,0.0,0.0,0.0,0.0,0.0,0.0,0.0,0.0,0.0,0.0,0.0,0.0,0.0,0.0,0.0,0.0,0.0,0.0,0.0,0.0,0.0,0.0,0.0,0.0,0.0,0.0,0.0,0.0,0.0,-0.2113,-0.1391,-0.0667,0.0,0.0,0.0,0.0,0.0,-0.0373,-0.1254,0.0,0.0,0.0,0.0,0.0,0.0,0.0,0.0,0.0,0.0,0.0,0.0,0.0,0.0,0.0,0.0,0.0,0.0,0.0,0.0,0.0,0.0,0.0,0.0,0.0,0.0,0.0,0.0,0.0,0.0,0.0,0.0,0.0,0.0,0.0,0.0,0.0,0.0,0.0,0.0,0.0,0.0,0.0,0.0,0.0,0.0,0.0,0.0,0.0,0.0,0.0,0.0,0.0,0.0,0.0,0.0,0.0,0.0,0.0,0.0,0.0,0.0,0.0,0.0,0.0,0.0,0.0,0.0,0.0,0.0,0.0,0.0,0.0,0.0,0.0,0.0,0.0,0.0,0.0,0.0,0.0,0.0,0.0,0.0,0.0,0.0,0.0,0.0,0.0,0.0,0.0,0.0,0.0,0.0,0.0,0.0,0.0,0.0,0.0,0.0,0.0,0.0,-0.1312,-0.0549,0.0,-0.002,-0.002,-0.002,-0.002,-0.002,-0.0392,0.0,0.0,0.0,0.0,0.0,0.0,0.0,0.0,0.0,0.0,0.0,0.0,0.0,0.0,0.0,0.0,0.0,0.0,0.0,0.0,0.0,0.0,0.0,0.0,0.0,0.0,0.0,0.0,0.0,0.0,0.0,0.0,0.0,0.0,0.0,0.0,0.0,0.0,0.0,0.0,0.0,0.0,0.0,0.0,0.0,0.0,0.0,0.0,0.0,0.0,0.0,0.0,0.0,0.0,0.0,0.0,0.0,0.0,0.0,0.0,0.0,0.0,0.0,0.0,0.0,0.0,0.0,0.0,0.0,0.0,0.0,0.0,0.0,0.0,0.0,0.0,0.0,0.0,0.0,0.0,0.0,0.0,0.0,0.0,0.0,0.0,0.0,0.0,0.0,0.0,0.0,0.0,0.0,0.0,0.0,0.0,0.0,0.0,0.0,0.0,0.0,0.0,0.0,-0.2152,-0.0882,-0.0235,-0.0843,-0.0921,-0.0921,-0.0921,-0.0921,-0.1273,-0.2094,0.0,0.0,0.0,0.0,0.0,0.0,0.0,0.0,0.0,0.0,0.0,0.0,0.0,0.0,0.0,0.0,0.0,0.0,0.0,0.0,0.0,0.0,0.0,0.0,0.0,0.0,0.0,0.0,0.0,0.0,0.0,0.0,0.0,0.0,0.0,0.0,0.0,0.0,0.0,0.0,0.0,0.0,0.0,0.0,0.0,0.0,0.0,0.0,0.0,0.0,0.0,0.0,0.0,0.0,0.0,0.0,0.0,0.0,0.0,0.0,0.0,0.0,0.0,0.0,0.0,0.0,0.0,0.0,0.0,0.0,0.0,0.0,0.0,0.0,0.0,0.0,0.0,0.0,0.0,0.0,0.0,0.0,0.0,0.0,0.0,0.0,0.0,0.0,0.0,0.0,0.0,0.0,0.0,0.0,0.0,0.0,0.0,0.0,0.0,0.0,0.0,0.0,-0.2503,-0.1039,-0.0196,-0.0726,-0.0784,-0.0784,-0.0784,-0.0784,-0.1137,-0.1977,0.0,0.0,0.0,0.0,0.0,0.0,0.0,0.0,0.0,0.0,0.0,0.0,0.0,0.0,0.0,0.0,0.0,0.0,0.0,0.0,0.0,0.0,0.0,0.0,0.0,0.0,0.0,0.0,0.0,0.0,0.0,0.0,0.0,0.0,0.0,0.0,0.0,0.0,0.0,0.0,0.0,0.0,0.0,0.0,0.0,0.0,0.0,0.0,0.0,0.0,0.0,0.0,0.0,0.0,0.0,0.0,0.0,0.0,0.0,0.0,0.0,0.0,0.0,0.0,0.0,0.0,0.0,0.0,0.0,0.0,0.0,0.0,0.0,0.0,0.0,0.0,0.0,0.0,0.0,0.0,0.0,0.0,0.0,0.0,0.0,0.0,0.0,0.0,0.0,0.0,0.0,0.0,0.0,0.0,0.0,0.0,0.0,0.0,0.0,0.0,0.0,0.0,-0.2503,-0.1039,-0.0059,-0.0216,-0.0235,-0.0255,-0.0353,-0.0275,-0.0569,-0.1351,0.0,0.0,0.0,0.0,0.0,0.0,0.0,0.0,0.0,0.0,0.0,0.0,0.0,0.0,0.0,0.0,0.0,0.0,0.0,0.0,0.0,0.0,0.0,0.0,0.0,0.0,0.0,0.0,0.0,0.0,0.0,0.0,0.0,0.0,0.0,0.0,0.0,0.0,0.0,0.0,0.0,0.0,0.0,0.0,0.0,0.0,0.0,0.0,0.0,0.0,0.0,0.0,0.0,0.0,0.0,0.0,0.0,0.0,0.0,0.0,-0.5925,0.0,0.0,0.0,0.0,0.0,0.0,0.0,0.0,0.0,0.0,0.0,0.0,0.0,0.0,0.0,0.0,0.0,0.0,0.0,0.0,0.0,0.0,0.0,0.0,0.0,0.0,0.0,0.0,0.0,0.0,0.0,0.0,0.0,0.0,0.0,0.0,0.0,0.0,0.0,0.0,0.0,-0.2503,-0.1039,-0.051,-0.182,-0.1977,-0.225,-0.2934,-0.2366,-0.2055,-0.2231,-0.182,0.0,0.0,0.0,0.0,0.0,0.0,0.0,0.0,0.0,0.0,0.0,0.0,0.0,0.0,0.0,0.0,0.0,0.0,0.0,0.0,0.0,0.0,0.0,0.0,0.0,0.0,0.0,0.0,0.0,0.0,0.0,0.0,0.0,0.0,0.0,0.0,0.0,0.0,0.0,0.0,0.0,0.0,0.0,0.0,0.0,0.0,0.0,0.0,0.0,0.0,0.0,0.0,0.0,0.0,0.0,0.0,0.0,0.0,0.0,0.0,-0.4806,0.0,0.0,0.0,0.0,0.0,0.0,0.0,0.0,0.0,0.0,0.0,0.0,0.0,0.0,0.0,0.0,0.0,0.0,0.0,0.0,0.0,0.0,0.0,0.0,0.0,0.0,0.0,0.0,0.0,0.0,0.0,0.0,0.0,0.0,0.0,0.0,0.0,0.0,0.0,0.0,-0.1977,-0.0804,-0.0334,-0.1214,-0.1665,-0.2113,-0.2563,-0.2192,-0.1918,-0.1918,-0.1528,0.0,0.0,0.0,0.0,0.0,0.0,0.0,0.0,0.0,0.0,0.0,0.0,0.0,0.0,0.0,0.0,0.0,0.0,0.0,0.0,0.0,0.0,0.0,0.0,0.0,0.0,0.0,0.0,0.0,0.0,0.0,0.0,0.0,0.0,0.0,0.0,0.0,0.0,0.0,0.0,0.0,0.0,0.0,0.0,0.0,0.0,0.0,0.0,0.0,0.0,0.0,0.0,0.0,-0.3994,-0.3345,-0.396,-0.3303,-0.2472,-0.1631,-0.3177,-0.3007,-0.1725,0.0,0.0,0.0,0.0,0.0,0.0,0.0,0.0,0.0,0.0,0.0,0.0,0.0,0.0,0.0,0.0,0.0,0.0,0.0,0.0,0.0,0.0,0.0,0.0,0.0,0.318,0.3103,0.0,0.0,0.0,0.0,0.0,0.0,0.0,0.0,0.0,0.0,0.0,0.0,-0.1391,-0.0529,-0.0059,-0.0216,-0.0862,-0.1351,-0.1488,-0.1391,-0.1293,-0.1293,-0.1156,-0.1137,0.0,0.0,0.0,0.0,0.0,0.0,0.0,0.0,0.0,0.0,0.0,0.0,0.0,0.0,0.0,0.0,0.0,0.0,0.0,0.0,0.0,0.0,0.0,0.0,0.0,0.0,0.0,0.0,0.0,0.0,0.0,0.0,-0.527,-0.5099,0.0,0.0,0.0,0.0,0.0,0.0,0.0,0.0,0.0,0.0,0.0,0.0,0.0,-0.4502,-0.3771,-0.3371,-0.3212,-0.3316,-0.2825,-0.2641,-0.2724,-0.262,-0.2118,-0.1343,-0.1606,0.0,-0.1621,-0.189,0.0,0.0,0.0,0.0,0.0,0.0,0.0,0.0,0.0,0.0,0.0,0.0,0.0,0.0,0.0,0.0,0.0,0.0,0.0,0.0,0.0,0.0,0.3959,0.4846,0.5051,0.5028,0.0,0.3664,0.225,0.141,0.0665,0.0,0.0,0.0,0.0,0.0,0.0,0.0,-0.1312,-0.0529,-0.0294,-0.1039,-0.1235,-0.1586,-0.2289,-0.1704,-0.1293,-0.1293,-0.0588,-0.051,-0.1273,-0.141,0.0,0.0,0.0,0.0,0.0,0.0,0.0,0.0,0.0,0.0,0.0,0.0,0.0,0.0,0.0,0.0,0.0,0.0,0.0,0.0,0.0,0.0,0.0,0.0,0.0,0.0,0.0,0.0,0.0,-0.5241,-0.5166,-0.5275,-0.5549,-0.6093,0.0,0.0,0.0,0.0,0.0,0.0,0.0,0.0,0.0,-0.3722,-0.368,-0.339,-0.2766,-0.223,-0.1947,-0.1947,-0.1365,-0.109,-0.109,-0.109,-0.0894,-0.0567,-0.0567,-0.0611,-0.074,-0.1356,-0.2116,-0.2972,0.0,0.0,0.0,0.0,-0.3475,-0.2847,-0.2408,-0.1636,0.0,0.0,0.0,0.0,0.0,0.0,0.0,0.0,0.0,0.0,0.0,0.0,0.0,0.5251,0.5451,0.5453,0.5406,0.4728,0.3885,0.0,0.1712,0.0621,0.0285,0.0,0.0,0.0,0.0,0.0,-0.0628,-0.0235,-0.0137,-0.0529,-0.1,-0.1449,-0.1801,-0.1508,-0.1293,-0.1293,-0.049,-0.0177,-0.0549,-0.1039,-0.1293,0.0,0.0,0.0,0.0,0.0,0.0,0.0,0.0,0.0,0.0,0.0,0.0,0.0,0.0,0.0,0.0,0.0,0.0,0.0,0.0,0.0,0.0,0.0,0.0,0.0,0.0,0.0,0.0,-0.4966,-0.4933,-0.545,-0.5147,-0.5272,0.0,0.0,0.0,0.0,0.0,0.0,-0.4294,-0.4126,-0.3516,-0.2411,-0.2389,-0.2223,-0.1865,-0.1258,-0.0957,-0.0957,-0.0317,0.0,0.0,0.0,0.0,0.0,0.0,0.0,-0.0068,-0.087,-0.1323,-0.1621,-0.2451,-0.2876,-0.3025,-0.2834,-0.2259,-0.1515,-0.1267,-0.0668,0.0043,0.0326,0.0,0.1591,0.1562,0.0,0.0,0.0,0.0,0.316,0.4057,0.4478,0.4816,0.54,0.5553,0.5529,0.5483,0.5291,0.4911,0.0,0.2772,0.1606,0.1425,0.0,0.0,0.0,0.0,-0.0739,-0.008,0.0,0.0,0.0,-0.0579,-0.0975,-0.097,-0.0974,-0.0975,-0.097,-0.0358,0.0,0.0,-0.0619,-0.0958,-0.0958,0.0,0.0,0.0,0.0,0.0,0.0,0.0,0.0,0.0,0.0,0.0,0.0,0.0,0.0,0.0,0.0,0.0,0.0,0.0,0.0,0.0,0.0,0.0,0.0,0.0,0.0,0.0,0.0,0.0,-0.5378,-0.4543,0.0,0.0,0.0,0.0,-0.3665,-0.3954,-0.3525,-0.2141,-0.2161,-0.1598,-0.0207,-0.0161,-0.0139,-0.0118,-0.0095,-0.0071,-0.0071,-0.0024,0.0,0.0,0.0,0.0,0.0,0.0,0.0,0.0,-0.0068,-0.0604,-0.143,-0.174,-0.2297,-0.2835,-0.2119,-0.1674,-0.1277,-0.0389,-0.0046,0.0162,0.1199,0.2146,0.2882,0.283,0.2836,0.0,0.0,0.3532,0.4227,0.4275,0.4971,0.5641,0.5683,0.568,0.57,0.5694,0.4976,0.43,0.0,0.331,0.2367,0.1533,0.0,-0.0042,0.0,-0.0042,-0.0042,0.0,0.0,0.0,0.0,-0.0042,-0.0062,-0.0061,-0.0062,-0.0062,-0.0061,-0.0021,0.0,0.0,-0.0042,-0.0063,-0.0063,-0.0105,0.0,0.0,0.0,0.0,0.0,0.0,0.0,0.0,0.0,0.0,0.0,0.0,0.0,0.0,0.0,0.0,0.0,0.0,0.0,0.0,0.0,0.0,0.0,0.0,0.0,0.0,0.0,0.0,-0.4578,-0.3694,0.0,-0.4411,-0.3564,-0.2925,-0.2858,-0.2141,-0.1545,-0.1153,-0.1045,-0.0772,-0.0283,-0.0259,-0.0166,0.0,0.0,0.0,0.0,0.0,0.0,0.0,0.0,0.0,0.0,0.0,0.0,0.0,0.0,-0.0187,-0.0513,-0.0606,-0.0793,-0.1003,-0.0746,-0.014,0.0583,0.0916,0.1483,0.2238,0.3249,0.3831,0.4204,0.4781,0.4958,0.4958,0.4958,0.514,0.534,0.534,0.5517,0.5688,0.5688,0.5688,0.5688,0.5688,0.5441,0.5193,0.5136,0.3894,0.2928,0.321,0.2482,0.1646,0.1007,0.0891,0.0673,0.0084,0.0,0.0,0.0,0.0,0.0,0.0,0.0,0.0,0.0,0.0,0.0,0.0,0.0,0.0,0.0,0.0,0.0,0.0,0.0,0.0,0.0,0.0,0.0,0.0,0.0,0.0,0.0,0.0,0.0,0.0,0.0,0.0,0.0,0.0,0.0,0.0,0.0,0.0,0.0,0.0,0.0,0.0,0.0,-0.2958,-0.4167,-0.2962,-0.245,-0.349,-0.2568,-0.1867,-0.1797,-0.0993,-0.0524,-0.0596,-0.0477,-0.0359,-0.0265,-0.0265,-0.0169,0.0,0.0,0.0,0.0,0.0,0.0,0.0,0.0,0.0,0.0,0.0,0.0,0.0,0.0,0.0219,0.051,0.0144,0.0,0.0048,0.0405,0.1,0.1643,0.2014,0.2845,0.385,0.4498,0.4945,0.5346,0.5931,0.611,0.611,0.611,0.6026,0.5964,0.5964,0.5877,0.5767,0.5767,0.574,0.5688,0.5688,0.5688,0.5688,0.5688,0.4449,0.3568,0.4198,0.3522,0.2568,0.1555,0.1691,0.1568,0.0602,0.0774,0.0839,0.0516,0.0473,0.0343,0.0021,0.0,0.0,0.0,0.0,0.0,0.0,0.0,0.0,0.0,0.0,0.0,0.0,0.0,0.0,0.0,0.0,0.0,0.0,0.0,0.0,0.0,0.0,0.0,0.0,0.0,0.0,0.0,0.0,0.0,0.0,0.0,0.0,0.0,0.0,0.0,-0.3948,-0.3406,-0.3163,-0.4097,-0.2357,-0.1353,-0.2091,-0.1263,-0.062,-0.0406,-0.0573,-0.0597,-0.0406,-0.0382,-0.0265,0.0,0.0,0.0,0.0,0.0,0.0,0.0,0.0,0.0,0.0,0.0025,0.0051,0.0051,0.0076,0.0101,0.0101,0.0101,0.0707,0.1533,0.046,0.0072,0.0215,0.1263,0.1668,0.1864,0.292,0.3991,0.4845,0.4779,0.5462,0.6276,0.6156,0.6121,0.6121,0.6121,0.6118,0.6115,0.6115,0.5999,0.5909,0.5909,0.5797,0.5716,0.5716,0.5713,0.5688,0.5688,0.4971,0.4344,0.4344,0.3583,0.2644,0.1637,0.2331,0.0,0.1569,0.2308,0.251,0.1502,0.1391,0.1024,0.0131,0.0044,0.0067,0.0087,0.0089,0.009,0.009,0.009,0.009,0.009,0.009,0.0091,0.0093,0.0,0.0,0.0,0.0,0.0,0.0,0.0,0.0,0.0,0.0,0.0,0.0,0.0,0.0,0.0,0.0,0.0,0.0,0.0,0.0,0.0,0.0,0.0094,-0.1975,-0.1764,-0.1526,-0.1935,-0.1158,-0.0734,-0.1072,-0.0724,-0.0463,-0.0414,-0.0271,-0.0174,-0.0124,-0.0099,-0.0075,0.0,0.0,0.0,0.0,0.0,0.0,0.0,0.0,0.0,0.0025,0.0807,0.116,0.121,0.1991,0.2318,0.2318,0.2318,0.2494,0.2643,0.157,0.1638,0.2357,0.2653,0.3247,0.4069,0.5156,0.571,0.5957,0.5949,0.614,0.636,0.6325,0.6314,0.6314,0.6314,0.6282,0.6243,0.6243,0.6151,0.6034,0.6034,0.5945,0.5855,0.5855,0.577,0.5688,0.5688,0.5485,0.5307,0.5307,0.5104,0.4612,0.3649,0.374,0.0,0.2621,0.2732,0.251,0.1502,0.1391,0.1298,0.1046,0.1006,0.132,0.2068,0.21,0.2107,0.2107,0.2107,0.2121,0.2174,0.2175,0.2219,0.0,0.0,0.0,0.0,0.0,0.0,0.0,0.0,0.0,0.0,0.0,0.0,0.0,0.0,0.0,0.0,0.0,0.0,0.0,0.0,0.0,0.0,0.1734,0.1606,0.0356,0.0024,0.0024,0.0361,0.0362,0.0435,0.0731,0.0567,0.0447,0.0447,0.0176,0.0,0.0,0.0429,0.0681,0.0681,0.111,0.1336,0.1336,0.1336,0.1336,0.1336,0.1336,0.1336,0.1361,0.1991,0.2267,0.0,0.2922,0.3198,0.3198,0.3198,0.3475,0.0,0.0,0.0,0.0,0.0,0.4556,0.5561,0.6187,0.6412,0.6412,0.6412,0.6412,0.6412,0.6412,0.6412,0.6412,0.6412,0.6363,0.6339,0.6339,0.6252,0.6186,0.6186,0.6093,0.5977,0.5977,0.5928,0.5859,0.5859,0.5859,0.0,0.5859,0.5775,0.5374,0.4433,0.4634,0.4545,0.3606,0.3829,0.3695,0.271,0.2621,0.2464,0.2062,0.2017,0.0,0.0,0.0,0.2889,0.2889,0.2935,0.0,0.0,0.0,0.3113,0.3201,0.0,0.0,0.0,0.2478,0.2595,0.0,0.0,0.0,0.0,0.0,0.0,0.0,0.0,0.0,0.0,0.0,0.0,0.0,0.0,0.0,0.0,0.2786,0.2871,0.2919,0.2007,0.1638,0.2449,0.194,0.1855,0.2765,0.2192,0.179,0.179,0.0908,0.0353,0.0353,0.0,0.0,0.0,0.0,0.3198,0.3198,0.3198,0.3198,0.3198,0.3198,0.3198,0.3198,0.3324,0.3374,0.3374,0.35,0.355,0.355,0.355,0.4128,0.4883,0.3927,0.355,0.3676,0.4632,0.5584,0.6412,0.6412,0.0,0.0,0.6412,0.6412,0.6412,0.6412,0.6412,0.6412,0.6412,0.6412,0.6412,0.6412,0.6363,0.6312,0.6312,0.6219,0.6132,0.6132,0.6118,0.611,0.611,0.611,0.611,0.611,0.5912,0.5457,0.4622,0.5208,0.5435,0.46,0.523,0.5385,0.4426,0.0,0.0,0.3136,0.3069,0.3114,0.3203,0.3232,0.3235,0.3235,0.3319,0.3358,0.3365,0.3498,0.3564,0.356,0.356,0.4062,0.4958,0.3885,0.3444,0.0,0.0,0.0,0.0,0.0,0.0,0.0,0.0,0.0,0.0,0.0,0.0,0.0,0.0,0.0,0.399,0.4621,0.5153,0.5576,0.4715,0.3715,0.2853,0.2804,0.2909,0.3096,0.2972,0.2897,0.2897,0.2695,0.2569,0.2569,0.2771,0.0,0.2897,0.3098,0.3198,0.3198,0.3198,0.3198,0.3198,0.0,0.0,0.3224,0.4105,0.4481,0.4531,0.5406,0.5784,0.5784,0.5784,0.5909,0.6059,0.5859,0.5784,0.5809,0.6009,0.6212,0.6412,0.6412,0.6412,0.6412,0.6412,0.6412,0.6412,0.6412,0.6412,0.0,0.6412,0.6412,0.6412,0.6412,0.6396,0.6379,0.6379,0.6317,0.6257,0.6257,0.6181,0.611,0.611,0.611,0.611,0.611,0.6048,0.5971,0.5782,0.5899,0.5945,0.5782,0.5899,0.5629,0.457,0.447,0.435,0.4058,0.403,0.4344,0.5104,0.525,0.5319,0.5319,0.5446,0.5547,0.5661,0.5685,0.5723,0.5777,0.5777,0.5889,0.6059,0.4989,0.4966,0.0,0.0,0.0,0.0,0.0,0.0,0.0,0.0,0.0,0.0,0.0,0.2316,0.0,0.0,0.4369,0.5309,0.575,0.6087,0.6359,0.5937,0.5359,0.4678,0.4253,0.4203,0.4755,0.4304,0.4004,0.4004,0.35,0.3198,0.3198,0.3701,0.4004,0.4004,0.4529,0.4803,0.4803,0.4803,0.4803,0.4803,0.4803,0.4803,0.483,0.5359,0.5611,0.5636,0.6162,0.6412,0.6412,0.6412,0.6412,0.6412,0.6412,0.6412,0.6412,0.6412,0.6412,0.6412,0.6412,0.6412,0.6412,0.6412,0.6412,0.6412,0.6412,0.6412,0.6412,0.6412,0.6412,0.6412,0.6412,0.6412,0.6412,0.6412,0.6368,0.6352,0.6352,0.6304,0.626,0.626,0.626,0.626,0.626,0.626,0.6222,0.6105,0.611,0.611,0.611,0.611,0.5897,0.5365,0.529,0.5271,0.5198,0.5193,0.5402,0.5864,0.5964,0.5994,0.5994,0.6137,0.623,0.6293,0.6325,0.6355,0.6412,0.6412,0.6412,0.6387,0.5862,0.5884,0.0,0.0,0.0,0.0,0.0,0.0,0.0,0.0,0.1221,0.2115,0.2726,0.3443,0.4526,0.4757,0.5131,0.6237,0.6412,0.6412,0.6412,0.6412,0.6412,0.6412,0.5636,0.5461,0.6312,0.5611,0.511,0.511,0.4304,0.3825,0.3825,0.4632,0.511,0.511,0.5962,0.6412,0.6412,0.6412,0.6412,0.6412,0.6412,0.6412,0.6412,0.6412,0.6412,0.6412,0.6412,0.6412,0.6412,0.6412,0.6412,0.6412,0.6412,0.6412,0.6412,0.6412,0.6412,0.6412,0.6412,0.6412,0.6412,0.6412,0.6412,0.6412,0.6412,0.6412,0.6412,0.6412,0.6512,0.6587,0.6437,0.6512,0.6587,0.6434,0.6412,0.6412,0.6412,0.6412,0.6412,0.6412,0.6412,0.6412,0.6412,0.6412,0.6347,0.6181,0.6154,0.6154,0.6154,0.6154,0.6146,0.6148,0.6145,0.6134,0.611,0.611,0.611,0.611,0.6132,0.6145,0.6145,0.6263,0.6325,0.6325,0.6366,0.6412,0.6412,0.6412,0.6412,0.6412,0.6412,0.6412,-0.1788,-0.1214,-0.0568,-0.0451,0.0095,0.0979,0.0,0.0,0.299,0.4214,0.4885,0.5291,0.5443,0.5852,0.6237,0.6387,0.6412,0.6412,0.6412,0.6412,0.6412,0.6412,0.6287,0.6262,0.6387,0.6284,0.6212,0.6212,0.6109,0.6034,0.6034,0.6162,0.6212,0.6212,0.6337,0.6412,0.6412,0.6412,0.6412,0.6412,0.6412,0.6412,0.6412,0.6412,0.6412,0.6412,0.6412,0.6412,0.6412,0.6412,0.6412,0.6412,0.6412,0.6412,0.6412,0.6412,0.6412,0.6412,0.6412,0.6412,0.6412,0.6412,0.6412,0.6412,0.6412,0.6412,0.6412,0.6412,0.6908,0.7307,0.6587,0.6933,0.7282,0.6559,0.6412,0.6412,0.6412,0.6412,0.6412,0.6412,0.6412,0.6412,0.6412,0.6412,0.6404,0.6377,0.6371,0.6371,0.6371,0.6371,0.6333,0.6284,0.6271,0.6227,0.6118,0.611,0.611,0.611,0.6213,0.6271,0.6271,0.6355,0.6393,0.6393,0.6404,0.6412,0.6412,0.6412,0.6412,0.6412,0.6412,0.6412,-0.0117,0.0,0.0,0.0,0.1114,0.1703,0.3021,0.3556,0.4063,0.5049,0.5687,0.6059,0.6059,0.6262,0.6412,0.0,0.6412,0.6412,0.6412,0.6412,0.6412,0.6412,0.6412,0.6412,0.6412,0.6412,0.6412,0.6412,0.6412,0.6412,0.6412,0.6412,0.6412,0.6412,0.6412,0.6412,0.6412,0.6412,0.6412,0.6412,0.6412,0.6412,0.6412,0.6412,0.6412,0.6412,0.6412,0.6412,0.6412,0.6412,0.6412,0.6412,0.6412,0.6412,0.6412,0.6412,0.6412,0.6412,0.6412,0.6412,0.6487,0.6933,0.7107,0.7182,0.7655,0.7804,0.7804,0.7804,0.8028,0.8226,0.7879,0.8053,0.8202,0.7879,0.7804,0.7804,0.7804,0.7804,0.7804,0.7804,0.7804,0.7804,0.7804,0.7804,0.7804,0.7804,0.7008,0.6412,0.6412,0.6412,0.6393,0.6372,0.6366,0.6344,0.6271,0.6266,0.6266,0.6266,0.6339,0.6366,0.6366,0.6387,0.6412,0.6412,0.6412,0.6412,0.6412,0.6412,0.6634,0.7107,0.7107,0.7422,0.1292,0.0,0.0,0.2188,0.2393,0.2823,0.391,0.4452,0.4931,0.5659,0.6134,0.6412,0.6412,0.6412,0.6412,0.6412,0.6412,0.6412,0.6412,0.6412,0.6412,0.6412,0.6412,0.6412,0.6412,0.6412,0.6412,0.6412,0.6412,0.6412,0.6412,0.6412,0.6412,0.6412,0.6412,0.6412,0.6412,0.6412,0.6412,0.6412,0.6412,0.6412,0.6412,0.6412,0.6412,0.6412,0.6412,0.6537,0.6734,0.6734,0.6858,0.7058,0.7058,0.7058,0.7058,0.7058,0.6933,0.6758,0.6983,0.7058,0.7157,0.773,0.7928,0.8028,0.8627,0.88,0.88,0.88,0.8949,0.9072,0.885,0.8973,0.9072,0.885,0.88,0.88,0.88,0.88,0.88,0.88,0.88,0.88,0.88,0.88,0.88,0.88,0.7804,0.6983,0.6758,0.6537,0.6412,0.6412,0.6412,0.6412,0.6412,0.6412,0.6412,0.6412,0.6412,0.6412,0.6412,0.6412,0.6509,0.6736,0.6734,0.6833,0.7058,0.7058,0.7357,0.7928,0.7994,0.8395,0.0,0.0,0.2889,0.3417,0.4123,0.4855,0.5409,0.5559,0.5709,0.6262,0.6387,0.6412,0.6412,0.6412,0.6412,0.6412,0.6412,0.6412,0.6412,0.6412,0.6412,0.6412,0.6412,0.6412,0.0,0.6412,0.6412,0.6412,0.6412,0.6412,0.6412,0.6412,0.6412,0.6412,0.6412,0.6412,0.6412,0.6412,0.6412,0.6412,0.6412,0.6412,0.6412,0.6412,0.6412,0.6412,0.6412,0.6833,0.7556,0.7556,0.8028,0.8726,0.8726,0.8726,0.8726,0.8726,0.8226,0.768,0.845,0.8726,0.8726,0.8751,0.8775,0.8775,0.88,0.88,0.88,0.88,0.9373,0.9797,0.8998,0.9373,0.9772,0.8973,0.88,0.88,0.88,0.88,0.88,0.88,0.88,0.88,0.88,0.88,0.88,0.88,0.8751,0.845,0.7655,0.6883,0.6412,0.6412,0.6412,0.6412,0.6412,0.6412,0.6412,0.6412,0.6412,0.6412,0.6412,0.6412,0.6758,0.7556,0.7556,0.7953,0.8726,0.8726,0.8751,0.8775,0.8956,0.9081,0.4065,0.0,0.4703,0.4878,0.5131,0.5461,0.6012,0.6134,0.6187,0.6359,0.6477,0.6531,0.6531,0.6531,0.6531,0.6531,0.6463,0.6412,0.6412,0.6412,0.6412,0.6412,0.6412,0.0,0.0,0.0,0.0,0.6412,0.6412,0.6412,0.6412,0.6908,0.7207,0.7207,0.7705,0.8003,0.8003,0.8003,0.8003,0.8003,0.8003,0.8003,0.8003,0.8003,0.8003,0.8003,0.8003,0.8152,0.84,0.84,0.8549,0.88,0.88,0.88,0.8874,0.9398,0.9422,0.9147,0.8899,0.88,0.8899,0.9422,0.9595,0.9694,1.0232,1.0379,1.0379,1.0379,1.058,1.0728,1.0453,1.0576,1.0728,1.0453,1.0379,1.0379,1.0379,1.0379,1.0379,1.0379,1.0379,1.0379,1.0379,1.0379,1.0379,1.0379,0.9492,0.8701,0.8425,0.8152,0.8003,0.8003,0.8003,0.8003,0.8003,0.8003,0.8003,0.8003,0.8003,0.8003,0.8003,0.8003,0.8127,0.84,0.84,0.8528,0.88,0.88,0.9155,0.9795,0.9877,1.0343,0.6282,0.6331,0.6431,0.6334,0.6309,0.6334,0.6387,0.6412,0.6412,0.6412,0.6507,0.6593,0.6593,0.6824,0.6924,0.6645,0.6718,0.6833,0.6833,0.6833,0.6933,0.7232,0.7257,0.7456,0.0,0.0,0.0,0.7257,0.7257,0.7257,0.7257,0.7755,0.8028,0.8028,0.8524,0.88,0.88,0.88,0.88,0.88,0.88,0.88,0.88,0.88,0.88,0.88,0.88,0.8973,0.9225,0.9225,0.9394,0.9661,0.9661,0.9661,0.9715,1.0236,1.0437,1.0364,0.9838,0.9661,0.9739,1.0261,1.0437,1.0536,1.1047,1.1194,1.1194,1.1194,1.1194,1.1194,1.1194,1.1194,1.1194,1.1194,1.1194,1.1194,1.1194,1.1194,1.1194,1.1194,1.1194,1.1194,1.1194,1.1194,1.1194,1.1194,1.033,0.9567,0.927,0.8973,0.88,0.88,0.88,0.88,0.88,0.88,0.88,0.88,0.88,0.88,0.88,0.88,0.8924,0.9221,0.9225,0.9401,0.9763,0.9763,1.0134,1.085,1.0921,1.1354,0.8673,0.8425,0.7975,0.7726,0.7655,0.7456,0.6684,0.6512,0.6512,0.647,0.6568,0.6655,0.0,0.0,0.7587,0.6818,0.7241,0.7699,0.7668,0.7665,0.796,0.0,0.0,0.0,0.0,0.0,0.0,0.8924,0.0,0.88,0.88,0.885,0.885,0.885,0.8899,0.892,0.892,0.892,0.892,0.892,0.892,0.892,0.892,0.892,0.892,0.892,0.892,0.9344,1.0068,1.0068,1.0507,1.1194,1.1194,1.1194,1.1194,1.1194,1.1194,1.1194,1.1194,1.1194,1.1194,1.1194,1.1194,1.1194,1.1194,1.1194,1.1194,1.1194,1.1194,1.1194,1.1194,1.1194,1.1194,1.1194,1.1194,1.1194,1.1194,1.1194,1.1194,1.1194,1.1194,1.1194,1.1194,1.1194,1.1194,1.1194,1.1194,1.0924,1.0167,0.9398,0.892,0.892,0.892,0.892,0.892,0.892,0.892,0.892,0.892,0.892,0.892,0.892,0.927,1.0043,1.0077,1.0543,1.1494,1.1504,1.1612,1.1815,1.2018,1.2117,0.8772,0.8697,0.8574,0.8499,0.8499,0.845,0.8226,0.8177,0.8033,0.7541,0.7546,0.7492,0.0,0.0,0.0,0.7896,0.8459,0.0,0.8737,0.8722,0.0,0.879,0.0,0.9023,0.9645,0.9694,0.0,0.0,0.9468,0.88,0.88,0.9373,0.9694,0.9694,1.0285,1.0576,1.0576,1.0576,1.0576,1.0576,1.0576,1.0576,1.0576,1.0576,1.0576,1.0576,1.0576,1.0703,1.0904,1.0904,1.0998,1.1194,1.1194,1.1194,1.1194,1.1194,1.1194,1.1194,1.1194,1.1194,1.1194,1.1194,1.1194,1.1194,1.1194,1.1194,1.1194,1.1194,1.1194,1.1194,1.1194,1.1194,1.1194,1.1194,1.1194,1.1194,1.1194,1.1194,1.1194,1.1194,1.1194,1.1194,1.1194,1.1194,1.1194,1.1194,1.1194,1.112,1.0924,1.0703,1.0576,1.0576,1.0576,1.0576,1.0576,1.0576,1.0576,1.0576,1.0576,1.0576,1.0576,1.0576,1.0674,1.0904,1.1031,1.1237,1.1494,1.1641,1.1824,1.2032,1.2088,1.2192,0.9862,0.9862,0.9764,0.9418,0.9324,0.9225,0.8874,0.8877,0.8729,0.7958,0.7984,0.0,0.7135,0.0,0.0,0.0,0.0,0.0,0.9779,0.9767,0.9859,0.0,1.0129,0.0,1.0624,1.0669,1.0803,0.0,1.0355,0.9862,0.9862,1.0285,1.0536,1.0536,1.0949,1.1194,1.1194,1.1194,1.1194,1.1194,1.1194,1.1194,1.1194,1.1194,1.1194,1.1194,0.0,1.1194,1.1194,1.1194,1.1194,1.1194,1.1194,1.1194,1.1194,1.1194,1.1194,1.1194,1.1194,1.1194,1.1194,1.1194,1.1194,1.1194,1.1194,1.1194,1.1194,1.1194,1.1194,1.1194,1.1194,1.1194,1.1194,1.1194,1.1194,1.1194,1.1194,1.1194,1.1194,1.1194,1.1194,1.1194,1.1194,1.1194,1.1194,1.1194,1.1194,1.1194,1.1194,1.1194,1.1194,1.1194,1.1194,1.1194,1.1194,1.1194,1.1194,1.1194,1.1194,1.1194,1.1194,1.1288,1.1335,1.1335,1.1518,1.1669,1.1763,1.1876,1.2041,1.2217,1.2217,1.2278,1.1194,1.1194,1.1022,1.0339,1.0167,0.9965,0.927,0.9255,0.9135,0.8299,0.0,0.8168,0.7302,0.8477,0.9323,0.8618,0.0,1.0823,1.0802,1.0798,1.1045,1.1714,1.1791,1.1725,1.1551,1.1532,1.1482,1.1293,1.125,1.1227,1.1198,1.1194,1.1194,1.1194,1.1194,1.1194,1.1194,1.1194,1.1194,1.1194,1.1194,1.1194,1.1194,1.1194,1.1194,1.1194,0.0,0.0,1.1194,1.1194,1.1194,1.1194,1.1194,1.1212,1.1236,1.1236,1.1255,1.1279,1.1279,1.1279,1.1269,1.1212,1.1194,1.1194,1.1194,1.1194,1.1194,1.1194,1.1194,1.1194,1.1194,1.1194,1.1194,1.1194,1.1194,1.1194,1.1194,1.1194,1.1194,1.1194,1.1194,1.1194,1.1194,1.1194,1.1194,1.1194,1.1194,1.1194,1.1194,1.1194,1.1194,1.1194,1.1194,1.1194,1.1194,1.1194,1.1208,1.1236,1.1236,1.125,1.1279,1.1458,1.1532,1.1532,1.173,1.1923,1.2112,1.214,1.2244,1.2414,1.2414,1.2414,1.1194,1.1194,1.1169,1.1022,1.0998,1.0949,1.0826,1.08,0.0,0.0,0.9397,0.8837,0.8112,0.8961,0.9702,0.9561,0.0,0.0,0.0,0.0,1.1836,0.0,0.0,0.0,0.0,0.0,0.0,0.0,0.0,1.1383,1.1203,1.1194,1.1194,1.1194,1.1194,1.1194,1.1194,1.1194,1.1194,1.1194,1.1194,1.1194,1.1194,1.1194,1.1194,1.1194,1.1194,0.0,1.1194,1.1194,1.1194,1.1194,1.1194,1.1302,1.1463,1.1463,1.1542,1.1709,1.1709,1.1709,1.1626,1.1307,1.1194,1.1194,1.1194,1.1194,1.1194,1.1194,1.1194,1.1194,1.1194,1.1194,1.1194,1.1194,1.1194,1.1194,1.1194,1.1194,1.1194,1.1194,1.1194,1.1194,1.1194,1.1194,1.1194,1.1194,1.1194,1.1194,1.1194,1.1194,1.1194,1.1194,1.1194,1.1194,1.1194,1.1194,1.1274,1.1449,1.1463,1.1509,1.1704,1.1721,1.174,1.174,1.1952,1.2074,1.2112,1.2282,1.2376,1.2414,1.2414,1.2414,1.1194,1.1194,1.1194,1.1194,1.1194,1.1194,1.1194,0.0,0.0,0.0,1.0186,0.983,0.9161,0.9441,0.0,0.0,0.0,0.0,0.0,0.0,0.0,0.0,0.0,0.0,0.0,0.0,0.0,0.0,0.0,1.1556,1.1373,1.1255,1.1194,1.1194,1.1194,1.1194,1.1194,1.1194,1.1194,1.1194,1.1194,1.1194,1.1194,1.1194,1.1194,1.1194,1.1194,0.0,1.1203,1.1316,1.1364,1.1373,1.1477,1.1556,1.1671,1.1671,1.1711,1.1791,1.1791,1.1791,1.1758,1.1556,1.152,1.152,1.152,1.152,1.152,1.152,1.152,1.152,1.152,1.152,1.152,1.152,1.152,1.152,1.152,1.152,1.152,1.152,1.152,1.152,1.152,1.152,1.152,1.152,1.152,1.152,1.152,1.152,1.1477,1.1373,1.1364,1.1406,1.151,1.152,1.1537,1.1641,1.1671,1.1692,1.1813,1.19,1.1961,1.1961,1.2164,1.2268,1.2272,1.234,1.2414,1.2414,1.2414,1.2414,1.1194,1.1194,1.1194,1.1194,1.1194,1.1194,1.1194,1.1326,0.0,0.0,1.0736,1.0599,1.0097,0.0,1.0296,0.0,0.0,0.0,0.0,0.0,0.0,0.0,0.0,0.0,0.0,0.0,0.0,0.0,0.0,0.0,1.1504,1.1354,1.1241,1.1198,1.1194,1.1194,1.1194,1.1194,1.1194,1.1194,1.1194,1.1194,1.1194,1.1194,1.1194,1.1198,1.1246,0.0,0.0,1.1466,1.1556,1.1575,1.173,1.182,1.1862,1.1862,1.1886,1.1923,1.1923,1.1923,1.1923,1.1923,1.1862,1.1791,1.1791,1.1791,1.1791,1.1791,1.1791,1.1791,1.1791,1.1791,1.1791,1.1791,1.1791,1.1791,1.1791,1.1791,1.1791,1.1791,1.1791,1.1791,1.1791,1.1791,1.1791,1.1791,1.1791,1.1791,1.1791,1.1791,1.1749,1.1636,1.1584,1.1622,1.1777,1.1791,1.181,1.1857,1.1862,1.1881,1.1923,1.2088,1.2151,1.2151,1.2334,1.2414,1.2414,1.2414,1.2414,1.2414,1.2414,1.2414,1.1194,1.1194,1.1194,1.1194,1.1194,1.1194,1.1194,0.0,0.0,1.1375,1.0934,1.057,1.0697,1.0873,0.0,0.0,0.0,1.23,0.0,0.0,0.0,0.0,0.0,0.0,0.0,0.0,0.0,0.0,0.0,0.0,1.1513,1.1471,1.1397,1.1198,1.1194,1.1194,1.1194,1.1194,1.1194,1.1194,1.1194,1.1194,1.1194,1.1194,1.1194,1.1203,1.1377,0.0,0.0,1.1683,1.1763,1.1768,1.1782,1.1909,1.2057,1.2057,1.2197,1.2325,1.2325,1.2325,1.2325,1.2325,1.2098,1.1791,1.1791,1.1791,1.1791,1.1791,1.1791,1.1791,1.1791,1.1791,1.1791,1.1791,1.1791,1.1791,1.1791,1.1791,1.1791,1.1791,1.1791,1.1791,1.1791,1.1791,1.1791,1.1791,1.1791,1.1791,1.1791,1.1791,1.1857,1.2037,1.1881,1.1773,1.1787,1.1791,1.1876,1.207,1.2057,1.2137,1.2348,1.2349,1.2358,1.2358,1.24,1.2414,1.2414,1.2414,1.2414,1.2414,1.2414,1.2414,1.1194,1.1194,1.1194,1.1194,1.1194,1.1194,1.1194,0.0,1.1449,1.1631,1.1553,1.1517,1.1733,1.1402,1.1263,0.0,0.0,0.0,0.0,0.0,0.0,0.0,0.0,0.0,0.0,0.0,0.0,0.0,0.0,0.0,1.1881,1.1744,1.1631,1.1546,1.1428,1.1387,1.1387,1.126,1.1194,1.1198,1.1326,1.1387,1.1367,1.1515,1.1567,1.1572,1.1661,0.0,0.0,1.19,1.1985,1.1999,1.2117,1.2216,1.2291,1.2291,1.2316,1.2414,1.2414,1.2414,1.2414,1.2414,1.2301,1.2164,1.2164,1.2164,1.2164,1.2164,1.2164,1.2164,1.2164,1.2164,1.2164,1.2164,1.2164,1.2164,1.2164,1.2164,1.2164,1.2164,1.2164,1.2164,1.2164,1.2164,1.2164,1.2164,1.2164,1.2164,1.2164,1.2164,1.2197,1.226,1.2107,1.2032,1.2154,1.2164,1.2202,1.2286,1.2291,1.2329,1.2409,1.2414,1.2414,1.2414,1.2414,1.2414,1.2414,1.2414,1.2414,1.2414,1.2414,1.2414,1.1194,1.1194,1.1194,1.1194,1.1194,1.1212,0.0,0.0,1.1565,1.1834,1.2008,1.2147,1.2349,1.1896,1.17,0.0,0.0,1.17,1.23,0.0,0.0,0.0,0.0,0.0,0.0,0.0,0.0,0.0,0.0,0.0,0.0,1.2055,1.1919,1.1796,1.1655,1.1579,1.1579,1.1458,1.1378,1.1383,1.1509,1.1579,1.1584,1.1751,1.1791,1.1791,0.0,0.0,0.0,1.2112,1.2202,1.2189,1.233,1.2414,1.2414,1.2414,1.2414,1.2414,1.2414,1.2414,1.2414,1.2414,1.2414,1.2414,1.2414,1.2414,1.2414,1.2414,1.2414,1.2414,1.2414,1.2414,1.2414,1.2414,1.2414,1.2414,1.2414,1.2414,1.2414,1.2414,1.2414,1.2414,1.2414,1.2414,1.2414,1.2414,1.2414,1.2414,1.2414,1.2414,1.2414,1.2414,1.226,1.2258,1.24,1.2414,1.2414,1.2414,1.2414,1.2414,1.2414,1.2414,1.2414,1.2414,1.2414,1.2414,1.2414,1.2475,1.2508,1.2508,1.2569,1.2598,1.1194,1.1194,1.1194,1.1194,1.1194,1.125,0.0,1.149,1.1608,1.1996,1.2112,1.2147,1.2349,1.2382,1.2382,0.0,0.0,0.0,0.0,0.0,0.0,0.0,0.0,0.0,0.0,0.0,0.0,0.0,0.0,0.0,0.0,1.2377,1.2216,1.1806,1.1787,1.1787,1.1787,1.1787,1.1782,1.1782,1.1813,1.1787,1.1787,1.1791,1.1791,0.0,0.0,0.0,0.0,1.2302,1.2409,1.2409,1.2414,1.2414,1.2414,1.2414,1.2414,1.2414,1.2414,1.2414,1.2414,1.2414,1.2414,1.2414,1.2414,1.2414,1.2414,1.2414,1.2414,1.2414,1.2414,1.2414,1.2414,1.2414,1.2414,1.2414,1.2414,1.2414,1.2414,1.2414,1.2414,1.2414,1.2414,1.2414,1.2414,1.2414,1.2414,1.2414,1.2414,1.2414,1.2414,1.2414,1.2409,1.2409,1.2414,1.2414,1.2414,1.2414,1.2414,1.2414,1.2414,1.2414,1.2414,1.2414,1.2414,1.2414,1.2414,1.2658,1.2795,1.28,1.2994,1.3089,1.1194,1.1194,1.1194,1.1194,1.1194,1.125,1.1443,1.1598,1.1777,1.2055,1.222,1.2311,1.24,1.2414,1.2414,0.0,0.0,0.0,0.0,0.0,0.0,0.0,0.0,0.0,0.0,0.0,0.0,0.0,0.0,0.0,0.0,1.2414,1.2352,1.222,1.2084,1.2013,1.2013,1.1867,1.1791,1.1791,1.1938,1.2013,1.2018,1.2154,0.0,0.0,0.0,0.0,0.0,1.2358,1.2414,1.2414,1.2414,1.2414,1.2414,1.2414,1.2414,1.2414,1.2414,1.2414,1.2414,1.2414,1.2414,1.2414,1.2414,1.2414,1.2414,1.2414,1.2414,1.2414,1.2414,1.2414,1.2414,1.2414,1.2414,1.2414,1.2414,1.2414,1.2414,1.2414,1.2414,1.2414,1.2414,1.2414,1.2414,1.2414,1.2414,1.2414,1.2414,1.2414,1.2414,1.2414,1.2414,1.2414,1.2414,1.2414,1.2414,1.2414,1.2414,1.2414,1.2414,1.2414,1.2414,1.2414,1.2587,1.2663,1.2663,1.2899,1.2999,1.3003,1.3065,1.3174,0.0,1.1194,1.1217,1.1298,1.1316,0.0,0.0,1.1824,1.1971,1.2183,1.2297,1.2414,1.2414,1.2414,1.2437,1.2522,0.0,0.0,0.0,0.0,0.0,0.0,0.0,0.0,0.0,0.0,0.0,0.0,0.0,0.0,0.0,1.2414,1.2414,1.2414,1.2291,1.2198,1.2198,1.2093,1.2022,1.2027,1.2159,1.2198,1.223,1.2325,0.0,0.0,0.0,0.0,0.0,1.2414,1.2414,1.2414,1.2414,1.2414,1.2414,1.2414,1.2414,1.2414,1.2414,1.2414,1.2414,1.2414,1.2414,1.2414,1.2414,1.2414,1.2414,1.2414,1.2414,1.2414,1.2414,1.2414,1.2414,1.2414,1.2414,1.2414,1.2414,1.2414,1.2414,1.2414,1.2414,1.2414,1.2414,1.2414,1.2414,1.2414,1.2414,1.2414,1.2414,1.2414,1.2414,1.2414,1.2414,1.2447,1.2527,1.2461,1.2414,1.2414,1.2414,1.2451,1.2559,1.2564,1.2597,1.2645,1.2838,1.2909,1.2909,1.3117,1.3259,1.333,1.333,1.3401,0.0,1.1194,1.1246,0.0,0.0,0.0,1.2018,1.2112,0.0,1.2371,1.2414,1.2414,1.2414,1.2414,1.2484,1.2762,0.0,0.0,0.0,0.0,0.0,0.0,0.0,0.0,0.0,0.0,0.0,0.0,0.0,0.0,0.0,1.2414,1.2414,1.2414,1.2414,1.2414,1.2414,1.2414,1.2414,1.2414,1.2414,1.2414,1.2414,1.2414,0.0,0.0,0.0,0.0,0.0,1.2414,1.2414,1.2414,1.2414,1.2414,1.2414,1.2414,1.2414,1.2414,1.2414,1.2414,1.2387,1.2428,1.2447,1.2456,1.2456,1.2433,1.2414,1.2414,1.2414,1.2414,1.2414,1.2414,1.2414,1.2414,1.2414,1.2418,1.2433,1.2433,1.2437,1.2456,1.2456,1.2456,1.2456,1.2456,1.2456,1.2456,1.2456,1.2456,1.2456,1.2456,1.2456,1.2456,1.2456,1.2541,1.28,1.2587,1.2442,1.2456,1.2456,1.2546,1.2809,1.2819,1.2904,1.3093,1.3112,1.3126,1.3141,1.334,1.3509,1.3688,1.3688,1.3688,1.1194,0.0,1.1246,1.1438,1.1494,1.1603,0.0,1.2112,1.2169,1.2371,1.2414,1.2414,1.2414,1.2414,1.2484,0.0,0.0,0.0,0.0,0.0,0.0,0.0,0.0,0.0,0.0,0.0,0.0,0.0,0.0,0.0,0.0,1.2414,1.2414,1.2414,1.2414,1.2414,1.2414,1.2414,1.2414,1.2414,1.2414,1.2414,1.2414,1.2414,0.0,0.0,0.0,0.0,1.2414,1.2414,1.2414,1.2414,1.2414,1.2414,1.2414,1.2414,1.2414,1.2414,1.2414,1.2414,1.2437,1.2635,1.2823,1.2946,1.2946,1.2668,1.2414,1.2414,1.2414,1.2414,1.2414,1.2414,1.2414,1.2414,1.2414,1.2456,1.2654,1.2719,1.2739,1.2918,1.2946,1.2946,1.2946,1.2946,1.2946,1.2946,1.2946,1.2946,1.2946,1.2946,1.2946,1.2946,1.2946,1.297,1.3022,1.2838,1.2758,1.2937,1.2946,1.297,1.3022,1.3027,1.3046,1.3093,1.3259,1.342,1.3572,1.3624,1.3646,1.3688,1.3688,1.3688,1.1194,1.1194,1.1269,1.1551,1.1631,1.174,1.2154,1.2249,1.2282,1.239,0.0,1.2414,1.2414,1.2414,0.0,0.0,0.0,0.0,0.0,0.0,0.0,0.0,0.0,0.0,0.0,0.0,0.0,0.0,0.0,0.0,0.0,1.2414,1.2414,1.2414,1.2414,1.2414,1.2414,1.2414,1.2414,1.2414,1.2414,1.2414,1.2414,1.2414,1.2414,0.0,0.0,0.0,1.2414,1.2414,1.2414,1.2414,1.2414,1.2414,1.2414,1.2414,1.2475,1.2592,1.2592,1.2649,1.2748,1.2894,1.3008,1.3208,1.3768,1.335,1.2729,1.2729,1.2729,1.2729,1.2729,1.2729,1.2729,1.2729,1.2729,1.2762,1.2909,1.2932,1.2965,1.3074,1.3093,1.3093,1.3093,1.3093,1.3093,1.3093,1.3093,1.3093,1.3093,1.3093,1.3093,1.3093,1.3093,1.3136,1.3235,1.3145,1.3084,1.3093,1.3093,1.3141,1.324,1.3245,1.3287,1.3377,1.3466,1.358,1.3688,1.3688,1.3688,1.3688,1.3688,1.3688,1.1194,1.1194,1.1288,1.165,1.1768,1.1895,1.2277,0.0,0.0,0.0,0.0,0.0,0.0,1.2437,0.0,0.0,0.0,0.0,0.0,0.0,0.0,0.0,0.0,0.0,0.0,0.0,0.0,0.0,0.0,0.0,0.0,1.2414,1.2414,1.2414,1.2414,1.2414,1.2414,1.2414,1.2414,1.2414,1.2414,1.2414,1.2414,1.2414,1.2414,0.0,0.0,0.0,1.2414,1.2414,1.2414,1.2414,1.2414,1.2414,1.2391,1.2451,1.2606,1.28,1.2833,1.2975,1.3174,1.337,1.3447,1.37,1.4909,1.4572,1.3729,1.3528,1.3284,1.3093,1.3093,1.3093,1.3093,1.3093,1.3093,1.3107,1.3136,1.3145,1.315,1.3183,1.3188,1.3188,1.3188,1.3188,1.3188,1.3188,1.3188,1.3188,1.3188,1.3188,1.3188,1.3188,1.3188,1.3264,1.3419,1.3463,1.3358,1.3202,1.3188,1.3273,1.3429,1.3463,1.3543,1.3688,1.3688,1.3688,1.3688,1.3688,1.3688,1.3688,1.3688,1.3808,1.1194,1.1194,1.1255,1.148,1.1669,1.1857,1.2076,1.2291,0.0,0.0,0.0,0.0,0.0,0.0,0.0,0.0,0.0,0.0,0.0,0.0,0.0,0.0,0.0,0.0,0.0,0.0,0.0,0.0,0.0,0.0,0.0,1.2414,1.2414,1.2414,1.2414,1.2414,1.2414,1.2414,1.2414,1.2414,1.2414,1.2414,1.2414,1.2414,1.2414,0.0,0.0,1.2414,1.2414,1.2414,1.2414,1.2414,1.2414,1.2414,1.2433,1.2649,1.2767,1.2819,1.2989,1.3188,1.3538,1.4603,1.5072,1.5432,1.6652,1.6885,1.6535,1.5491,1.4202,1.3093,1.3093,1.3093,1.3093,1.3093,1.3093,1.3145,1.333,1.3339,1.3391,1.3561,1.3624,1.3624,1.3624,1.3624,1.3624,1.3624,1.3624,1.3624,1.3624,1.3624,1.3624,1.3624,1.3624,1.3608,1.3641,1.3646,1.3627,1.3624,1.3624,1.3608,1.3641,1.3646,1.3655,1.3688,1.3688,1.3688,1.3688,1.3688,1.3688,1.3688,1.3688,1.4277,1.1194,1.1194,1.1246,1.1438,1.1641,1.1876,1.2202,1.2316,0.0,0.0,0.0,0.0,0.0,0.0,0.0,0.0,0.0,0.0,0.0,0.0,0.0,0.0,0.0,0.0,0.0,0.0,0.0,0.0,0.0,0.0,0.0,0.0,1.2414,1.2414,1.2414,1.2414,1.2414,1.2414,1.2414,1.2414,1.2414,1.2414,1.2414,1.2414,1.2414,1.2414,0.0,1.2414,1.2414,1.2414,1.2414,1.2396,1.2569,1.2616,1.2658,1.3013,1.3131,1.316,1.3363,1.3466,1.3784,1.5037,1.5518,1.5954,1.7858,1.7946,1.7443,1.7566,1.608,1.4297,1.3605,1.3429,1.3429,1.3429,1.3429,1.3458,1.3528,1.3551,1.358,1.367,1.3688,1.3688,1.3688,1.3688,1.3688,1.3688,1.3688,1.3688,1.3688,1.3688,1.3688,1.3688,1.3688,1.3688,1.3688,1.3688,1.3688,1.3688,1.3688,1.3688,1.3688,1.3688,1.3688,1.3688,1.3688,1.3688,1.3688,1.3688,1.3688,1.3688,1.3688,1.4013,1.112,1.1182,1.1321,1.1509,0.0,1.1886,1.2258,1.2376,0.0,0.0,0.0,0.0,0.0,0.0,0.0,0.0,0.0,0.0,0.0,0.0,0.0,0.0,0.0,0.0,0.0,0.0,0.0,0.0,0.0,0.0,0.0,0.0,1.2414,1.2414,1.2414,1.2414,1.2414,1.2414,1.2414,1.2414,1.2414,1.2414,1.2414,1.2414,1.2414,1.2414,1.2414,1.2414,1.2414,1.2414,1.2442,1.2503,1.2729,1.2857,1.298,1.3302,1.3419,1.348,1.3636,1.3898,1.4336,1.5599,1.622,1.6891,1.9087,1.9058,1.8441,1.9116,1.7917,1.6101,1.4545,1.4132,1.4072,1.3778,1.3688,1.3688,1.3688,1.3688,1.3688,1.3688,1.3688,1.3688,1.3688,1.3688,1.3688,1.3688,1.3688,1.3688,1.3688,1.3688,1.3688,1.3688,1.3688,1.3688,1.3688,1.3688,1.3688,1.3688,1.3688,1.3688,1.3688,1.3688,1.3688,1.3688,1.3688,1.3688,1.3688,1.3688,1.3688,1.3688,1.3688,1.3868,1.0826,1.1146,1.1518,1.1721,1.1782,1.1853,1.2079,1.2277,0.0,1.2414,0.0,0.0,0.0,0.0,0.0,0.0,0.0,0.0,0.0,0.0,0.0,0.0,0.0,0.0,0.0,0.0,0.0,0.0,0.0,0.0,0.0,0.0,0.0,1.2414,1.2414,1.2414,1.2414,1.2414,1.2414,1.2414,1.2414,1.2414,1.2414,1.2414,1.2414,1.2414,1.2414,1.2414,1.2414,1.2414,1.2559,1.2771,1.279,1.3032,1.3348,1.3381,1.3509,1.367,1.3684,1.4456,1.5658,1.6885,1.8062,1.9296,2.0651,2.1003,2.0709,1.9615,1.9174,1.847,1.6072,1.5456,1.5165,1.3983,1.3688,1.3688,1.3688,1.3688,1.3688,1.3688,1.3688,1.3688,1.3688,1.3688,1.3688,1.3688,1.3688,1.3688,1.3688,1.3688,1.3688,1.3688,1.3688,1.3688,1.3688,1.3688,1.3688,1.3688,1.3688,1.3688,1.3688,1.3688,1.3688,1.3688,1.3688,1.3688,1.3688,1.3688,1.3688,1.3688,1.3688,1.4336,1.0998,1.128,1.1542,1.174,1.189,0.0,0.0,1.2357,1.2414,1.2414,1.2414,0.0,0.0,0.0,0.0,0.0,0.0,0.0,0.0,0.0,0.0,0.0,0.0,0.0,0.0,0.0,0.0,0.0,0.0,0.0,0.0,0.0,0.0,1.2414,1.2414,1.2414,1.2414,1.2414,1.2414,1.2414,1.2414,1.2414,1.2414,1.2414,1.2414,1.2414,1.2414,1.2414,1.2423,1.2587,1.2719,1.2819,1.3084,1.3329,1.3694,1.4483,1.4825,1.4986,1.5747,1.6332,1.6921,1.8179,1.8913,1.9528,2.0795,2.1211,2.1089,2.0615,2.0472,1.991,1.7361,1.6155,1.5486,1.5016,1.4277,1.3688,1.3688,1.3688,1.3688,1.3688,1.3688,1.3688,1.3688,1.3688,1.3688,1.3688,1.3688,1.3688,1.3688,1.3688,1.3688,1.3688,1.3688,1.3688,1.3688,1.3688,1.3688,1.3688,1.3688,1.3688,1.3688,1.3688,1.3688,1.3688,1.3688,1.3688,1.3688,1.3688,1.4102,1.4867,1.4867,1.554,1.1022,1.1327,1.1622,1.1784,0.0,0.0,1.2381,1.2414,1.2414,1.2414,1.2414,0.0,0.0,0.0,0.0,0.0,0.0,0.0,0.0,0.0,0.0,0.0,0.0,0.0,0.0,0.0,0.0,0.0,0.0,0.0,0.0,0.0,0.0,0.0,1.2414,1.2414,1.2414,1.2414,1.2414,1.2414,1.2414,1.2414,1.2414,1.2414,1.2414,1.2414,1.2414,1.2414,1.2428,1.2677,1.3123,1.3613,1.3951,1.4414,1.4981,1.5865,1.6155,1.6302,1.7126,1.7647,1.815,1.9029,1.9557,2.0061,2.0945,2.1211,2.1211,2.1211,2.0917,2.0206,1.8441,1.7097,1.5983,1.5189,1.4336,1.3688,1.3688,1.3688,1.3688,1.3688,1.3688,1.3688,1.3688,1.3688,1.3688,1.3688,1.3688,1.3688,1.3688,1.3688,1.3688,1.3688,1.3688,1.3688,1.3688,1.3688,1.3688,1.3688,1.3688,1.3688,1.3688,1.3688,1.3688,1.3688,1.3688,1.3688,1.3688,1.4102,1.4748,1.5604,1.5983,1.6626,1.0806,1.1299,1.1791,0.0,0.0,0.0,1.2414,1.2414,1.2414,1.2414,0.0,0.0,0.0,0.0,0.0,0.0,0.0,0.0,0.0,0.0,0.0,0.0,0.0,0.0,0.0,0.0,0.0,0.0,0.0,0.0,0.0,0.0,0.0,0.0,1.2414,1.2414,1.2414,1.2436,1.2436,1.2436,1.2436,1.2436,1.2414,1.2414,1.2414,1.2414,1.2414,1.2414,1.2433,1.271,1.3803,1.5315,1.5542,1.6361,1.7413,1.7413,1.7413,1.7413,1.7443,1.8267,1.9325,1.9325,2.0177,2.1211,2.1211,2.1211,2.1211,2.1211,2.0263,1.9296,1.929,1.8354,1.6774,1.4306,1.3718,1.3688,1.3688,1.3688,1.3688,1.3688,1.3688,1.3688,1.3688,1.3688,1.3688,1.3688,1.3688,1.3688,1.3688,1.3688,1.3688,1.3688,1.3688,1.3688,1.3688,1.3688,1.3688,1.3688,1.3688,1.3688,1.3688,1.3688,1.3688,1.3688,1.3688,1.3688,1.3688,1.4986,1.5604,1.5658,1.6862,1.7413,1.1208,1.1538,0.0,1.198,0.0,0.0,0.0,1.2414,0.0,0.0,0.0,0.0,0.0,0.0,0.0,0.0,0.0,0.0,0.0,0.0,0.0,0.0,0.0,0.0,0.0,0.0,0.0,0.0,0.0,0.0,0.0,0.0,0.0,0.0,1.3224,1.3684,1.3684,1.4449,1.4873,1.4873,1.4873,1.4449,1.363,1.279,1.2871,1.363,1.2762,1.2499,1.2779,1.4027,1.4932,1.5595,1.651,1.7097,1.7501,1.8412,1.8739,1.8855,1.9766,2.0328,2.0651,2.0651,2.0888,2.1211,2.1211,2.1211,2.1211,2.1211,2.0263,1.9087,1.8208,1.7038,1.5954,1.5219,1.4336,1.3688,1.3688,1.3688,1.3688,1.3688,1.3688,1.3688,1.3688,1.3688,1.3688,1.3688,1.3688,1.3688,1.3688,1.3688,1.3688,1.3688,1.3688,1.3688,1.3688,1.3688,1.3688,1.3688,1.3688,1.3688,1.3688,1.3688,1.3688,1.3688,1.3688,1.3688,1.3688,1.4986,1.6042,1.6891,1.815,1.921,1.118,0.0,0.0,1.1952,1.2202,1.2414,1.2414,0.0,0.0,0.0,0.0,0.0,0.0,0.0,0.0,0.0,0.0,0.0,0.0,0.0,0.0,0.0,0.0,0.0,0.0,0.0,0.0,0.0,0.0,0.0,0.0,0.0,0.0,0.0,1.4508,1.4884,1.4884,1.5568,1.5888,1.5888,1.5888,1.5547,1.4831,1.3651,1.3251,1.3445,1.2832,1.304,1.3875,1.4876,1.5995,1.7126,1.7858,1.847,1.9,1.9766,2.0061,2.0148,2.0945,2.1211,2.1211,2.1211,2.1211,2.1211,2.1211,2.1211,2.1211,2.1211,1.991,1.8383,1.7589,1.6125,1.4838,1.4838,1.4247,1.3688,1.3688,1.3688,1.3688,1.3688,1.3688,1.3688,1.3688,1.3688,1.3688,1.3688,1.3688,1.3688,1.3688,1.3688,1.3688,1.3688,1.3688,1.3688,1.3688,1.3688,1.3688,1.3688,1.3688,1.3688,1.3688,1.3688,1.3688,1.3688,1.3688,1.3688,1.3688,1.5456,1.6685,1.7443,1.9232,2.0472,1.0923,0.0,0.0,1.1815,1.2117,0.0,0.0,0.0,0.0,0.0,0.0,0.0,0.0,0.0,0.0,0.0,0.0,0.0,0.0,0.0,0.0,0.0,0.0,0.0,0.0,0.0,0.0,0.0,0.0,0.0,0.0,0.0,0.0,0.0,1.5994,1.6047,1.6047,1.6154,1.6207,0.0,1.6207,1.6154,1.6021,1.4884,1.377,1.2774,1.3052,1.403,1.5462,1.5599,1.7093,1.9296,1.9441,2.0177,2.1211,2.1211,2.1211,2.1211,2.1211,2.1211,2.1211,2.1211,2.1211,2.1211,2.1211,2.1211,2.1211,2.1211,1.9383,1.7413,1.7413,1.5569,1.3688,1.3688,1.3688,1.3688,1.3688,1.3688,1.3688,1.3688,1.3688,1.3688,1.3688,1.3688,1.3688,1.3688,1.3688,1.3688,1.3688,1.3688,1.3688,1.3688,1.3688,1.3688,1.3688,1.3688,1.3688,1.3688,1.3688,1.3688,1.3688,1.3688,1.3688,1.3688,1.3688,1.3748,1.3893,1.6243,1.7472,1.7618,2.0061,2.1211,1.1327,1.1577,0.0,0.0,1.223,0.0,0.0,0.0,0.0,0.0,0.0,0.0,0.0,0.0,0.0,0.0,0.0,0.0,0.0,0.0,0.0,0.0,0.0,0.0,0.0,0.0,0.0,0.0,0.0,0.0,0.0,0.0,0.0,1.5888,1.677,1.7232,1.7232,1.8127,1.8579,0.0,1.8579,1.8101,1.7206,1.6054,1.5519,1.5473,1.5727,1.6179,1.6798,1.7974,1.8774,1.9412,2.0414,2.0945,2.1211,2.1211,2.1211,2.1211,2.1211,2.1211,2.1211,2.1211,2.1211,2.1211,2.1211,2.1211,2.1211,2.1211,1.9383,1.7413,1.7413,1.5569,1.3688,1.3688,1.3688,1.3688,1.3688,1.3688,1.3688,1.3688,1.3688,1.3688,1.3688,1.3688,1.3688,1.3688,1.3688,1.3688,1.3688,1.3688,1.3688,1.3688,1.3688,1.3688,1.3688,1.3688,1.3688,1.3688,1.3688,1.3688,1.3688,1.3688,1.3688,1.3688,1.3688,1.4187,1.5189,1.6685,1.7917,1.8942,2.0472,2.1211,1.119,0.0,0.0,1.2202,0.0,0.0,0.0,0.0,0.0,0.0,0.0,0.0,0.0,0.0,0.0,0.0,0.0,0.0,0.0,0.0,0.0,0.0,0.0,0.0,0.0,0.0,0.0,0.0,0.0,0.0,0.0,1.6717,1.6955,1.7509,1.8101,1.8403,1.8403,1.9011,1.9305,1.9305,1.9305,1.8985,1.8351,1.6664,1.6126,1.6502,1.6641,1.7259,1.8196,1.8963,1.965,2.0263,2.0945,2.1211,2.1211,2.1211,2.1211,2.1211,2.1211,2.1211,2.1211,2.1211,2.1211,2.1211,2.1211,2.0766,2.0299,2.0299,1.8477,1.6538,1.6538,1.513,1.3688,1.3688,1.3688,1.3688,1.3688,1.3688,1.3688,1.3688,1.3688,1.3688,1.3688,1.3688,1.3688,1.3688,1.3688,1.3688,1.3688,1.3688,1.3688,1.3688,1.3688,1.3688,1.3688,1.3688,1.3688,1.3688,1.3688,1.3983,1.457,1.46,1.46,1.46,1.46,1.5219,1.645,1.7712,1.8645,1.9325,2.0622,2.1211,1.1016,0.0,1.2186,1.2606,1.2545,0.0,0.0,0.0,0.0,0.0,0.0,0.0,0.0,0.0,0.0,0.0,0.0,0.0,0.0,0.0,0.0,0.0,0.0,0.0,0.0,0.0,0.0,0.0,0.0,0.0,1.7845,1.7898,1.8325,1.9272,1.9305,1.9305,1.9305,1.9305,1.9305,1.9305,1.9305,1.9305,1.9253,1.7404,1.6844,1.7315,1.7365,1.8246,1.9622,1.9622,2.0234,2.1211,2.1211,2.1211,2.1211,2.1211,2.1211,2.1211,2.1211,2.1211,2.1211,2.1211,2.1211,2.1211,2.1211,2.0328,1.9296,1.9296,1.7507,1.5604,1.5604,1.4659,1.3688,1.3688,1.3688,1.3688,1.3688,1.3688,1.3688,1.3688,1.3688,1.3688,1.3688,1.3688,1.3688,1.3688,1.3688,1.3688,1.3688,1.3688,1.3688,1.3688,1.3688,1.3688,1.3688,1.3688,1.3688,1.3688,1.3923,1.4515,1.5575,1.5806,1.6013,1.6214,1.6013,1.6509,1.7741,1.8797,1.9412,1.965,2.0709,2.1211,0.0,0.0,1.2399,0.0,1.3169,0.0,0.0,0.0,0.0,0.0,0.0,0.0,0.0,0.0,0.0,0.0,0.0,0.0,0.0,0.0,0.0,0.0,0.0,0.0,0.0,0.0,0.0,0.0,0.0,0.0,1.9063,1.9063,1.9142,1.9305,1.9305,1.9305,1.9305,1.9305,1.9305,1.9305,1.9305,1.9305,1.9312,1.9293,1.9449,1.9745,2.0051,2.0465,2.0945,2.0945,2.106,2.1211,2.1211,2.1211,2.1211,2.1211,2.1211,2.1211,2.1211,2.1211,2.1211,2.1211,2.1211,2.1211,2.1211,2.0328,1.9296,1.9296,1.7507,1.5604,1.5604,1.4659,1.3688,1.3688,1.3688,1.3688,1.3688,1.3688,1.3688,1.3688,1.3688,1.3688,1.3688,1.3688,1.3688,1.3688,1.3688,1.3688,1.3688,1.3688,1.3688,1.3688,1.3688,1.3688,1.3688,1.3688,1.3688,1.3688,1.4748,1.5426,1.5599,1.6597,1.7683,1.8768,1.7706,1.7764,1.9058,1.921,1.9881,2.0945,2.1125,2.1211,1.1749,1.2433,1.3075,0.0,1.3781,0.0,0.0,0.0,0.0,0.0,0.0,0.0,0.0,0.0,0.0,0.0,0.0,0.0,0.0,0.0,0.0,0.0,0.0,0.0,0.0,0.0,0.0,0.0,0.0,1.9305,1.9305,1.9305,1.9305,1.9305,1.9305,1.9305,1.9305,1.9305,1.9305,1.9305,1.9305,1.9305,1.932,1.9798,2.0079,2.0225,2.0554,2.0882,2.1211,2.1211,2.1211,2.1211,2.1211,2.1211,2.1211,2.1211,2.1211,2.1211,2.1211,2.1211,2.1211,2.1211,2.1211,2.1211,2.1211,1.9824,1.8237,1.8237,1.645,1.4545,1.4545,1.4132,1.3688,1.3688,1.3688,1.3688,1.3688,1.3688,1.3688,1.3688,1.3688,1.3688,1.3688,1.3688,1.3688,1.3688,1.3688,1.3688,1.3688,1.3688,1.3688,1.3688,1.3688,1.3688,1.3688,1.4336,1.4748,1.4748,1.5924,1.6921,1.7653,1.8179,1.9058,2.0357,1.9116,1.9087,2.0349,2.0349,2.0651,2.1211,2.1211,2.1211,0.0,0.0,1.4141,1.3799,1.4819,0.0,0.0,0.0,0.0,0.0,0.0,0.0,0.0,0.0,0.0,0.0,0.0,0.0,0.0,0.0,0.0,0.0,0.0,0.0,0.0,0.0,0.0,0.0,0.0,1.9305,1.9305,1.9305,1.9305,1.9305,1.9305,1.9305,1.9305,1.9305,1.9305,1.9305,1.9305,1.9305,1.932,1.9918,2.021,2.0232,2.0641,2.0955,2.1211,2.1211,2.1211,2.1211,2.1211,2.1211,2.1211,2.1211,2.1211,2.1211,2.1211,2.1211,2.1211,2.1211,2.1211,2.1211,2.1211,1.965,1.7829,1.7501,1.5865,1.4102,1.3778,1.3688,1.3688,1.3688,1.3688,1.3688,1.3688,1.3688,1.3688,1.3688,1.3688,1.3688,1.3688,1.3688,1.3688,1.3688,1.3688,1.3688,1.3688,1.3688,1.3688,1.3688,1.3983,1.4192,1.4192,1.5337,1.6072,1.6072,1.7214,1.8325,1.9267,1.9615,2.0234,2.1182,2.0263,2.0234,2.1211,2.1211,2.1211,2.1211,2.1211,2.1211,0.0,1.435,0.0,1.7003,0.0,0.0,0.0,0.0,0.0,0.0,0.0,0.0,0.0,0.0,0.0,0.0,0.0,0.0,0.0,0.0,0.0,0.0,0.0,0.0,0.0,0.0,0.0,0.0,0.0,1.9305,1.9305,1.9305,1.9305,1.9305,1.9305,1.9305,1.9305,1.9305,1.9305,1.9305,1.9305,1.9305,1.932,1.9918,2.021,2.0247,2.0882,2.1196,2.1211,2.1211,2.1211,2.1211,2.1211,2.1211,2.1211,2.1211,2.1211,2.1211,2.1211,2.1211,2.1211,2.1211,2.1211,2.1211,2.1211,2.027,1.8942,1.7735,1.6479,1.5219,1.4013,1.3688,1.3688,1.3688,1.3688,1.3688,1.3688,1.3688,1.3688,1.3688,1.3688,1.3688,1.3688,1.3688,1.3688,1.3688,1.3688,1.3688,1.3688,1.3688,1.3688,1.3688,1.4778,1.5515,1.5515,1.6626,1.7296,1.7296,1.85,1.9232,1.9296,2.0472,2.1117,2.1211,2.1117,2.1117,2.1211,2.1211,2.1211,2.1211,2.1211,2.1211,0.0,0.0,0.0,1.6236,1.7134,0.0,0.0,0.0,0.0,0.0,0.0,0.0,0.0,0.0,0.0,0.0,0.0,0.0,0.0,0.0,0.0,0.0,0.0,0.0,0.0,0.0,0.0,0.0,0.0,0.0,1.9305,1.9305,1.9305,1.9305,1.9305,1.9305,1.9305,1.9305,1.9305,1.9305,1.9305,1.9305,1.932,1.9918,2.021,2.0247,2.0897,2.1211,2.1211,2.1211,2.1211,2.1211,2.1211,2.1211,2.1211,2.1211,2.1211,2.1211,2.1211,2.1211,2.1211,2.1211,2.1211,2.1211,2.1211,2.0328,1.9203,1.8761,1.7155,1.5486,1.5046,1.4306,1.3688,1.3688,1.3688,1.3688,1.3688,1.3688,1.3688,1.3688,1.3688,1.3688,1.3688,1.3688,1.3688,1.3688,1.3688,1.3688,1.3688,1.3688,1.4013,1.4838,1.5337,1.5895,1.6685,1.7887,1.8616,1.8616,1.9824,2.0529,2.0529,2.0945,2.1211,2.1211,2.1211,2.1211,2.1211,2.1211,2.1211,2.1211,2.1211,2.1211,1.4451,0.0,0.0,0.0,0.0,0.0,0.0,0.0,0.0,0.0,0.0,0.0,0.0,0.0,0.0,0.0,0.0,0.0,0.0,0.0,0.0,0.0,0.0,0.0,0.0,0.0,0.0,0.0,0.0,0.0,1.9305,1.9305,1.9305,1.9305,1.9305,1.9305,1.9305,1.9305,1.9305,1.9305,1.9305,1.9305,1.932,1.9918,2.021,2.0247,2.0897,2.1211,2.1211,2.1211,2.1211,2.1211,2.1211,2.1211,2.1211,2.1211,2.1211,2.1211,2.1211,2.1211,2.1211,2.1211,2.1211,2.1211,2.1211,2.0622,1.9853,1.9412,1.78,1.6101,1.5717,1.4659,1.3688,1.3688,1.3688,1.3688,1.3688,1.3688,1.3688,1.3688,1.3688,1.3688,1.3688,1.3688,1.3833,1.4277,1.4336,1.4485,1.4892,1.4951,1.5273,1.6101,1.6597,1.7185,1.7975,1.921,1.9946,1.9946,2.0737,2.1211,2.1211,2.1211,2.1211,2.1211,2.1211,2.1211,2.1211,2.1211,2.1211,2.1211,2.1211,2.1211,0.0,0.0,0.0,0.0,0.0,0.0,0.0,0.0,0.0,0.0,0.0,0.0,0.0,0.0,0.0,0.0,0.0,0.0,0.0,0.0,0.0,0.0,0.0,0.0,0.0,0.0,0.0,0.0,0.0,1.9305,1.9305,1.9305,1.9305,1.9305,1.9305,1.9305,1.9305,1.9305,1.9305,1.9305,1.9305,1.9305,1.932,1.9918,2.021,2.0247,2.0897,2.1211,2.1211,2.1211,2.1211,2.1211,2.1211,2.1211,2.1211,2.1211,2.1211,2.1211,2.1211,2.1211,2.1211,2.1211,2.1211,2.1211,2.1211,2.1211,2.0945,1.9708,1.8441,1.7179,1.5924,1.4659,1.3688,1.3688,1.3688,1.3688,1.3688,1.3688,1.3688,1.3688,1.3688,1.3718,1.3748,1.3748,1.4192,1.5456,1.5658,1.6072,1.7237,1.7413,1.7413,1.7443,1.8558,1.9325,1.9354,2.05,2.1211,2.1211,2.1211,2.1211,2.1211,2.1211,2.1211,2.1211,2.1211,2.1211,2.1211,2.1211,2.1211,2.1211,2.1211,2.1211,1.5295,0.0,0.0,0.0,0.0,0.0,0.0,0.0,0.0,0.0,0.0,0.0,0.0,0.0,0.0,0.0,0.0,0.0,0.0,0.0,0.0,0.0,0.0,0.0,0.0,0.0,0.0,0.0,1.9305,1.9305,1.9305,1.9305,1.9305,1.9305,1.9305,1.9305,1.9305,1.9305,1.9305,1.9305,1.9305,1.9305,1.932,1.9918,2.021,2.0247,2.0897,2.1211,2.1211,2.1211,2.1211,2.1211,2.1211,2.1211,2.1211,2.1211,2.1211,2.1211,2.1211,2.1211,2.1211,2.1211,2.1211,2.1211,2.1211,2.1211,2.1117,2.0766,1.9766,1.8267,1.6161,1.4659,1.3688,1.3688,1.3688,1.3688,1.3688,1.3688,1.3688,1.3688,1.3688,1.3983,1.4927,1.5075,1.5486,1.6715,1.6891,1.7009,1.7355,1.7413,1.7735,1.868,1.9087,1.9673,2.0594,2.1003,2.1211,2.1211,2.1211,2.1211,2.1211,2.1211,2.1211,2.1211,2.1211,2.1211,2.1211,2.1211,2.1211,2.1211,2.1211,2.1211,0.0,0.0,0.0,0.0,0.0,0.0,1.7901,1.8255,0.0,0.0,0.0,0.0,0.0,0.0,0.0,0.0,0.0,0.0,0.0,0.0,0.0,0.0,0.0,0.0,0.0,0.0,0.0,1.9305,1.9305,1.9305,1.9305,1.9305,1.9305,1.9305,1.9305,1.9305,1.9305,1.9305,1.9305,1.9305,1.9305,1.9305,1.932,1.9806,2.0079,2.0239,2.0758,2.1086,2.1211,2.1211,2.1211,2.1211,2.1211,2.1211,2.1211,2.1211,2.1211,2.1211,2.1211,2.1211,2.1211,2.1211,2.1211,2.1211,2.1211,2.1211,2.1211,2.1211,2.0263,1.8826,1.6862,1.5806,1.5248,1.5248,1.5248,1.5248,1.5248,1.5248,1.51,1.4605,1.4485,1.4897,1.6131,1.6361,1.6808,1.8189,1.8408,1.8629,1.9319,1.9391,1.9693,2.0413,2.0501,2.0809,2.1555,2.1613,2.1562,2.1423,2.1415,2.135,2.1218,2.1211,2.1211,2.1211,2.1211,2.1211,2.1211,2.1211,2.1211,2.1211,2.1211,2.1211,0.0,0.0,0.0,0.0,0.0,0.0,1.7368,1.7784,1.8152,0.0,0.0,0.0,0.0,0.0,0.0,0.0,0.0,0.0,0.0,0.0,0.0,0.0,0.0,0.0,0.0,1.9305,1.9305,1.9305,1.9305,1.9305,1.9305,1.9305,1.9305,1.9305,1.9305,1.9305,1.9305,1.9305,1.9305,1.9305,1.9305,1.9305,1.9312,1.9642,1.9938,2.0225,2.0554,2.0882,2.1211,2.1211,2.1211,2.1211,2.1211,2.1211,2.1211,2.1211,2.1211,2.1211,2.1211,2.1211,2.1211,2.1211,2.1211,2.1211,2.1211,2.1211,2.1211,2.1211,2.0263,1.9029,1.791,1.7501,1.7413,1.7413,1.7413,1.7413,1.7413,1.7413,1.712,1.619,1.5895,1.6196,1.7455,1.7667,1.82,1.9832,2.0057,2.0582,2.202,2.2214,2.2214,2.2214,2.2214,2.2214,2.2214,2.2214,2.2059,2.1767,2.1752,2.162,2.1328,2.1284,2.1262,2.1262,2.1233,2.1211,2.1211,2.1211,2.1211,2.1211,2.1211,2.1211,0.0,0.0,0.0,0.0,0.0,0.0,1.7317,1.7602,1.7792,0.0,0.0,0.0,0.0,0.0,0.0,0.0,0.0,0.0,0.0,0.0,0.0,0.0,0.0,0.0,0.0,1.9305,1.9305,1.9305,1.9305,1.9305,1.9305,1.9305,1.9305,1.9305,1.9305,1.9305,1.9305,1.9305,1.9305,1.9305,1.9305,1.9305,1.9312,1.9642,1.9938,2.0225,2.0554,2.0882,2.1211,2.1211,2.1211,2.1211,2.1211,2.1211,2.1211,2.1211,2.1211,2.1211,2.1211,2.1211,2.1211,2.1211,2.1211,2.1211,2.1211,2.1211,2.1211,2.1211,2.0263,1.9239,1.9,1.8179,1.7413,1.7413,1.7413,1.7413,1.7413,1.7413,1.7618,1.8412,1.7741,1.7538,1.9073,1.9319,1.9875,2.1487,2.1716,2.1864,2.2176,2.2214,2.2214,2.2214,2.2214,2.2214,2.2214,2.2214,2.2154,2.2126,2.2089,2.2059,2.2001,2.1745,2.1606,2.1606,2.1342,2.1211,2.1211,2.1211,2.1211,2.1211,2.1211,2.1211,0.0,0.0,0.0,1.7302,0.0,0.0,0.0,1.7434,1.7499,0.0,0.0,0.0,0.0,0.0,0.0,0.0,0.0,0.0,0.0,0.0,0.0,0.0,0.0,0.0,0.0,1.9305,1.9305,1.9305,1.9305,1.9305,1.9305,1.9305,1.9305,1.9305,1.9305,1.9305,1.9305,1.9305,1.9305,1.9305,1.9305,1.9305,1.9305,1.9474,1.9784,2.0217,2.0386,2.0729,2.1211,2.1211,2.1211,2.1211,2.1211,2.1211,2.1211,2.1211,2.1211,2.1211,2.1211,2.1211,2.1211,2.1211,2.1211,2.1211,2.1211,2.1211,2.1211,2.1211,2.0737,2.0234,2.0234,1.9766,1.9296,1.9296,1.9296,1.9296,1.9296,1.9296,1.9546,2.035,1.9991,1.9798,2.0616,2.0888,2.1307,2.2261,2.2403,2.2462,2.2623,2.2645,2.2645,2.2645,2.2645,2.2645,2.2645,2.2645,2.2579,2.241,2.2403,2.2337,2.2221,2.2023,2.1942,2.1942,2.1774,2.1693,2.1693,2.1693,2.1525,2.1211,2.1211,2.1211,0.0,0.0,0.0,0.0,0.0,1.7302,0.0,0.0,0.0,1.7302,0.0,0.0,0.0,0.0,0.0,0.0,0.0,0.0,0.0,0.0,0.0,0.0,0.0,0.0,0.0,1.9305,1.9305,1.9305,1.9305,1.9305,1.9305,1.9305,1.9305,1.9305,1.9305,1.9305,1.9305,1.9305,1.9305,1.9305,1.9305,1.9305,1.9305,1.9305,1.963,2.021,2.021,2.0575,2.1211,2.1211,2.1211,2.1211,2.1211,2.1211,2.1211,2.1211,2.1211,2.1211,2.1211,2.1211,2.1211,2.1211,2.1211,2.1211,2.1211,2.1211,2.1211,2.1211,2.1211,2.1211,2.1211,2.1211,2.1211,2.1211,2.1211,2.1211,2.1211,2.1262,2.1379,2.1642,2.1796,2.1876,2.1876,2.2096,2.2374,2.2643,2.2687,2.2782,2.3076,2.3106,2.3106,2.3106,2.3106,2.3106,2.3106,2.3106,2.2996,2.2702,2.2687,2.2608,2.2374,2.2301,2.2242,2.2214,2.2214,2.2214,2.2214,2.2214,2.1913,2.1393,2.1393,2.1393,0.0,0.0,0.0,0.0,1.6631,0.0,0.0,0.0,1.7302,1.7302,0.0,0.0,0.0,0.0,0.0,0.0,0.0,0.0,0.0,0.0,0.0,0.0,0.0,0.0,0.0,0.0,1.9305,1.9305,1.9305,1.9305,1.9305,1.9305,1.9305,1.9305,1.9305,1.9305,1.9305,1.9305,1.9305,1.9305,1.9305,1.9305,1.9305,1.9305,1.963,2.021,2.021,2.0575,2.1211,2.1211,2.1211,2.1211,2.1211,2.1211,2.1211,2.1211,2.1211,2.1211,2.1211,2.1211,2.1211,2.1211,2.1211,2.1211,2.1211,2.1211,2.1211,2.1211,2.1211,2.1211,2.1211,2.1211,2.1211,2.1211,2.1211,2.1211,2.1211,2.1437,2.165,2.1686,2.214,2.249,2.249,2.2519,2.2681,2.3003,2.3054,2.3069,2.3106,2.3106,2.3106,2.3106,2.3106,2.3106,2.3106,2.3106,2.3091,2.3054,2.3054,2.304,2.3003,2.2725,2.2447,2.2184,2.2214,2.2214,2.2214,2.2214,2.2147,2.2104,2.2104,2.2104,0.0,0.0,0.0,0.0,0.0,0.0,0.0,0.0,1.7333,0.0,0.0,0.0,0.0,0.0,0.0,0.0,0.0,0.0,0.0,0.0,0.0,0.0,0.0,0.0,0.0,0.0,0.0,0.0,0.0,1.9305,1.9305,1.9305,1.9305,1.9305,1.9305,1.9305,1.9305,1.9305,1.9305,1.9305,1.9305,1.9305,1.9305,1.9305,1.963,2.021,2.021,2.0575,2.1211,2.1211,2.1211,2.1211,2.1211,2.1211,2.1211,2.1211,2.1211,2.1211,2.1211,2.1211,2.1211,2.1211,2.1211,2.1211,2.1211,2.1211,2.1211,2.1211,2.1211,2.1211,2.1211,2.1211,2.1211,2.1211,2.1211,2.1262,2.1452,2.1598,2.1803,2.2162,2.2417,2.2651,2.2871,2.2877,2.2952,2.3091,2.3106,2.3106,2.3106,2.3106,2.304,2.2842,2.2828,2.2754,2.2586,2.2571,2.2645,2.2789,2.3003,2.3106,2.3106,2.295,2.2849,2.2725,2.2718,2.2718,2.2718,2.2718,2.2718,2.271,2.2352,2.2214,1.3234,0.0,0.0,0.0,0.0,0.0,0.0,0.0,0.0,0.0,0.0,0.0,0.0,0.0,0.0,0.0,0.0,0.0,0.0,0.0,0.0,0.0,0.0,0.0,0.0,0.0,0.0,1.9305,1.9305,1.9305,1.9305,1.9305,1.9305,1.9305,1.9305,1.9305,1.9305,1.9305,1.9305,1.9305,1.9305,1.9305,1.9305,1.9305,1.963,2.021,2.021,2.0575,2.1211,2.1211,2.1211,2.1211,2.1211,2.1211,2.1211,2.1211,2.1211,2.1211,2.1211,2.1211,2.1211,2.1211,2.1211,2.1211,2.1211,2.1211,2.1211,2.1211,2.1211,2.1211,2.1211,2.1211,2.1211,2.1211,2.1211,2.1298,2.1628,2.1767,2.1986,2.249,2.2592,2.2665,2.2937,2.3047,2.3084,2.2988,2.2974,2.2945,2.2864,2.2857,2.2769,2.2528,2.2506,2.2418,2.2236,2.2214,2.2308,2.257,2.2899,2.3106,2.3106,2.3106,2.3106,2.3106,2.3106,2.3106,2.3106,2.3106,2.3106,2.3098,2.2645,2.244,0.0,0.0,0.0,1.4388,0.0,0.0,0.0,0.0,1.738,0.0,0.0,0.0,0.0,0.0,0.0,0.0,0.0,0.0,0.0,0.0,0.0,0.0,0.0,0.0,0.0,0.0,0.0,1.9305,1.9305,1.9305,1.9305,1.9305,1.9305,1.9305,1.9305,1.9305,1.9305,1.9305,1.9305,1.9305,1.9305,1.9305,1.9305,1.9305,1.963,2.021,2.021,2.0575,2.1211,2.1211,2.1211,2.1211,2.1211,2.1211,2.1211,2.1211,2.1211,2.1211,2.1211,2.1211,2.1211,2.1211,2.1211,2.1211,2.1211,2.1211,2.1211,2.1211,2.1211,2.1211,2.1211,2.1211,2.1211,2.1211,2.1211,2.1298,2.1628,2.1942,2.2257,2.2564,2.2592,2.2592,2.2607,2.2901,2.3003,2.2658,2.2607,2.2535,2.225,2.2243,2.2206,2.2198,2.2198,2.2198,2.2214,2.2214,2.2308,2.257,2.2899,2.3106,2.3106,2.3106,2.3106,2.3106,2.3106,2.3106,2.3106,2.3106,2.3106,2.3106,2.3091,2.3084,0.0,0.0,1.3938,1.4609,0.0,0.0,0.0,0.0,0.0,0.0,0.0,0.0,0.0,0.0,0.0,0.0,0.0,0.0,0.0,0.0,0.0,0.0,0.0,0.0,0.0,0.0,0.0,1.9305,1.9305,1.9305,0.0,1.9305,1.9305,1.9305,1.9305,1.9305,1.9305,1.9305,1.9305,1.9305,1.9305,1.9305,1.9305,1.9305,1.963,2.021,2.021,2.0575,2.1211,2.1211,2.1211,2.1211,2.1211,2.1211,2.1211,2.1211,2.1211,2.1211,2.1211,2.1211,2.1211,2.1211,2.1211,2.1211,2.1211,2.1211,2.1211,2.1211,2.1211,2.1211,2.1211,2.1211,2.1211,2.1211,2.1379,2.162,2.195,2.2257,2.2564,2.2879,2.2738,2.2592,2.2592,2.255,2.2462,2.2345,2.233,2.2293,2.2198,2.2214,2.2133,2.1884,2.1862,2.1774,2.1562,2.1737,2.1993,2.2308,2.2623,2.2879,2.3098,2.3106,2.3106,2.3106,2.3106,2.3106,2.3106,2.3106,2.3106,2.3106,2.3106,2.3106,1.2942,1.3372,0.0,1.4543,1.5266,0.0,1.6268,0.0,0.0,0.0,0.0,0.0,0.0,0.0,0.0,0.0,0.0,0.0,0.0,1.7865,0.0,0.0,0.0,0.0,0.0,0.0,1.9305,1.9305,1.9305,1.9305,0.0,0.0,1.9305,1.9305,1.9305,1.9305,1.9305,1.9305,1.9305,1.9305,1.9305,1.9305,1.9305,1.9305,1.963,2.021,2.021,2.0575,2.1211,2.1211,2.1211,2.1211,2.1211,2.1211,2.1211,2.1211,2.1211,2.1211,2.1211,2.1211,2.1211,2.1211,2.1211,2.1211,2.1211,2.1211,2.1211,2.1211,2.1211,2.1211,2.1211,2.1211,2.124,2.1357,2.154,2.1818,2.225,2.2484,2.2687,2.3047,2.2842,2.2563,2.2484,2.2213,2.2008,2.2008,2.2008,2.1972,2.1854,2.184,2.1759,2.1547,2.1525,2.1437,2.1225,2.1511,2.1832,2.2192,2.2462,2.2738,2.3098,2.3106,2.3054,2.2906,2.3047,2.3054,2.2937,2.3054,2.3106,2.3106,2.3106,2.3106]},{"header":{"parameterUnit":"m.s-1","parameterCategory":1,"la1":30.6,"la2":29.2853,"lo1":-89.7004,"lo2":-87.6739,"dy":0.0162,"dx":0.0183,"nx":112,"ny":82,"refTime":"2023-09-14T18:00:00:Z","depth":0,"parameterNumber":3,"parameterNumberName":"V-component_of_WINDS"},"data":[0.0,0.0,0.0,0.0,0.0,0.0,0.0,0.0,0.0,0.0,0.0,0.0,0.0,0.0,0.0,0.0,0.0,0.0,0.0,0.0,0.0,0.0,0.0,0.0,0.0,0.0,0.0,0.0,0.0,0.0,0.0,0.0,0.0,0.0,0.0,0.0,0.0,0.0,0.0,0.0,0.0,0.0,0.0,0.0,0.0,0.0,0.0,0.0,0.0,0.0,0.0,0.0,0.0,0.0,0.0,0.0,0.0,0.0,0.0,0.0,0.0,0.0,0.0,0.0,0.0,0.0,0.0,0.0,0.0,0.0,0.0,0.0,0.0,0.0,0.0,0.0,0.0,0.0,0.0,0.0,0.0,0.0,0.0,0.0,0.0,0.0,0.0,0.0,0.0,0.0,0.0,3.5996,3.5996,3.5996,3.5996,3.5267,3.4397,3.3464,0.0,0.0,0.0,0.0,0.0,0.0,0.0,0.0,0.0,0.0,0.0,0.0,0.0,0.0,0.0,0.0,0.0,0.0,0.0,0.0,0.0,0.0,0.0,0.0,0.0,0.0,0.0,0.0,0.0,0.0,0.0,0.0,0.0,0.0,0.0,0.0,0.0,0.0,0.0,0.0,0.0,0.0,0.0,0.0,0.0,0.0,0.0,0.0,0.0,0.0,0.0,0.0,0.0,0.0,0.0,0.0,0.0,0.0,0.0,0.0,0.0,0.0,0.0,0.0,0.0,0.0,0.0,0.0,0.0,0.0,0.0,0.0,0.0,0.0,0.0,0.0,0.0,0.0,0.0,0.0,0.0,0.0,0.0,0.0,0.0,0.0,0.0,0.0,0.0,0.0,0.0,0.0,0.0,0.0,0.0,0.0,0.0,0.0,0.0,0.0,0.0,0.0,0.0,0.0,3.5996,3.5996,3.5996,3.5996,3.5996,3.5812,3.5045,3.3495,0.0,0.0,0.0,0.0,0.0,0.0,0.0,0.0,0.0,0.0,0.0,0.0,0.0,0.0,0.0,0.0,0.0,0.0,0.0,0.0,0.0,0.0,0.0,0.0,0.0,0.0,0.0,0.0,0.0,0.0,0.0,0.0,0.0,0.0,0.0,0.0,0.0,0.0,0.0,0.0,0.0,0.0,0.0,0.0,0.0,0.0,0.0,0.0,0.0,0.0,0.0,0.0,0.0,0.0,0.0,0.0,0.0,0.0,0.0,0.0,0.0,0.0,0.0,0.0,0.0,0.0,0.0,0.0,0.0,0.0,0.0,0.0,0.0,0.0,0.0,0.0,0.0,0.0,0.0,0.0,0.0,0.0,0.0,0.0,0.0,0.0,0.0,0.0,0.0,0.0,0.0,0.0,0.0,0.0,0.0,0.0,0.0,0.0,0.0,0.0,0.0,0.0,0.0,3.595,3.5953,3.5996,3.5996,3.5996,3.5996,3.5975,3.5427,3.418,3.3705,0.0,0.0,0.0,0.0,0.0,0.0,0.0,0.0,0.0,0.0,0.0,0.0,0.0,0.0,0.0,0.0,0.0,0.0,0.0,0.0,0.0,0.0,0.0,0.0,0.0,0.0,0.0,0.0,0.0,0.0,0.0,0.0,0.0,0.0,0.0,0.0,0.0,0.0,0.0,0.0,0.0,0.0,0.0,0.0,0.0,0.0,0.0,0.0,0.0,0.0,0.0,0.0,0.0,0.0,0.0,0.0,0.0,0.0,0.0,0.0,0.0,0.0,0.0,0.0,0.0,0.0,0.0,0.0,0.0,0.0,0.0,0.0,0.0,0.0,0.0,0.0,0.0,0.0,0.0,0.0,0.0,0.0,0.0,0.0,0.0,0.0,0.0,0.0,0.0,0.0,0.0,0.0,0.0,0.0,0.0,0.0,0.0,0.0,0.0,0.0,0.0,0.0,3.5924,3.5949,3.5996,3.5996,3.5996,3.5996,3.5996,3.5625,3.4766,3.4707,0.0,0.0,0.0,0.0,0.0,0.0,0.0,0.0,0.0,0.0,0.0,0.0,0.0,0.0,0.0,0.0,0.0,0.0,0.0,0.0,0.0,0.0,0.0,0.0,0.0,0.0,0.0,0.0,0.0,0.0,0.0,0.0,0.0,0.0,0.0,0.0,0.0,0.0,0.0,0.0,0.0,0.0,0.0,0.0,0.0,0.0,0.0,0.0,0.0,0.0,0.0,0.0,0.0,0.0,0.0,0.0,0.0,0.0,0.0,0.0,0.0,0.0,0.0,0.0,0.0,0.0,0.0,0.0,0.0,0.0,0.0,0.0,0.0,0.0,0.0,0.0,0.0,0.0,0.0,0.0,0.0,0.0,0.0,0.0,0.0,0.0,0.0,0.0,0.0,0.0,0.0,0.0,0.0,0.0,0.0,0.0,0.0,0.0,0.0,0.0,0.0,0.0,3.5996,3.5996,3.5996,3.5996,3.5996,3.5996,3.5996,3.5625,3.4766,3.4707,0.0,0.0,0.0,0.0,0.0,0.0,0.0,0.0,0.0,0.0,0.0,0.0,0.0,0.0,0.0,0.0,0.0,0.0,0.0,0.0,0.0,0.0,0.0,0.0,0.0,0.0,0.0,0.0,0.0,0.0,0.0,0.0,0.0,0.0,0.0,0.0,0.0,0.0,0.0,0.0,0.0,0.0,0.0,0.0,0.0,0.0,0.0,0.0,0.0,0.0,0.0,0.0,0.0,0.0,0.0,0.0,0.0,0.0,0.0,0.0,0.0,0.0,0.0,0.0,0.0,0.0,0.0,0.0,0.0,0.0,0.0,0.0,0.0,0.0,0.0,0.0,0.0,0.0,0.0,0.0,0.0,0.0,0.0,0.0,0.0,0.0,0.0,0.0,0.0,0.0,0.0,0.0,0.0,0.0,0.0,0.0,0.0,0.0,0.0,0.0,0.0,0.0,3.5901,3.5952,0.0,3.5996,3.5996,3.5996,3.5996,3.5839,3.546,0.0,0.0,0.0,0.0,0.0,0.0,0.0,0.0,0.0,0.0,0.0,0.0,0.0,0.0,0.0,0.0,0.0,0.0,0.0,0.0,0.0,0.0,0.0,0.0,0.0,0.0,0.0,0.0,0.0,0.0,0.0,0.0,0.0,0.0,0.0,0.0,0.0,0.0,0.0,0.0,0.0,0.0,0.0,0.0,0.0,0.0,0.0,0.0,0.0,0.0,0.0,0.0,0.0,0.0,0.0,0.0,0.0,0.0,0.0,0.0,0.0,0.0,0.0,0.0,0.0,0.0,0.0,0.0,0.0,0.0,0.0,0.0,0.0,0.0,0.0,0.0,0.0,0.0,0.0,0.0,0.0,0.0,0.0,0.0,0.0,0.0,0.0,0.0,0.0,0.0,0.0,0.0,0.0,0.0,0.0,0.0,0.0,0.0,0.0,0.0,0.0,0.0,3.5836,3.5891,3.5951,0.0,3.5996,3.5996,3.5996,3.5996,3.5975,3.5896,0.0,0.0,0.0,0.0,0.0,0.0,0.0,0.0,0.0,0.0,0.0,0.0,0.0,0.0,0.0,0.0,0.0,0.0,0.0,0.0,0.0,0.0,0.0,0.0,0.0,0.0,0.0,0.0,0.0,0.0,0.0,0.0,0.0,0.0,0.0,0.0,0.0,0.0,0.0,0.0,0.0,0.0,0.0,0.0,0.0,0.0,0.0,0.0,0.0,0.0,0.0,0.0,0.0,0.0,0.0,0.0,0.0,0.0,0.0,0.0,0.0,0.0,0.0,0.0,0.0,0.0,0.0,0.0,0.0,0.0,0.0,0.0,0.0,0.0,0.0,0.0,0.0,0.0,0.0,0.0,0.0,0.0,0.0,0.0,0.0,0.0,0.0,0.0,0.0,0.0,0.0,0.0,0.0,0.0,0.0,0.0,0.0,0.0,0.0,0.0,0.0,0.0,3.5894,3.5953,3.5996,3.5996,3.5996,3.5996,3.5996,3.5996,3.5974,0.0,0.0,0.0,0.0,0.0,0.0,0.0,0.0,0.0,0.0,0.0,0.0,0.0,0.0,0.0,0.0,0.0,0.0,0.0,0.0,0.0,0.0,0.0,0.0,0.0,0.0,0.0,0.0,0.0,0.0,0.0,0.0,0.0,0.0,0.0,0.0,0.0,0.0,0.0,0.0,0.0,0.0,0.0,0.0,0.0,0.0,0.0,0.0,0.0,0.0,0.0,0.0,0.0,0.0,0.0,0.0,0.0,0.0,0.0,0.0,0.0,0.0,0.0,0.0,0.0,0.0,0.0,0.0,0.0,0.0,0.0,0.0,0.0,0.0,0.0,0.0,0.0,0.0,0.0,0.0,0.0,0.0,0.0,0.0,0.0,0.0,0.0,0.0,0.0,0.0,0.0,0.0,0.0,0.0,0.0,0.0,0.0,0.0,0.0,0.0,0.0,0.0,0.0,3.5834,3.5927,3.5976,3.5928,3.5926,3.5926,3.5926,3.5926,3.5895,3.5837,0.0,0.0,0.0,0.0,0.0,0.0,0.0,0.0,0.0,0.0,0.0,0.0,0.0,0.0,0.0,0.0,0.0,0.0,0.0,0.0,0.0,0.0,0.0,0.0,0.0,0.0,0.0,0.0,0.0,0.0,0.0,0.0,0.0,0.0,0.0,0.0,0.0,0.0,0.0,0.0,0.0,0.0,0.0,0.0,0.0,0.0,0.0,0.0,0.0,0.0,0.0,0.0,0.0,0.0,0.0,0.0,0.0,0.0,0.0,0.0,0.0,0.0,0.0,0.0,0.0,0.0,0.0,0.0,0.0,0.0,0.0,0.0,0.0,0.0,0.0,0.0,0.0,0.0,0.0,0.0,0.0,0.0,0.0,0.0,0.0,0.0,0.0,0.0,0.0,0.0,0.0,0.0,0.0,0.0,0.0,0.0,0.0,0.0,0.0,0.0,0.0,0.0,3.5791,3.5922,3.5976,3.595,3.5948,3.5948,3.5948,3.5948,3.5919,3.5844,0.0,0.0,0.0,0.0,0.0,0.0,0.0,0.0,0.0,0.0,0.0,0.0,0.0,0.0,0.0,0.0,0.0,0.0,0.0,0.0,0.0,0.0,0.0,0.0,0.0,0.0,0.0,0.0,0.0,0.0,0.0,0.0,0.0,0.0,0.0,0.0,0.0,0.0,0.0,0.0,0.0,0.0,0.0,0.0,0.0,0.0,0.0,0.0,0.0,0.0,0.0,0.0,0.0,0.0,0.0,0.0,0.0,0.0,0.0,0.0,0.0,0.0,0.0,0.0,0.0,0.0,0.0,0.0,0.0,0.0,0.0,0.0,0.0,0.0,0.0,0.0,0.0,0.0,0.0,0.0,0.0,0.0,0.0,0.0,0.0,0.0,0.0,0.0,0.0,0.0,0.0,0.0,0.0,0.0,0.0,0.0,0.0,0.0,0.0,0.0,0.0,0.0,3.5791,3.5922,3.5996,3.5976,3.5976,3.5976,3.5975,3.5975,3.5952,3.5892,0.0,0.0,0.0,0.0,0.0,0.0,0.0,0.0,0.0,0.0,0.0,0.0,0.0,0.0,0.0,0.0,0.0,0.0,0.0,0.0,0.0,0.0,0.0,0.0,0.0,0.0,0.0,0.0,0.0,0.0,0.0,0.0,0.0,0.0,0.0,0.0,0.0,0.0,0.0,0.0,0.0,0.0,0.0,0.0,0.0,0.0,0.0,0.0,0.0,0.0,0.0,0.0,0.0,0.0,0.0,0.0,0.0,0.0,0.0,0.0,3.5287,0.0,0.0,0.0,0.0,0.0,0.0,0.0,0.0,0.0,0.0,0.0,0.0,0.0,0.0,0.0,0.0,0.0,0.0,0.0,0.0,0.0,0.0,0.0,0.0,0.0,0.0,0.0,0.0,0.0,0.0,0.0,0.0,0.0,0.0,0.0,0.0,0.0,0.0,0.0,0.0,0.0,3.5791,3.5922,3.5953,3.5852,3.5844,3.5828,3.5778,3.5801,3.5839,3.5829,3.5852,0.0,0.0,0.0,0.0,0.0,0.0,0.0,0.0,0.0,0.0,0.0,0.0,0.0,0.0,0.0,0.0,0.0,0.0,0.0,0.0,0.0,0.0,0.0,0.0,0.0,0.0,0.0,0.0,0.0,0.0,0.0,0.0,0.0,0.0,0.0,0.0,0.0,0.0,0.0,0.0,0.0,0.0,0.0,0.0,0.0,0.0,0.0,0.0,0.0,0.0,0.0,0.0,0.0,0.0,0.0,0.0,0.0,0.0,0.0,0.0,3.5457,0.0,0.0,0.0,0.0,0.0,0.0,0.0,0.0,0.0,0.0,0.0,0.0,0.0,0.0,0.0,0.0,0.0,0.0,0.0,0.0,0.0,0.0,0.0,0.0,0.0,0.0,0.0,0.0,0.0,0.0,0.0,0.0,0.0,0.0,0.0,0.0,0.0,0.0,0.0,0.0,3.5844,3.5948,3.5975,3.5897,3.5879,3.5836,3.5807,3.5831,3.5847,3.5847,3.5885,0.0,0.0,0.0,0.0,0.0,0.0,0.0,0.0,0.0,0.0,0.0,0.0,0.0,0.0,0.0,0.0,0.0,0.0,0.0,0.0,0.0,0.0,0.0,0.0,0.0,0.0,0.0,0.0,0.0,0.0,0.0,0.0,0.0,0.0,0.0,0.0,0.0,0.0,0.0,0.0,0.0,0.0,0.0,0.0,0.0,0.0,0.0,0.0,0.0,0.0,0.0,0.0,0.0,3.7797,3.8233,3.8076,3.8236,3.8358,3.8325,3.6777,3.6184,3.6326,0.0,0.0,0.0,0.0,0.0,0.0,0.0,0.0,0.0,0.0,0.0,0.0,0.0,0.0,0.0,0.0,0.0,0.0,0.0,0.0,0.0,0.0,0.0,0.0,0.0,3.7286,3.7097,0.0,0.0,0.0,0.0,0.0,0.0,0.0,0.0,0.0,0.0,0.0,0.0,3.5891,3.5953,3.5996,3.5976,3.5927,3.5892,3.5887,3.5891,3.5895,3.5895,3.5919,3.5919,0.0,0.0,0.0,0.0,0.0,0.0,0.0,0.0,0.0,0.0,0.0,0.0,0.0,0.0,0.0,0.0,0.0,0.0,0.0,0.0,0.0,0.0,0.0,0.0,0.0,0.0,0.0,0.0,0.0,0.0,0.0,0.0,3.5529,3.5574,0.0,0.0,0.0,0.0,0.0,0.0,0.0,0.0,0.0,0.0,0.0,0.0,0.0,3.7681,3.7859,3.8054,3.8146,3.8137,3.8294,3.8366,3.836,3.8368,3.8418,3.8473,3.8228,0.0,3.8071,3.8039,0.0,0.0,0.0,0.0,0.0,0.0,0.0,0.0,0.0,0.0,0.0,0.0,0.0,0.0,0.0,0.0,0.0,0.0,0.0,0.0,0.0,0.0,3.8272,3.8091,3.8045,3.8028,0.0,3.6791,3.5828,3.589,3.5853,0.0,0.0,0.0,0.0,0.0,0.0,0.0,3.5894,3.5953,3.5975,3.5922,3.5916,3.5883,3.5825,3.5877,3.5895,3.5895,3.5952,3.5953,3.5895,3.589,0.0,0.0,0.0,0.0,0.0,0.0,0.0,0.0,0.0,0.0,0.0,0.0,0.0,0.0,0.0,0.0,0.0,0.0,0.0,0.0,0.0,0.0,0.0,0.0,0.0,0.0,0.0,0.0,0.0,3.6284,3.6472,3.6949,3.6988,3.6903,0.0,0.0,0.0,0.0,0.0,0.0,0.0,0.0,0.0,3.8218,3.8222,3.8268,3.8357,3.8901,3.919,3.919,3.9723,3.9966,3.9966,3.9966,3.999,4.0015,4.0015,3.9995,3.9895,3.8843,3.8379,3.8303,0.0,0.0,0.0,0.0,3.828,3.8312,3.8342,3.8422,0.0,0.0,0.0,0.0,0.0,0.0,0.0,0.0,0.0,0.0,0.0,0.0,0.0,3.9063,3.8937,3.8798,3.8312,3.7654,3.7161,0.0,3.6894,3.6752,3.7264,0.0,0.0,0.0,0.0,0.0,3.5951,3.5976,3.5996,3.5953,3.5924,3.5889,3.5853,3.5886,3.5895,3.5895,3.5954,3.5996,3.5953,3.5922,3.5895,0.0,0.0,0.0,0.0,0.0,0.0,0.0,0.0,0.0,0.0,0.0,0.0,0.0,0.0,0.0,0.0,0.0,0.0,0.0,0.0,0.0,0.0,0.0,0.0,0.0,0.0,0.0,0.0,3.7248,3.747,3.8029,3.8131,3.8114,0.0,0.0,0.0,0.0,0.0,0.0,3.8433,3.8647,3.8963,3.9418,3.942,3.9527,3.9741,4.0449,4.0809,4.0809,4.1503,4.1836,4.1836,4.1836,4.1836,4.1836,4.1836,4.1836,4.1699,3.9873,3.9118,3.9087,3.9025,3.8996,3.8984,3.8999,3.9036,3.9111,3.9355,3.9486,3.9609,3.9803,0.0,3.9401,3.9207,0.0,0.0,0.0,0.0,4.0149,4.0736,4.0888,4.0692,4.0008,3.9829,3.9655,3.9011,3.888,3.8772,0.0,3.7867,3.772,3.8391,0.0,0.0,0.0,0.0,3.6614,3.666,3.668,3.668,3.668,3.6616,3.6491,3.6276,3.6452,3.6491,3.6276,3.6502,3.668,3.668,3.6616,3.6589,3.6589,0.0,0.0,0.0,0.0,0.0,0.0,0.0,0.0,0.0,0.0,0.0,0.0,0.0,0.0,0.0,0.0,0.0,0.0,0.0,0.0,0.0,0.0,0.0,0.0,0.0,0.0,0.0,0.0,0.0,3.8118,3.8207,0.0,0.0,0.0,0.0,3.8282,3.9058,3.955,3.961,4.0391,4.1258,4.2167,4.2207,4.2597,4.3437,4.3476,4.3496,4.3496,4.3555,4.3574,4.3574,4.3574,4.3574,4.3574,4.3574,4.3574,4.3437,4.1758,4.1011,4.0952,4.0881,4.0853,4.0859,4.0863,4.0903,4.1074,4.1912,4.2207,4.2324,4.3108,4.2739,4.1873,4.1114,4.0878,0.0,0.0,4.0883,4.0856,4.089,4.0851,4.0784,4.0758,4.0739,4.0716,4.0678,4.0713,4.0279,0.0,3.8314,3.8364,3.8485,0.0,3.8476,3.8535,3.8496,3.8476,3.8476,3.8476,3.8476,3.8476,3.8476,3.8125,3.7305,3.7988,3.8105,3.7285,3.8008,3.8476,3.8476,3.8476,3.8457,3.8457,3.8457,0.0,0.0,0.0,0.0,0.0,0.0,0.0,0.0,0.0,0.0,0.0,0.0,0.0,0.0,0.0,0.0,0.0,0.0,0.0,0.0,0.0,0.0,0.0,0.0,0.0,0.0,0.0,0.0,3.9796,3.9966,0.0,3.9874,4.0488,4.0872,4.0877,4.1722,4.2257,4.2269,4.2565,4.2884,4.3222,4.3241,4.3398,4.3691,4.3691,4.3691,4.3691,4.3691,4.3691,4.3691,4.3691,4.3691,4.3691,4.3691,4.3691,4.3652,4.3066,4.2792,4.277,4.275,4.2746,4.2742,4.2747,4.2734,4.275,4.3057,4.3138,4.3145,4.3394,4.3248,4.292,4.2584,4.2485,4.2485,4.2485,4.205,4.1612,4.1612,4.1214,4.0797,4.0797,4.0797,4.0797,4.0797,4.0811,4.0646,4.0023,3.9535,3.9403,3.9949,3.9179,3.8676,3.9284,3.8896,3.8549,3.8594,3.8594,3.8594,3.8594,3.8594,3.8476,3.8164,3.8418,3.8476,3.8164,3.8437,3.8594,3.8594,3.8594,3.8594,3.8594,3.8594,3.8594,0.0,0.0,0.0,0.0,0.0,0.0,0.0,0.0,0.0,0.0,0.0,0.0,0.0,0.0,0.0,0.0,0.0,0.0,0.0,0.0,0.0,0.0,0.0,0.0,0.0,0.0,4.04,4.1157,4.1378,4.1549,4.1729,4.2364,4.2772,4.2775,4.3348,4.3708,4.3707,4.3708,4.3827,4.412,4.414,4.4277,4.457,4.457,4.457,4.457,4.457,4.457,4.457,4.457,4.457,4.457,4.457,4.457,4.457,4.457,4.455,4.4489,4.3925,4.3691,4.3691,4.367,4.3641,4.3641,4.3919,4.4147,4.4286,4.395,4.3823,4.3737,4.3405,4.3301,4.3301,4.3301,4.2879,4.2434,4.2434,4.1816,4.12,4.12,4.1006,4.0797,4.0797,4.0797,4.0797,4.0797,4.042,4.0272,4.08,4.0001,3.9506,4.0146,3.973,3.9363,3.9429,3.9426,3.9425,3.943,3.9431,3.9334,3.9062,3.9316,3.9355,3.9062,3.9316,3.9473,3.9473,3.9473,3.9473,3.9473,3.9473,3.9609,3.9883,0.0,0.0,0.0,0.0,0.0,0.0,0.0,0.0,0.0,0.0,0.0,0.0,0.0,0.0,0.0,0.0,0.0,0.0,0.0,0.0,0.0,0.0,0.0,4.1002,4.0991,4.1344,4.2066,4.2317,4.2752,4.3524,4.3693,4.3745,4.3748,4.3766,4.3785,4.3787,4.3787,4.4179,4.5019,4.5039,4.5449,4.6289,4.6308,4.6308,4.6308,4.6308,4.6308,4.6308,4.6308,4.6308,4.6308,4.6289,4.6289,4.6289,4.6289,4.6264,4.6049,4.4412,4.3789,4.3769,4.3693,4.3679,4.3788,4.4553,4.5332,4.5858,4.5001,4.4687,4.4481,4.363,4.3379,4.3379,4.3379,4.3359,4.334,4.334,4.2686,4.2048,4.2048,4.1413,4.0832,4.0832,4.0813,4.0797,4.0797,4.0851,4.0903,4.0903,4.0957,4.1028,4.1081,4.1047,0.0,4.1083,4.1048,4.1037,4.1086,4.1109,4.0788,4.0,4.0703,4.084,3.998,4.0722,4.1191,4.1191,4.1191,4.1211,4.123,4.123,4.1621,4.2422,0.0,0.0,0.0,0.0,0.0,0.0,0.0,0.0,0.0,0.0,0.0,0.0,0.0,0.0,0.0,0.0,0.0,0.0,0.0,0.0,0.0,0.0,4.2969,4.2082,4.2541,4.3039,4.3238,4.3305,4.3431,4.3659,4.4252,4.4646,4.4646,4.5233,4.5585,4.5586,4.5586,4.5683,4.5937,4.5937,4.6055,4.6308,4.6308,4.6308,4.6308,4.6308,4.6308,4.6308,4.6243,4.6235,4.6215,4.6187,4.6153,4.6153,4.6153,4.6143,4.6096,4.5676,4.5478,4.5447,4.5411,4.5372,4.5365,4.547,4.568,4.5825,4.557,4.5486,4.5436,4.5184,4.5107,4.5107,4.5107,4.4697,4.4249,4.4249,4.3592,4.2937,4.2937,4.2299,4.1661,4.1661,4.1219,4.0797,4.0797,4.0805,4.0828,4.0828,4.0834,4.0873,4.0931,4.0943,0.0,4.101,4.1003,4.1037,4.1086,4.1109,4.1015,4.0787,4.0984,4.0994,4.0729,4.0923,4.1059,4.1059,4.1059,4.1332,4.1916,4.1936,4.2344,0.0,0.0,0.0,0.0,0.0,0.0,0.0,0.0,0.0,0.0,0.0,0.0,0.0,0.0,0.0,0.0,0.0,0.0,0.0,0.0,0.0,0.0,4.352,4.3935,4.3475,4.3555,4.3789,4.412,4.4198,4.4334,4.4662,4.5192,4.5506,4.5506,4.5996,4.6308,4.6308,4.6267,4.6264,4.6264,4.6237,4.6211,4.6211,4.6211,4.6211,4.6211,4.6211,4.6211,4.621,4.6187,4.6155,0.0,4.6118,4.61,4.61,4.61,4.608,0.0,0.0,0.0,0.0,0.0,4.6005,4.5914,4.5834,4.5803,4.5803,4.5803,4.5803,4.5803,4.5803,4.5803,4.5803,4.5803,4.5455,4.5104,4.5104,4.4485,4.3843,4.3843,4.3185,4.2531,4.2531,4.2183,4.1857,4.1857,4.1857,0.0,4.1857,4.1258,4.082,4.0893,4.0871,4.0881,4.0955,4.0935,4.0947,4.1004,4.101,4.102,4.1061,4.1064,0.0,0.0,0.0,4.0992,4.0992,4.1322,0.0,0.0,0.0,4.3169,4.4044,0.0,0.0,0.0,4.4501,4.4827,0.0,0.0,0.0,0.0,0.0,0.0,0.0,0.0,0.0,0.0,0.0,0.0,0.0,0.0,0.0,0.0,4.4366,4.4928,4.4905,4.431,4.4149,4.4855,4.4997,4.5314,4.603,4.6159,4.6196,4.6196,4.6241,4.6288,4.6288,0.0,0.0,0.0,0.0,4.61,4.61,4.61,4.61,4.61,4.61,4.61,4.61,4.6091,4.6087,4.6087,4.6078,4.6074,4.6074,4.6074,4.6026,4.5972,4.6044,4.6074,4.6064,4.5998,4.5892,4.5803,4.5803,0.0,0.0,4.5803,4.5803,4.5803,4.5803,4.5803,4.5803,4.5803,4.5803,4.5803,4.5803,4.5278,4.4733,4.4733,4.4075,4.3456,4.3456,4.3359,4.3301,4.3301,4.3301,4.3301,4.3301,4.2067,4.1104,4.1167,4.1117,4.1107,4.117,4.1114,4.1074,4.1031,0.0,0.0,4.0993,4.0998,4.0995,4.0988,4.1064,4.1103,4.1103,4.188,4.2367,4.2464,4.3238,4.4055,4.4918,4.4918,4.5287,4.5964,4.5263,4.5338,0.0,0.0,0.0,0.0,0.0,0.0,0.0,0.0,0.0,0.0,0.0,0.0,0.0,0.0,0.0,4.4489,4.5155,4.5667,4.5617,4.5577,4.5611,4.5829,4.5852,4.5923,4.6087,4.6115,4.612,4.612,4.6132,4.6139,4.6139,4.6128,0.0,4.612,4.6107,4.61,4.61,4.61,4.61,4.61,0.0,0.0,4.6098,4.6048,4.6013,4.6008,4.5893,4.5867,4.5867,4.5867,4.5851,4.5832,4.5858,4.5867,4.5864,4.5838,4.5831,4.5803,4.5803,4.5803,4.5803,4.5803,4.5803,4.5803,4.5803,4.5803,0.0,4.5803,4.5803,4.5803,4.5803,4.5687,4.5571,4.5571,4.4949,4.4346,4.4346,4.3804,4.3301,4.3301,4.3301,4.3301,4.3301,4.3034,4.2828,4.2834,4.2818,4.2812,4.2834,4.2818,4.2579,4.1939,4.1871,4.1609,4.0971,4.0915,4.0903,4.0834,4.1446,4.1811,4.1811,4.2622,4.3416,4.4111,4.4305,4.4792,4.5612,4.5612,4.5696,4.5832,4.5784,4.5806,0.0,0.0,0.0,0.0,0.0,0.0,0.0,0.0,0.0,0.0,0.0,4.4197,0.0,0.0,4.5376,4.5276,4.5596,4.5848,4.5791,4.5867,4.5919,4.5954,4.6015,4.6019,4.5966,4.601,4.6057,4.6057,4.6078,4.61,4.61,4.6062,4.6057,4.6057,4.5988,4.5941,4.5941,4.5941,4.5941,4.5941,4.5941,4.5941,4.5958,4.5919,4.5908,4.5905,4.5838,4.5803,4.5803,4.5803,4.5803,4.5803,4.5803,4.5803,4.5803,4.5803,4.5803,4.5803,4.5803,4.5803,4.5803,4.5803,4.5803,4.5803,4.5803,4.5803,4.5803,4.5803,4.5803,4.5803,4.5803,4.5803,4.5803,4.5803,4.5494,4.52,4.52,4.4852,4.4543,4.4543,4.4543,4.4543,4.4543,4.4543,4.4272,4.344,4.3301,4.3301,4.3301,4.3301,4.3154,4.2731,4.2701,4.2546,4.2142,4.2103,4.2096,4.2054,4.2434,4.2647,4.2647,4.3495,4.4152,4.4597,4.5007,4.5397,4.5803,4.5803,4.5803,4.5807,4.5877,4.5854,0.0,0.0,0.0,0.0,0.0,0.0,0.0,0.0,4.3889,4.4031,4.4565,4.5005,4.4948,4.5494,4.5925,4.5827,4.5803,4.5803,4.5803,4.5803,4.5803,4.5803,4.5905,4.5926,4.5817,4.5908,4.5967,4.5967,4.601,4.6033,4.6033,4.5998,4.5967,4.5967,4.5864,4.5803,4.5803,4.5803,4.5803,4.5803,4.5803,4.5803,4.5803,4.5803,4.5803,4.5803,4.5803,4.5803,4.5803,4.5803,4.5803,4.5803,4.5803,4.5803,4.5803,4.5803,4.5803,4.5803,4.5803,4.5803,4.5803,4.5803,4.5803,4.5803,4.5803,4.5803,4.5803,4.5803,4.5789,4.5778,4.58,4.5789,4.5778,4.578,4.5803,4.5803,4.5803,4.5803,4.5803,4.5803,4.5803,4.5803,4.5803,4.5803,4.5339,4.3982,4.3788,4.3788,4.3788,4.3788,4.373,4.3572,4.3553,4.3476,4.3301,4.3301,4.3301,4.3301,4.3456,4.3553,4.3553,4.4384,4.4829,4.4829,4.5474,4.5803,4.5803,4.5803,4.5803,4.5803,4.5803,4.5803,4.2013,4.2795,4.3414,4.3533,4.3554,4.3758,0.0,0.0,4.4861,4.5587,4.5756,4.5769,4.5771,4.5799,4.5827,4.5807,4.5803,4.5803,4.5803,4.5803,4.5803,4.5803,4.5821,4.5824,4.5807,4.5801,4.5831,4.5831,4.5825,4.5835,4.5835,4.5838,4.5831,4.5831,4.5814,4.5803,4.5803,4.5803,4.5803,4.5803,4.5803,4.5803,4.5803,4.5803,4.5803,4.5803,4.5803,4.5803,4.5803,4.5803,4.5803,4.5803,4.5803,4.5803,4.5803,4.5803,4.5803,4.5803,4.5803,4.5803,4.5803,4.5803,4.5803,4.5803,4.5803,4.5803,4.5803,4.5803,4.5711,4.5649,4.5778,4.5708,4.5653,4.5763,4.5803,4.5803,4.5803,4.5803,4.5803,4.5803,4.5803,4.5803,4.5803,4.5803,4.5745,4.5552,4.5513,4.5513,4.5513,4.5513,4.5242,4.4539,4.4442,4.4133,4.3359,4.3301,4.3301,4.3301,4.4036,4.4442,4.4442,4.522,4.5668,4.5668,4.5745,4.5803,4.5803,4.5803,4.5803,4.5803,4.5803,4.5803,4.2929,0.0,0.0,0.0,4.44,4.4596,4.5329,4.5506,4.5581,4.5875,4.5899,4.5832,4.5832,4.5824,4.5803,0.0,4.5803,4.5803,4.5803,4.5803,4.5803,4.5803,4.5803,4.5803,4.5803,4.5803,4.5803,4.5803,4.5803,4.5803,4.5803,4.5803,4.5803,4.5803,4.5803,4.5803,4.5803,4.5803,4.5803,4.5803,4.5803,4.5803,4.5803,4.5803,4.5803,4.5803,4.5803,4.5803,4.5803,4.5803,4.5803,4.5803,4.5803,4.5803,4.5803,4.5803,4.5803,4.5803,4.5803,4.5803,4.5793,4.5708,4.5681,4.5669,4.5592,4.5567,4.5567,4.5567,4.5528,4.5493,4.5554,4.5524,4.5497,4.5554,4.5567,4.5567,4.5567,4.5567,4.5567,4.5567,4.5567,4.5567,4.5567,4.5567,4.5567,4.5567,4.5696,4.5803,4.5803,4.5803,4.5668,4.5336,4.5297,4.5142,4.4797,4.4759,4.4759,4.4759,4.5104,4.5297,4.5297,4.5629,4.5803,4.5803,4.5803,4.5803,4.5803,4.5803,4.5752,4.5681,4.5681,4.5888,4.3848,0.0,0.0,4.5044,4.519,4.5342,4.5849,4.5976,4.5947,4.5883,4.5822,4.5803,4.5803,4.5803,4.5803,4.5803,4.5803,4.5803,4.5803,4.5803,4.5803,4.5803,4.5803,4.5803,4.5803,4.5803,4.5803,4.5803,4.5803,4.5803,4.5803,4.5803,4.5803,4.5803,4.5803,4.5803,4.5803,4.5803,4.5803,4.5803,4.5803,4.5803,4.5803,4.5803,4.5803,4.5803,4.5803,4.5786,4.5737,4.5737,4.5719,4.5688,4.5688,4.5688,4.5688,4.5688,4.5708,4.5734,4.57,4.5688,4.5673,4.558,4.5545,4.5528,4.5438,4.5405,4.5405,4.5405,4.5376,4.5351,4.5395,4.5371,4.5351,4.5395,4.5405,4.5405,4.5405,4.5405,4.5405,4.5405,4.5405,4.5405,4.5405,4.5405,4.5405,4.5405,4.5567,4.57,4.5734,4.5786,4.5803,4.5803,4.5803,4.5803,4.5803,4.5803,4.5803,4.5803,4.5803,4.5803,4.5803,4.5803,4.577,4.5757,4.5737,4.5723,4.5688,4.5688,4.5641,4.5545,4.5772,4.6137,0.0,0.0,4.6003,4.5986,4.5968,4.5955,4.5913,4.5895,4.5876,4.5824,4.5807,4.5803,4.5803,4.5803,4.5803,4.5803,4.5803,4.5803,4.5803,4.5803,4.5803,4.5803,4.5803,4.5803,0.0,4.5803,4.5803,4.5803,4.5803,4.5803,4.5803,4.5803,4.5803,4.5803,4.5803,4.5803,4.5803,4.5803,4.5803,4.5803,4.5803,4.5803,4.5803,4.5803,4.5803,4.5803,4.5803,4.5723,4.5609,4.5609,4.5528,4.5419,4.5419,4.5419,4.5419,4.5419,4.5493,4.5588,4.5452,4.5419,4.5419,4.5415,4.541,4.541,4.5405,4.5405,4.5405,4.5405,4.531,4.524,4.5366,4.531,4.5246,4.5371,4.5405,4.5405,4.5405,4.5405,4.5405,4.5405,4.5405,4.5405,4.5405,4.5405,4.5405,4.5405,4.5415,4.5452,4.5592,4.5715,4.5803,4.5803,4.5803,4.5803,4.5803,4.5803,4.5803,4.5803,4.5803,4.5803,4.5803,4.5803,4.5734,4.5609,4.5609,4.5541,4.5419,4.5419,4.5415,4.541,4.621,4.6584,4.56,0.0,4.5951,4.5933,4.5925,4.5926,4.5858,4.5822,4.5834,4.5791,4.6268,4.6654,4.6654,4.6654,4.6654,4.6654,4.6171,4.5803,4.5803,4.5803,4.5803,4.5803,4.5803,0.0,0.0,0.0,0.0,4.5803,4.5803,4.5803,4.5803,4.5711,4.5665,4.5665,4.5584,4.5532,4.5532,4.5532,4.5532,4.5532,4.5532,4.5532,4.5532,4.5532,4.5532,4.5532,4.5532,4.5506,4.5461,4.5461,4.5433,4.5405,4.5405,4.5405,4.539,4.5305,4.53,4.5336,4.5386,4.5405,4.5386,4.53,4.5264,4.5243,4.5104,4.507,4.507,4.507,4.5043,4.5009,4.5053,4.5024,4.5009,4.5053,4.507,4.507,4.507,4.507,4.507,4.507,4.507,4.507,4.507,4.507,4.507,4.507,4.5265,4.5424,4.5456,4.5506,4.5532,4.5532,4.5532,4.5532,4.5532,4.5532,4.5532,4.5532,4.5532,4.5532,4.5532,4.5532,4.551,4.5461,4.5461,4.5457,4.5405,4.5405,4.5634,4.608,4.6342,4.702,4.5782,4.5775,4.5761,4.5794,4.5798,4.5794,4.5807,4.5803,4.5803,4.5803,4.648,4.7099,4.7099,4.7066,4.7032,4.7092,4.6332,4.5723,4.5723,4.5723,4.5708,4.5661,4.5657,4.5625,0.0,0.0,0.0,4.5657,4.5657,4.5657,4.5657,4.5575,4.5528,4.5528,4.5438,4.5405,4.5405,4.5405,4.5405,4.5405,4.5405,4.5405,4.5405,4.5405,4.5405,4.5405,4.5405,4.5371,4.5341,4.5341,4.5286,4.521,4.521,4.521,4.5218,4.5123,4.5097,4.5114,4.5191,4.521,4.5213,4.5117,4.5097,4.5074,4.4931,4.4895,4.4895,4.4895,4.4895,4.4895,4.4895,4.4895,4.4895,4.4895,4.4895,4.4895,4.4895,4.4895,4.4895,4.4895,4.4895,4.4895,4.4895,4.4895,4.4895,4.4895,4.5081,4.525,4.5311,4.5371,4.5405,4.5405,4.5405,4.5405,4.5405,4.5405,4.5405,4.5405,4.5405,4.5405,4.5405,4.5405,4.5381,4.5321,4.5341,4.5444,4.5687,4.5687,4.6066,4.6765,4.707,4.7751,4.541,4.5456,4.5518,4.556,4.5592,4.5625,4.5745,4.5789,4.5789,4.5854,4.6551,4.7169,0.0,0.0,4.7068,4.7205,4.6372,4.5704,4.5669,4.565,4.558,0.0,0.0,0.0,0.0,0.0,0.0,4.5381,0.0,4.5405,4.5405,4.5395,4.5395,4.5395,4.5386,4.5362,4.5362,4.5362,4.5362,4.5362,4.5362,4.5362,4.5362,4.5362,4.5362,4.5362,4.5362,4.5296,4.5181,4.5181,4.5061,4.4895,4.4895,4.4895,4.4895,4.4895,4.4895,4.4895,4.4895,4.4895,4.4895,4.4895,4.4895,4.4895,4.4895,4.4895,4.4895,4.4895,4.4895,4.4895,4.4895,4.4895,4.4895,4.4895,4.4895,4.4895,4.4895,4.4895,4.4895,4.4895,4.4895,4.4895,4.4895,4.4895,4.4895,4.4895,4.4895,4.4961,4.5159,4.5305,4.5362,4.5362,4.5362,4.5362,4.5362,4.5362,4.5362,4.5362,4.5362,4.5362,4.5362,4.5362,4.5311,4.5186,4.5219,4.5554,4.6209,4.6247,4.6683,4.7498,4.8313,4.8711,4.5391,4.5405,4.5428,4.5442,4.5442,4.5452,4.5493,4.5502,4.5706,4.6462,4.7312,4.8151,0.0,0.0,0.0,4.8819,4.7971,0.0,4.6431,4.6354,0.0,4.5486,0.0,4.5361,4.5253,4.5243,0.0,0.0,4.527,4.5405,4.5405,4.531,4.5243,4.5243,4.5112,4.5024,4.5024,4.5024,4.5024,4.5024,4.5024,4.5024,4.5024,4.5024,4.5024,4.5024,4.5024,4.5014,4.4986,4.4986,4.4943,4.4895,4.4895,4.4895,4.4895,4.4895,4.4895,4.4895,4.4895,4.4895,4.4895,4.4895,4.4895,4.4895,4.4895,4.4895,4.4895,4.4895,4.4895,4.4895,4.4895,4.4895,4.4895,4.4895,4.4895,4.4895,4.4895,4.4895,4.4895,4.4895,4.4895,4.4895,4.4895,4.4895,4.4895,4.4895,4.4895,4.4913,4.4961,4.5014,4.5024,4.5024,4.5024,4.5024,4.5024,4.5024,4.5024,4.5024,4.5024,4.5024,4.5024,4.5024,4.5001,4.4986,4.5619,4.6031,4.6209,4.6796,4.7536,4.837,4.8597,4.9014,4.5186,4.5186,4.5208,4.5281,4.532,4.5341,4.539,4.5669,4.6115,4.6769,4.7874,0.0,4.9587,0.0,0.0,0.0,0.0,0.0,4.7141,4.7084,4.6885,0.0,4.6287,0.0,4.5675,4.5645,4.5432,0.0,4.5076,4.5186,4.5186,4.5112,4.5074,4.5074,4.4955,4.4895,4.4895,4.4895,4.4895,4.4895,4.4895,4.4895,4.4895,4.4895,4.4895,4.4895,0.0,4.4895,4.4895,4.4895,4.4895,4.4895,4.4895,4.4895,4.4895,4.4895,4.4895,4.4895,4.4895,4.4895,4.4895,4.4895,4.4895,4.4895,4.4895,4.4895,4.4895,4.4895,4.4895,4.4895,4.4895,4.4895,4.4895,4.4895,4.4895,4.4895,4.4895,4.4895,4.4895,4.4895,4.4895,4.4895,4.4895,4.4895,4.4895,4.4895,4.4895,4.4895,4.4895,4.4895,4.4895,4.4895,4.4895,4.4895,4.4895,4.4895,4.4895,4.4895,4.4895,4.4895,4.4895,4.5274,4.5464,4.5464,4.6304,4.691,4.7289,4.7744,4.8408,4.9229,4.9229,4.9476,4.4895,4.4895,4.4937,4.512,4.5159,4.5184,4.5311,4.5873,4.6454,4.6769,0.0,4.9308,4.9602,4.9494,4.9401,4.9509,0.0,4.7954,4.7859,4.7839,4.7723,4.7422,4.7403,4.7138,4.6436,4.6361,4.6051,4.5293,4.5122,4.5028,4.4914,4.4895,4.4895,4.4895,4.4895,4.4895,4.4895,4.4895,4.4895,4.4895,4.4895,4.4895,4.4895,4.4895,4.4895,4.4895,0.0,0.0,4.4895,4.4895,4.4895,4.4895,4.4895,4.4971,4.5066,4.5066,4.5141,4.5236,4.5236,4.5236,4.5198,4.4971,4.4895,4.4895,4.4895,4.4895,4.4895,4.4895,4.4895,4.4895,4.4895,4.4895,4.4895,4.4895,4.4895,4.4895,4.4895,4.4895,4.4895,4.4895,4.4895,4.4895,4.4895,4.4895,4.4895,4.4895,4.4895,4.4895,4.4895,4.4895,4.4895,4.4895,4.4895,4.4895,4.4895,4.4895,4.4952,4.5066,4.5066,4.5122,4.5236,4.5956,4.6361,4.6361,4.7157,4.7934,4.8692,4.8806,4.9223,4.9905,4.9905,4.9905,4.4895,4.4895,4.4901,4.4937,4.4943,4.4955,4.4985,4.5092,0.0,0.0,4.7378,4.8419,4.9298,4.9865,5.0204,5.0211,0.0,0.0,0.0,0.0,4.8257,0.0,0.0,0.0,0.0,0.0,0.0,0.0,0.0,4.5653,4.4933,4.4895,4.4895,4.4895,4.4895,4.4895,4.4895,4.4895,4.4895,4.4895,4.4895,4.4895,4.4895,4.4895,4.4895,4.4895,4.4895,0.0,4.4895,4.4895,4.4895,4.4895,4.4895,4.5331,4.5975,4.5975,4.6398,4.6961,4.6961,4.6961,4.674,4.535,4.4895,4.4895,4.4895,4.4895,4.4895,4.4895,4.4895,4.4895,4.4895,4.4895,4.4895,4.4895,4.4895,4.4895,4.4895,4.4895,4.4895,4.4895,4.4895,4.4895,4.4895,4.4895,4.4895,4.4895,4.4895,4.4895,4.4895,4.4895,4.4895,4.4895,4.4895,4.4895,4.4895,4.4895,4.5217,4.5918,4.5975,4.6266,4.6942,4.7119,4.7195,4.7195,4.8047,4.854,4.8692,4.9374,4.9753,4.9905,4.9905,4.9905,4.4895,4.4895,4.4895,4.4895,4.4895,4.4895,4.4895,0.0,0.0,0.0,4.7794,4.8725,4.973,5.0174,0.0,0.0,0.0,0.0,0.0,0.0,0.0,0.0,0.0,0.0,0.0,0.0,0.0,0.0,0.0,4.6455,4.5615,4.5141,4.4895,4.4895,4.4895,4.4895,4.4895,4.4895,4.4895,4.4895,4.4895,4.4895,4.4895,4.4895,4.4895,4.4895,4.4895,0.0,4.4933,4.5388,4.5577,4.5615,4.6032,4.6455,4.6809,4.6809,4.7081,4.7403,4.7403,4.7403,4.727,4.6455,4.6203,4.6203,4.6203,4.6203,4.6203,4.6203,4.6203,4.6203,4.6203,4.6203,4.6203,4.6203,4.6203,4.6203,4.6203,4.6203,4.6203,4.6203,4.6203,4.6203,4.6203,4.6203,4.6203,4.6203,4.6203,4.6203,4.6203,4.6203,4.6032,4.5615,4.5577,4.5748,4.6165,4.6203,4.638,4.6796,4.6809,4.7005,4.7378,4.7839,4.8085,4.8085,4.89,4.9317,4.9336,4.9722,4.9905,4.9905,4.9905,4.9905,4.4895,4.4895,4.4895,4.4895,4.4895,4.4895,4.4895,4.5426,0.0,0.0,4.8054,4.8944,4.9907,0.0,5.0325,0.0,0.0,0.0,0.0,0.0,0.0,0.0,0.0,0.0,0.0,0.0,0.0,0.0,0.0,0.0,4.6247,4.5539,4.5085,4.4914,4.4895,4.4895,4.4895,4.4895,4.4895,4.4895,4.4895,4.4895,4.4895,4.4895,4.4895,4.4914,4.5103,0.0,0.0,4.6095,4.6455,4.6531,4.7157,4.7517,4.7687,4.7687,4.7782,4.7934,4.7934,4.7934,4.7934,4.7934,4.7687,4.7403,4.7403,4.7403,4.7403,4.7403,4.7403,4.7403,4.7403,4.7403,4.7403,4.7403,4.7403,4.7403,4.7403,4.7403,4.7403,4.7403,4.7403,4.7403,4.7403,4.7403,4.7403,4.7403,4.7403,4.7403,4.7403,4.7403,4.7232,4.6778,4.6569,4.6721,4.7346,4.7403,4.7479,4.7668,4.7687,4.7763,4.7934,4.8597,4.8964,4.8964,4.9583,4.9905,4.9905,4.9905,4.9905,4.9905,4.9905,4.9905,4.4895,4.4895,4.4895,4.4895,4.4895,4.4895,4.4895,0.0,0.0,4.6158,4.7127,4.805,4.8882,4.9684,0.0,0.0,0.0,4.9913,0.0,0.0,0.0,0.0,0.0,0.0,0.0,0.0,0.0,0.0,0.0,0.0,4.6285,4.6114,4.571,4.4914,4.4895,4.4895,4.4895,4.4895,4.4895,4.4895,4.4895,4.4895,4.4895,4.4895,4.4895,4.4933,4.5735,0.0,0.0,4.6967,4.7289,4.7308,4.7365,4.7877,4.8585,4.8585,4.9033,4.9665,4.9665,4.9665,4.9665,4.9665,4.8635,4.7403,4.7403,4.7403,4.7403,4.7403,4.7403,4.7403,4.7403,4.7403,4.7403,4.7403,4.7403,4.7403,4.7403,4.7403,4.7403,4.7403,4.7403,4.7403,4.7403,4.7403,4.7403,4.7403,4.7403,4.7403,4.7403,4.7403,4.7668,4.8389,4.7763,4.7327,4.7384,4.7403,4.7744,4.8521,4.8585,4.8907,4.964,4.976,4.9798,4.9798,4.9848,4.9905,4.9905,4.9905,4.9905,4.9905,4.9905,4.9905,4.4895,4.4895,4.4895,4.4895,4.4895,4.4895,4.4895,0.0,4.5918,4.6759,4.7663,4.8555,4.9347,4.9885,5.0157,0.0,0.0,0.0,0.0,0.0,0.0,0.0,0.0,0.0,0.0,0.0,0.0,0.0,0.0,0.0,4.7763,4.7213,4.6759,4.6417,4.5944,4.5672,4.5672,4.516,4.4895,4.4914,4.5426,4.5672,4.5697,4.6184,4.6392,4.6411,4.6771,0.0,0.0,4.7839,4.818,4.8237,4.8711,4.9109,4.9412,4.9412,4.9627,4.9905,4.9905,4.9905,4.9905,4.9905,4.945,4.89,4.89,4.89,4.89,4.89,4.89,4.89,4.89,4.89,4.89,4.89,4.89,4.89,4.89,4.89,4.89,4.89,4.89,4.89,4.89,4.89,4.89,4.89,4.89,4.89,4.89,4.89,4.9033,4.94,4.8673,4.837,4.8862,4.89,4.9052,4.9393,4.9412,4.9564,4.9886,4.9905,4.9905,4.9905,4.9905,4.9905,4.9905,4.9905,4.9905,4.9905,4.9905,4.9905,4.4895,4.4895,4.4895,4.4895,4.4895,4.4971,0.0,0.0,4.6493,4.7574,4.8275,4.8945,4.976,5.0031,5.0057,0.0,0.0,5.0057,4.9913,0.0,0.0,0.0,0.0,0.0,0.0,0.0,0.0,0.0,0.0,0.0,0.0,4.8464,4.7915,4.7422,4.6853,4.655,4.655,4.5956,4.5634,4.5653,4.6266,4.655,4.6569,4.7131,4.7403,4.7403,0.0,0.0,0.0,4.8692,4.9052,4.9115,4.9684,4.9905,4.9905,4.9905,4.9905,4.9905,4.9905,4.9905,4.9905,4.9905,4.9905,4.9905,4.9905,4.9905,4.9905,4.9905,4.9905,4.9905,4.9905,4.9905,4.9905,4.9905,4.9905,4.9905,4.9905,4.9905,4.9905,4.9905,4.9905,4.9905,4.9905,4.9905,4.9905,4.9905,4.9905,4.9905,4.9905,4.9905,4.9905,4.9905,4.94,4.9279,4.9848,4.9905,4.9905,4.9905,4.9905,4.9905,4.9905,4.9905,4.9905,4.9905,4.9905,4.9905,4.9905,5.0151,5.0284,5.0284,5.053,5.0644,4.4895,4.4895,4.4895,4.4895,4.4895,4.5122,0.0,4.619,4.6664,4.8338,4.8692,4.8945,4.976,4.9893,4.9893,0.0,0.0,0.0,0.0,0.0,0.0,0.0,0.0,0.0,0.0,0.0,0.0,0.0,0.0,0.0,0.0,4.9874,4.9109,4.746,4.7384,4.7384,4.7384,4.7384,4.7365,4.7365,4.7378,4.7384,4.7384,4.7403,4.7403,0.0,0.0,0.0,0.0,4.957,4.9886,4.9886,4.9905,4.9905,4.9905,4.9905,4.9905,4.9905,4.9905,4.9905,4.9905,4.9905,4.9905,4.9905,4.9905,4.9905,4.9905,4.9905,4.9905,4.9905,4.9905,4.9905,4.9905,4.9905,4.9905,4.9905,4.9905,4.9905,4.9905,4.9905,4.9905,4.9905,4.9905,4.9905,4.9905,4.9905,4.9905,4.9905,4.9905,4.9905,4.9905,4.9905,4.9886,4.9886,4.9905,4.9905,4.9905,4.9905,4.9905,4.9905,4.9905,4.9905,4.9905,4.9905,4.9905,4.9905,4.9905,5.077,5.1199,5.1218,5.1995,5.2374,4.4895,4.4895,4.4895,4.4895,4.4895,4.5122,4.6,4.6626,4.7346,4.8464,4.9128,4.9608,4.9848,4.9905,4.9905,0.0,0.0,0.0,0.0,0.0,0.0,0.0,0.0,0.0,0.0,0.0,0.0,0.0,0.0,0.0,0.0,4.9905,4.9658,4.9128,4.8578,4.8294,4.8294,4.7706,4.7403,4.7403,4.7991,4.8294,4.8313,4.8862,0.0,0.0,0.0,0.0,0.0,4.9798,4.9905,4.9905,4.9905,4.9905,4.9905,4.9905,4.9905,4.9905,4.9905,4.9905,4.9905,4.9905,4.9905,4.9905,4.9905,4.9905,4.9905,4.9905,4.9905,4.9905,4.9905,4.9905,4.9905,4.9905,4.9905,4.9905,4.9905,4.9905,4.9905,4.9905,4.9905,4.9905,4.9905,4.9905,4.9905,4.9905,4.9905,4.9905,4.9905,4.9905,4.9905,4.9905,4.9905,4.9905,4.9905,4.9905,4.9905,4.9905,4.9905,4.9905,4.9905,4.9905,4.9905,4.9905,5.0486,5.0789,5.0789,5.1616,5.2014,5.2032,5.2279,5.2715,0.0,4.4895,4.499,4.5312,4.5388,0.0,0.0,4.7536,4.8123,4.8976,4.9551,4.9905,4.9905,4.9905,5.0,5.0341,0.0,0.0,0.0,0.0,0.0,0.0,0.0,0.0,0.0,0.0,0.0,0.0,0.0,0.0,0.0,4.9905,4.9905,4.9905,4.9412,4.9153,4.9153,4.8616,4.8332,4.8351,4.8881,4.9153,4.9166,4.9665,0.0,0.0,0.0,0.0,0.0,4.9905,4.9905,4.9905,4.9905,4.9905,4.9905,4.9905,4.9905,4.9905,4.9905,4.9905,4.9905,4.9905,4.9905,4.9905,4.9905,4.9905,4.9905,4.9905,4.9905,4.9905,4.9905,4.9905,4.9905,4.9905,4.9905,4.9905,4.9905,4.9905,4.9905,4.9905,4.9905,4.9905,4.9905,4.9905,4.9905,4.9905,4.9905,4.9905,4.9905,4.9905,4.9905,4.9905,4.9905,5.0038,5.036,5.0094,4.9905,4.9905,4.9905,5.0057,5.0372,5.0391,5.0523,5.0834,5.1369,5.1654,5.1654,5.2487,5.3056,5.334,5.334,5.3624,0.0,4.4895,4.5103,0.0,0.0,0.0,4.8313,4.8692,0.0,4.9734,4.9905,4.9905,4.9905,4.9905,5.0189,5.1066,0.0,0.0,0.0,0.0,0.0,0.0,0.0,0.0,0.0,0.0,0.0,0.0,0.0,0.0,0.0,4.9905,4.9905,4.9905,4.9905,4.9905,4.9905,4.9905,4.9905,4.9905,4.9905,4.9905,4.9905,4.9905,0.0,0.0,0.0,0.0,0.0,4.9905,4.9905,4.9905,4.9905,4.9905,4.9905,4.9905,4.9905,4.9905,4.9905,4.9905,4.9912,4.9962,5.0038,5.0075,5.0075,4.9981,4.9905,4.9905,4.9905,4.9905,4.9905,4.9905,4.9905,4.9905,4.9905,4.9924,4.9981,4.9981,5.0,5.0075,5.0075,5.0075,5.0075,5.0075,5.0075,5.0075,5.0075,5.0075,5.0075,5.0075,5.0075,5.0075,5.0075,5.0417,5.1218,5.0486,5.0019,5.0075,5.0075,5.0436,5.1256,5.1293,5.1635,5.2393,5.2468,5.2525,5.2582,5.3378,5.4181,5.4901,5.4901,5.4901,4.4895,0.0,4.5103,4.5981,4.6209,4.6645,0.0,4.8692,4.8919,4.9734,4.9905,4.9905,4.9905,4.9905,5.0189,0.0,0.0,0.0,0.0,0.0,0.0,0.0,0.0,0.0,0.0,0.0,0.0,0.0,0.0,0.0,0.0,4.9905,4.9905,4.9905,4.9905,4.9905,4.9905,4.9905,4.9905,4.9905,4.9905,4.9905,4.9905,4.9905,0.0,0.0,0.0,0.0,4.9905,4.9905,4.9905,4.9905,4.9905,4.9905,4.9905,4.9905,4.9905,4.9905,4.9905,4.9905,5.0,5.0675,5.1312,5.1805,5.1805,5.0928,4.9905,4.9905,4.9905,4.9905,4.9905,4.9905,4.9905,4.9905,4.9905,5.0075,5.0751,5.0896,5.1092,5.1691,5.1805,5.1805,5.1805,5.1805,5.1805,5.1805,5.1805,5.1805,5.1805,5.1805,5.1805,5.1805,5.1805,5.19,5.2108,5.1369,5.1168,5.1767,5.1805,5.19,5.2108,5.2127,5.2203,5.2393,5.3056,5.37,5.4306,5.4515,5.4731,5.4901,5.4901,5.4901,4.4895,4.4895,4.5198,4.6436,4.6759,4.7195,4.8862,4.9242,4.9374,4.981,0.0,4.9905,4.9905,4.9905,0.0,0.0,0.0,0.0,0.0,0.0,0.0,0.0,0.0,0.0,0.0,0.0,0.0,0.0,0.0,0.0,0.0,4.9905,4.9905,4.9905,4.9905,4.9905,4.9905,4.9905,4.9905,4.9905,4.9905,4.9905,4.9905,4.9905,4.9905,0.0,0.0,0.0,4.9905,4.9905,4.9905,4.9905,4.9905,4.9905,4.9905,4.9905,5.0151,5.0505,5.0505,5.0732,5.113,5.1597,5.2051,5.2364,5.2179,5.1622,5.1054,5.1054,5.1054,5.1054,5.1054,5.1054,5.1054,5.1054,5.1054,5.1187,5.1654,5.1748,5.1881,5.2317,5.2393,5.2393,5.2393,5.2393,5.2393,5.2393,5.2393,5.2393,5.2393,5.2393,5.2393,5.2393,5.2393,5.2563,5.2961,5.2601,5.2355,5.2393,5.2393,5.2582,5.298,5.2999,5.3169,5.3529,5.401,5.4465,5.4901,5.4901,5.4901,5.4901,5.4901,5.4901,4.4895,4.4895,4.5274,4.6834,4.7308,4.782,4.9355,0.0,0.0,0.0,0.0,0.0,0.0,5.0,0.0,0.0,0.0,0.0,0.0,0.0,0.0,0.0,0.0,0.0,0.0,0.0,0.0,0.0,0.0,0.0,0.0,4.9905,4.9905,4.9905,4.9905,4.9905,4.9905,4.9905,4.9905,4.9905,4.9905,4.9905,4.9905,4.9905,4.9905,0.0,0.0,0.0,4.9905,4.9905,4.9905,4.9905,4.9905,4.9905,4.9931,5.0057,5.0561,5.1218,5.135,5.1919,5.2594,5.2524,5.2585,5.2621,5.221,5.2325,5.2613,5.2665,5.2546,5.2393,5.2393,5.2393,5.2393,5.2393,5.2393,5.2449,5.2563,5.2601,5.262,5.2753,5.2771,5.2771,5.2771,5.2771,5.2771,5.2771,5.2771,5.2771,5.2771,5.2771,5.2771,5.2771,5.2771,5.3075,5.3821,5.387,5.3575,5.2828,5.2771,5.3113,5.3859,5.387,5.4193,5.4901,5.4901,5.4901,5.4901,5.4901,5.4901,5.4901,5.4901,5.4871,4.4895,4.4895,4.5141,4.6152,4.691,4.7668,4.8661,4.9412,0.0,0.0,0.0,0.0,0.0,0.0,0.0,0.0,0.0,0.0,0.0,0.0,0.0,0.0,0.0,0.0,0.0,0.0,0.0,0.0,0.0,0.0,0.0,4.9905,4.9905,4.9905,4.9905,4.9905,4.9905,4.9905,4.9905,4.9905,4.9905,4.9905,4.9905,4.9905,4.9905,0.0,0.0,4.9905,4.9905,4.9905,4.9905,4.9905,4.9905,4.9905,4.9981,5.0732,5.1085,5.1293,5.1976,5.2771,5.3429,5.3107,5.3442,5.3929,5.3524,5.3451,5.356,5.3912,5.3236,5.2393,5.2393,5.2393,5.2393,5.2393,5.2393,5.2601,5.334,5.3499,5.3707,5.4389,5.4515,5.4515,5.4515,5.4515,5.4515,5.4515,5.4515,5.4515,5.4515,5.4515,5.4515,5.4515,5.4515,5.4579,5.4712,5.4731,5.4655,5.4515,5.4515,5.4579,5.4712,5.4731,5.4769,5.4901,5.4901,5.4901,5.4901,5.4901,5.4901,5.4901,5.4901,5.4711,4.4895,4.4895,4.5103,4.5981,4.6796,4.7744,4.9052,4.9627,0.0,0.0,0.0,0.0,0.0,0.0,0.0,0.0,0.0,0.0,0.0,0.0,0.0,0.0,0.0,0.0,0.0,0.0,0.0,0.0,0.0,0.0,0.0,0.0,4.9905,4.9905,4.9905,4.9905,4.9905,4.9905,4.9905,4.9905,4.9905,4.9905,4.9905,4.9905,4.9905,4.9905,0.0,4.9905,4.9905,4.9905,4.9905,4.995,5.041,5.0599,5.077,5.207,5.2544,5.2658,5.3473,5.401,5.4273,5.3878,5.4006,5.4184,5.3566,5.3537,5.3683,5.3663,5.3535,5.3473,5.3694,5.3738,5.3738,5.3738,5.3738,5.3852,5.4257,5.4352,5.4465,5.4825,5.4901,5.4901,5.4901,5.4901,5.4901,5.4901,5.4901,5.4901,5.4901,5.4901,5.4901,5.4901,5.4901,5.4901,5.4901,5.4901,5.4901,5.4901,5.4901,5.4901,5.4901,5.4901,5.4901,5.4901,5.4901,5.4901,5.4901,5.4901,5.4901,5.4901,5.4901,5.4799,4.4913,4.5059,4.5407,4.6266,0.0,4.7782,4.9279,4.9753,0.0,0.0,0.0,0.0,0.0,0.0,0.0,0.0,0.0,0.0,0.0,0.0,0.0,0.0,0.0,0.0,0.0,0.0,0.0,0.0,0.0,0.0,0.0,0.0,4.9905,4.9905,4.9905,4.9905,4.9905,4.9905,4.9905,4.9905,4.9905,4.9905,4.9905,4.9905,4.9905,4.9905,4.9905,4.9905,4.9905,4.9905,5.0019,5.0265,5.0933,5.1445,5.1938,5.3226,5.3821,5.4067,5.4693,5.4849,5.4695,5.4288,5.4105,5.3879,5.3162,5.3172,5.3368,5.3151,5.3547,5.4141,5.464,5.4768,5.4784,5.4879,5.4901,5.4901,5.4901,5.4901,5.4901,5.4901,5.4901,5.4901,5.4901,5.4901,5.4901,5.4901,5.4901,5.4901,5.4901,5.4901,5.4901,5.4901,5.4901,5.4901,5.4901,5.4901,5.4901,5.4901,5.4901,5.4901,5.4901,5.4901,5.4901,5.4901,5.4901,5.4901,5.4901,5.4901,5.4901,5.4901,5.4901,5.4856,4.4985,4.5551,4.6304,4.7119,4.7365,4.7649,4.8559,4.9355,0.0,4.9905,0.0,0.0,0.0,0.0,0.0,0.0,0.0,0.0,0.0,0.0,0.0,0.0,0.0,0.0,0.0,0.0,0.0,0.0,0.0,0.0,0.0,0.0,0.0,4.9905,4.9905,4.9905,4.9905,4.9905,4.9905,4.9905,4.9905,4.9905,4.9905,4.9905,4.9905,4.9905,4.9905,4.9905,4.9905,4.9905,5.0372,5.1104,5.118,5.2146,5.3537,5.3669,5.4181,5.4825,5.4882,5.4664,5.4271,5.386,5.3498,5.3107,5.2679,5.2561,5.2656,5.299,5.313,5.3358,5.4149,5.4349,5.4451,5.4807,5.4901,5.4901,5.4901,5.4901,5.4901,5.4901,5.4901,5.4901,5.4901,5.4901,5.4901,5.4901,5.4901,5.4901,5.4901,5.4901,5.4901,5.4901,5.4901,5.4901,5.4901,5.4901,5.4901,5.4901,5.4901,5.4901,5.4901,5.4901,5.4901,5.4901,5.4901,5.4901,5.4901,5.4901,5.4901,5.4901,5.4901,5.4695,4.4943,4.5558,4.6398,4.7195,4.7801,0.0,0.0,4.9677,4.9905,4.9905,4.9905,0.0,0.0,0.0,0.0,0.0,0.0,0.0,0.0,0.0,0.0,0.0,0.0,0.0,0.0,0.0,0.0,0.0,0.0,0.0,0.0,0.0,0.0,4.9905,4.9905,4.9905,4.9905,4.9905,4.9905,4.9905,4.9905,4.9905,4.9905,4.9905,4.9905,4.9905,4.9905,4.9905,4.9943,5.0486,5.0896,5.1293,5.2355,5.3461,5.4417,5.4171,5.4261,5.45,5.4245,5.4051,5.387,5.3458,5.3224,5.3022,5.2622,5.2498,5.2526,5.2672,5.2728,5.29,5.373,5.4104,5.434,5.4492,5.4711,5.4901,5.4901,5.4901,5.4901,5.4901,5.4901,5.4901,5.4901,5.4901,5.4901,5.4901,5.4901,5.4901,5.4901,5.4901,5.4901,5.4901,5.4901,5.4901,5.4901,5.4901,5.4901,5.4901,5.4901,5.4901,5.4901,5.4901,5.4901,5.4901,5.4901,5.4901,5.4901,5.4901,5.4776,5.4533,5.4533,5.4305,4.4937,4.5747,4.6721,4.7264,0.0,0.0,4.9772,4.9905,4.9905,4.9905,4.9905,0.0,0.0,0.0,0.0,0.0,0.0,0.0,0.0,0.0,0.0,0.0,0.0,0.0,0.0,0.0,0.0,0.0,0.0,0.0,0.0,0.0,0.0,0.0,4.9905,4.9905,4.9905,4.9905,4.9905,4.9905,4.9905,4.9905,4.9905,4.9905,4.9905,4.9905,4.9905,4.9905,4.9962,5.0846,5.1438,5.1937,5.3343,5.4149,5.4482,5.421,5.4104,5.406,5.3805,5.3616,5.3468,5.3182,5.3011,5.2864,5.2583,5.2498,5.2498,5.2498,5.2595,5.2809,5.3368,5.3814,5.4176,5.4424,5.4695,5.4901,5.4901,5.4901,5.4901,5.4901,5.4901,5.4901,5.4901,5.4901,5.4901,5.4901,5.4901,5.4901,5.4901,5.4901,5.4901,5.4901,5.4901,5.4901,5.4901,5.4901,5.4901,5.4901,5.4901,5.4901,5.4901,5.4901,5.4901,5.4901,5.4901,5.4901,5.4901,5.4776,5.4565,5.4306,5.4176,5.3961,4.501,4.6177,4.7403,0.0,0.0,0.0,4.9905,4.9905,4.9905,4.9905,0.0,0.0,0.0,0.0,0.0,0.0,0.0,0.0,0.0,0.0,0.0,0.0,0.0,0.0,0.0,0.0,0.0,0.0,0.0,0.0,0.0,0.0,0.0,0.0,4.9905,4.9905,4.9905,4.9879,4.9879,4.9879,4.9879,4.9879,4.9905,4.9905,4.9905,4.9905,4.9905,4.9905,4.9981,5.0858,5.1967,5.3191,5.3979,5.4042,5.3692,5.3692,5.3692,5.3692,5.3683,5.3428,5.3096,5.3096,5.282,5.2498,5.2498,5.2498,5.2498,5.2498,5.2787,5.3107,5.3088,5.3398,5.3916,5.4703,5.4894,5.4901,5.4901,5.4901,5.4901,5.4901,5.4901,5.4901,5.4901,5.4901,5.4901,5.4901,5.4901,5.4901,5.4901,5.4901,5.4901,5.4901,5.4901,5.4901,5.4901,5.4901,5.4901,5.4901,5.4901,5.4901,5.4901,5.4901,5.4901,5.4901,5.4901,5.4901,5.4901,5.45,5.4306,5.4271,5.3888,5.3692,4.5696,4.6601,0.0,4.8161,0.0,0.0,0.0,4.9905,0.0,0.0,0.0,0.0,0.0,0.0,0.0,0.0,0.0,0.0,0.0,0.0,0.0,0.0,0.0,0.0,0.0,0.0,0.0,0.0,0.0,0.0,0.0,0.0,0.0,0.0,4.9676,4.9551,4.9551,4.9273,4.9126,4.9126,4.9126,4.9273,4.9566,4.979,4.9769,4.9566,4.9797,5.0246,5.0901,5.2009,5.3056,5.3943,5.3895,5.3814,5.3663,5.3378,5.3285,5.3244,5.2955,5.2783,5.2679,5.2679,5.2606,5.2498,5.2498,5.2498,5.2498,5.2498,5.2787,5.3162,5.3448,5.3833,5.4184,5.4416,5.4695,5.4901,5.4901,5.4901,5.4901,5.4901,5.4901,5.4901,5.4901,5.4901,5.4901,5.4901,5.4901,5.4901,5.4901,5.4901,5.4901,5.4901,5.4901,5.4901,5.4901,5.4901,5.4901,5.4901,5.4901,5.4901,5.4901,5.4901,5.4901,5.4901,5.4901,5.4901,5.4901,5.45,5.4158,5.3879,5.3468,5.3138,4.5582,0.0,0.0,4.8047,4.9052,4.9905,4.9905,0.0,0.0,0.0,0.0,0.0,0.0,0.0,0.0,0.0,0.0,0.0,0.0,0.0,0.0,0.0,0.0,0.0,0.0,0.0,0.0,0.0,0.0,0.0,0.0,0.0,0.0,0.0,4.9276,4.9163,4.9163,4.891,4.8807,4.8807,4.8807,4.8937,4.918,4.954,4.9669,4.9637,5.0182,5.0996,5.2009,5.2747,5.3357,5.3805,5.3566,5.3358,5.3193,5.2955,5.2864,5.2831,5.2583,5.2498,5.2498,5.2498,5.2498,5.2498,5.2498,5.2498,5.2498,5.2498,5.29,5.3388,5.3635,5.4113,5.4541,5.4541,5.4719,5.4901,5.4901,5.4901,5.4901,5.4901,5.4901,5.4901,5.4901,5.4901,5.4901,5.4901,5.4901,5.4901,5.4901,5.4901,5.4901,5.4901,5.4901,5.4901,5.4901,5.4901,5.4901,5.4901,5.4901,5.4901,5.4901,5.4901,5.4901,5.4901,5.4901,5.4901,5.4901,5.4349,5.3943,5.3683,5.3109,5.2728,4.5062,0.0,0.0,4.7498,4.8711,0.0,0.0,0.0,0.0,0.0,0.0,0.0,0.0,0.0,0.0,0.0,0.0,0.0,0.0,0.0,0.0,0.0,0.0,0.0,0.0,0.0,0.0,0.0,0.0,0.0,0.0,0.0,0.0,0.0,4.8772,4.8755,4.8755,4.872,4.8702,0.0,4.8702,4.872,4.8764,4.9163,4.9548,4.9955,5.0811,5.1907,5.3046,5.3087,5.3098,5.3107,5.3054,5.282,5.2498,5.2498,5.2498,5.2498,5.2498,5.2498,5.2498,5.2498,5.2498,5.2498,5.2498,5.2498,5.2498,5.2498,5.3075,5.3692,5.3692,5.4296,5.4901,5.4901,5.4901,5.4901,5.4901,5.4901,5.4901,5.4901,5.4901,5.4901,5.4901,5.4901,5.4901,5.4901,5.4901,5.4901,5.4901,5.4901,5.4901,5.4901,5.4901,5.4901,5.4901,5.4901,5.4901,5.4901,5.4901,5.4901,5.4901,5.4901,5.4901,5.4901,5.4901,5.4886,5.483,5.4078,5.3673,5.3625,5.2864,5.2498,4.5747,4.6651,0.0,0.0,4.9166,0.0,0.0,0.0,0.0,0.0,0.0,0.0,0.0,0.0,0.0,0.0,0.0,0.0,0.0,0.0,0.0,0.0,0.0,0.0,0.0,0.0,0.0,0.0,0.0,0.0,0.0,0.0,0.0,4.8807,4.8532,4.8411,4.8411,4.8083,4.7931,0.0,4.7931,4.8093,4.842,4.8773,4.9315,5.0025,5.0846,5.1707,5.2577,5.295,5.3107,5.3064,5.275,5.2583,5.2498,5.2498,5.2498,5.2498,5.2498,5.2498,5.2498,5.2498,5.2498,5.2498,5.2498,5.2498,5.2498,5.2498,5.3075,5.3692,5.3692,5.4296,5.4901,5.4901,5.4901,5.4901,5.4901,5.4901,5.4901,5.4901,5.4901,5.4901,5.4901,5.4901,5.4901,5.4901,5.4901,5.4901,5.4901,5.4901,5.4901,5.4901,5.4901,5.4901,5.4901,5.4901,5.4901,5.4901,5.4901,5.4901,5.4901,5.4901,5.4901,5.4901,5.4901,5.4734,5.4424,5.3943,5.3547,5.3213,5.2728,5.2498,4.562,0.0,0.0,4.9052,0.0,0.0,0.0,0.0,0.0,0.0,0.0,0.0,0.0,0.0,0.0,0.0,0.0,0.0,0.0,0.0,0.0,0.0,0.0,0.0,0.0,0.0,0.0,0.0,0.0,0.0,0.0,4.855,4.8467,4.827,4.8093,4.802,4.802,4.7804,4.7707,4.7707,4.7707,4.7814,4.804,4.8568,4.9448,5.06,5.1027,5.1769,5.2751,5.2999,5.2998,5.2787,5.2583,5.2498,5.2498,5.2498,5.2498,5.2498,5.2498,5.2498,5.2498,5.2498,5.2498,5.2498,5.2498,5.2633,5.2794,5.2794,5.3377,5.3988,5.3988,5.4441,5.4901,5.4901,5.4901,5.4901,5.4901,5.4901,5.4901,5.4901,5.4901,5.4901,5.4901,5.4901,5.4901,5.4901,5.4901,5.4901,5.4901,5.4901,5.4901,5.4901,5.4901,5.4901,5.4901,5.4901,5.4901,5.4901,5.4901,5.4807,5.4613,5.4605,5.4605,5.4605,5.4605,5.4416,5.4015,5.3615,5.3298,5.3096,5.269,5.2498,4.5341,0.0,4.8875,4.9635,4.9852,0.0,0.0,0.0,0.0,0.0,0.0,0.0,0.0,0.0,0.0,0.0,0.0,0.0,0.0,0.0,0.0,0.0,0.0,0.0,0.0,0.0,0.0,0.0,0.0,0.0,4.8209,4.819,4.805,4.7699,4.7707,4.7707,4.7707,4.7707,4.7707,4.7707,4.7707,4.7707,4.7728,4.8474,4.9621,5.1008,5.1156,5.1885,5.3008,5.3008,5.2798,5.2498,5.2498,5.2498,5.2498,5.2498,5.2498,5.2498,5.2498,5.2498,5.2498,5.2498,5.2498,5.2498,5.2498,5.2783,5.3107,5.3107,5.3682,5.4306,5.4306,5.4589,5.4901,5.4901,5.4901,5.4901,5.4901,5.4901,5.4901,5.4901,5.4901,5.4901,5.4901,5.4901,5.4901,5.4901,5.4901,5.4901,5.4901,5.4901,5.4901,5.4901,5.4901,5.4901,5.4901,5.4901,5.4901,5.4901,5.4822,5.4648,5.4315,5.4228,5.4167,5.4087,5.4167,5.3997,5.3605,5.3265,5.3064,5.2998,5.2656,5.2498,0.0,0.0,4.8821,0.0,4.9691,0.0,0.0,0.0,0.0,0.0,0.0,0.0,0.0,0.0,0.0,0.0,0.0,0.0,0.0,0.0,0.0,0.0,0.0,0.0,0.0,0.0,0.0,0.0,0.0,0.0,4.7783,4.7783,4.7752,4.7707,4.7707,4.7707,4.7707,4.7707,4.7707,4.7707,4.7707,4.7707,4.7725,4.8511,4.9374,5.0286,5.0984,5.1787,5.2583,5.2583,5.2538,5.2498,5.2498,5.2498,5.2498,5.2498,5.2498,5.2498,5.2498,5.2498,5.2498,5.2498,5.2498,5.2498,5.2498,5.2783,5.3107,5.3107,5.3682,5.4306,5.4306,5.4589,5.4901,5.4901,5.4901,5.4901,5.4901,5.4901,5.4901,5.4901,5.4901,5.4901,5.4901,5.4901,5.4901,5.4901,5.4901,5.4901,5.4901,5.4901,5.4901,5.4901,5.4901,5.4901,5.4901,5.4901,5.4901,5.4901,5.4565,5.4357,5.4288,5.397,5.3624,5.3275,5.3596,5.3577,5.3172,5.3138,5.2911,5.2583,5.2533,5.2498,4.7232,4.7966,4.8584,0.0,4.9484,0.0,0.0,0.0,0.0,0.0,0.0,0.0,0.0,0.0,0.0,0.0,0.0,0.0,0.0,0.0,0.0,0.0,0.0,0.0,0.0,0.0,0.0,0.0,0.0,4.7707,4.7707,4.7707,4.7707,4.7707,4.7707,4.7707,4.7707,4.7707,4.7707,4.7707,4.7707,4.7707,4.7743,4.9003,4.9775,5.0137,5.0952,5.1767,5.2498,5.2498,5.2498,5.2498,5.2498,5.2498,5.2498,5.2498,5.2498,5.2498,5.2498,5.2498,5.2498,5.2498,5.2498,5.2498,5.2498,5.2933,5.3438,5.3438,5.4015,5.464,5.464,5.4768,5.4901,5.4901,5.4901,5.4901,5.4901,5.4901,5.4901,5.4901,5.4901,5.4901,5.4901,5.4901,5.4901,5.4901,5.4901,5.4901,5.4901,5.4901,5.4901,5.4901,5.4901,5.4901,5.4901,5.4695,5.4565,5.4565,5.4193,5.387,5.3634,5.3458,5.3172,5.2772,5.3151,5.3162,5.2754,5.2754,5.2679,5.2498,5.2498,5.2498,0.0,0.0,4.8223,4.9236,4.9142,0.0,0.0,0.0,0.0,0.0,0.0,0.0,0.0,0.0,0.0,0.0,0.0,0.0,0.0,0.0,0.0,0.0,0.0,0.0,0.0,0.0,0.0,0.0,0.0,4.7707,4.7707,4.7707,4.7707,4.7707,4.7707,4.7707,4.7707,4.7707,4.7707,4.7707,4.7707,4.7707,4.7743,4.9376,5.0101,5.0155,5.1169,5.1948,5.2498,5.2498,5.2498,5.2498,5.2498,5.2498,5.2498,5.2498,5.2498,5.2498,5.2498,5.2498,5.2498,5.2498,5.2498,5.2498,5.2498,5.2998,5.3576,5.3663,5.421,5.4776,5.4879,5.4901,5.4901,5.4901,5.4901,5.4901,5.4901,5.4901,5.4901,5.4901,5.4901,5.4901,5.4901,5.4901,5.4901,5.4901,5.4901,5.4901,5.4901,5.4901,5.4901,5.4901,5.4807,5.4753,5.4753,5.4382,5.4149,5.4149,5.3777,5.3408,5.3117,5.299,5.2798,5.251,5.2787,5.2798,5.2498,5.2498,5.2498,5.2498,5.2498,5.2498,0.0,4.7305,0.0,4.8265,0.0,0.0,0.0,0.0,0.0,0.0,0.0,0.0,0.0,0.0,0.0,0.0,0.0,0.0,0.0,0.0,0.0,0.0,0.0,0.0,0.0,0.0,0.0,0.0,0.0,4.7707,4.7707,4.7707,4.7707,4.7707,4.7707,4.7707,4.7707,4.7707,4.7707,4.7707,4.7707,4.7707,4.7743,4.9376,5.0101,5.0191,5.1767,5.2462,5.2498,5.2498,5.2498,5.2498,5.2498,5.2498,5.2498,5.2498,5.2498,5.2498,5.2498,5.2498,5.2498,5.2498,5.2498,5.2498,5.2498,5.2806,5.3213,5.3587,5.4006,5.4416,5.4799,5.4901,5.4901,5.4901,5.4901,5.4901,5.4901,5.4901,5.4901,5.4901,5.4901,5.4901,5.4901,5.4901,5.4901,5.4901,5.4901,5.4901,5.4901,5.4901,5.4901,5.4901,5.4557,5.4332,5.4332,5.3961,5.373,5.373,5.3348,5.3109,5.3107,5.2728,5.2515,5.2498,5.2515,5.2515,5.2498,5.2498,5.2498,5.2498,5.2498,5.2498,0.0,0.0,0.0,4.7744,4.7969,0.0,0.0,0.0,0.0,0.0,0.0,0.0,0.0,0.0,0.0,0.0,0.0,0.0,0.0,0.0,0.0,0.0,0.0,0.0,0.0,0.0,0.0,0.0,0.0,0.0,4.7707,4.7707,4.7707,4.7707,4.7707,4.7707,4.7707,4.7707,4.7707,4.7707,4.7707,4.7707,4.7743,4.9376,5.0101,5.0191,5.1803,5.2498,5.2498,5.2498,5.2498,5.2498,5.2498,5.2498,5.2498,5.2498,5.2498,5.2498,5.2498,5.2498,5.2498,5.2498,5.2498,5.2498,5.2498,5.2783,5.312,5.3257,5.3796,5.434,5.4484,5.4703,5.4901,5.4901,5.4901,5.4901,5.4901,5.4901,5.4901,5.4901,5.4901,5.4901,5.4901,5.4901,5.4901,5.4901,5.4901,5.4901,5.4901,5.4901,5.4799,5.4541,5.4382,5.4202,5.3943,5.3557,5.3308,5.3308,5.2933,5.2705,5.2705,5.2583,5.2498,5.2498,5.2498,5.2498,5.2498,5.2498,5.2498,5.2498,5.2498,5.2498,4.5146,0.0,0.0,0.0,0.0,0.0,0.0,0.0,0.0,0.0,0.0,0.0,0.0,0.0,0.0,0.0,0.0,0.0,0.0,0.0,0.0,0.0,0.0,0.0,0.0,0.0,0.0,0.0,0.0,0.0,4.7707,4.7707,4.7707,4.7707,4.7707,4.7707,4.7707,4.7707,4.7707,4.7707,4.7707,4.7707,4.7743,4.9376,5.0101,5.0191,5.1803,5.2498,5.2498,5.2498,5.2498,5.2498,5.2498,5.2498,5.2498,5.2498,5.2498,5.2498,5.2498,5.2498,5.2498,5.2498,5.2498,5.2498,5.2498,5.269,5.2922,5.3064,5.3586,5.4141,5.4253,5.4589,5.4901,5.4901,5.4901,5.4901,5.4901,5.4901,5.4901,5.4901,5.4901,5.4901,5.4901,5.4901,5.4845,5.4711,5.4695,5.4656,5.4506,5.449,5.438,5.4141,5.397,5.3786,5.3527,5.3138,5.2908,5.2908,5.2645,5.2498,5.2498,5.2498,5.2498,5.2498,5.2498,5.2498,5.2498,5.2498,5.2498,5.2498,5.2498,5.2498,0.0,0.0,0.0,0.0,0.0,0.0,0.0,0.0,0.0,0.0,0.0,0.0,0.0,0.0,0.0,0.0,0.0,0.0,0.0,0.0,0.0,0.0,0.0,0.0,0.0,0.0,0.0,0.0,0.0,4.7707,4.7707,4.7707,4.7707,4.7707,4.7707,4.7707,4.7707,4.7707,4.7707,4.7707,4.7707,4.7707,4.7743,4.9376,5.0101,5.0191,5.1803,5.2498,5.2498,5.2498,5.2498,5.2498,5.2498,5.2498,5.2498,5.2498,5.2498,5.2498,5.2498,5.2498,5.2498,5.2498,5.2498,5.2498,5.2498,5.2498,5.2583,5.2976,5.3368,5.3768,5.4193,5.4589,5.4901,5.4901,5.4901,5.4901,5.4901,5.4901,5.4901,5.4901,5.4901,5.4894,5.4886,5.4886,5.4753,5.4349,5.4271,5.4149,5.3749,5.3692,5.3692,5.3683,5.3328,5.3096,5.3086,5.2717,5.2498,5.2498,5.2498,5.2498,5.2498,5.2498,5.2498,5.2498,5.2498,5.2498,5.2498,5.2498,5.2498,5.2498,5.2498,5.2498,4.3875,0.0,0.0,0.0,0.0,0.0,0.0,0.0,0.0,0.0,0.0,0.0,0.0,0.0,0.0,0.0,0.0,0.0,0.0,0.0,0.0,0.0,0.0,0.0,0.0,0.0,0.0,0.0,4.7707,4.7707,4.7707,4.7707,4.7707,4.7707,4.7707,4.7707,4.7707,4.7707,4.7707,4.7707,4.7707,4.7707,4.7743,4.9376,5.0101,5.0191,5.1803,5.2498,5.2498,5.2498,5.2498,5.2498,5.2498,5.2498,5.2498,5.2498,5.2498,5.2498,5.2498,5.2498,5.2498,5.2498,5.2498,5.2498,5.2498,5.2498,5.2515,5.2633,5.2955,5.3428,5.4123,5.4589,5.4901,5.4901,5.4901,5.4901,5.4901,5.4901,5.4901,5.4901,5.4901,5.4807,5.4517,5.4476,5.434,5.3934,5.3879,5.3842,5.3711,5.3692,5.3587,5.3306,5.3162,5.2969,5.2701,5.2561,5.2498,5.2498,5.2498,5.2498,5.2498,5.2498,5.2498,5.2498,5.2498,5.2498,5.2498,5.2498,5.2498,5.2498,5.2498,5.2498,0.0,0.0,0.0,0.0,0.0,0.0,4.4377,4.5182,0.0,0.0,0.0,0.0,0.0,0.0,0.0,0.0,0.0,0.0,0.0,0.0,0.0,0.0,0.0,0.0,0.0,0.0,0.0,4.7707,4.7707,4.7707,4.7707,4.7707,4.7707,4.7707,4.7707,4.7707,4.7707,4.7707,4.7707,4.7707,4.7707,4.7707,4.7743,4.9021,4.9775,5.0173,5.1459,5.219,5.2498,5.2498,5.2498,5.2498,5.2498,5.2498,5.2498,5.2498,5.2498,5.2498,5.2498,5.2498,5.2498,5.2498,5.2498,5.2498,5.2498,5.2498,5.2498,5.2498,5.2787,5.3255,5.3888,5.4228,5.4407,5.4407,5.4407,5.4407,5.4407,5.4407,5.4449,5.4624,5.4656,5.4525,5.4132,5.4042,5.4028,5.397,5.3937,5.4006,5.4178,5.4194,5.4106,5.388,5.3846,5.377,5.3518,5.3494,5.3367,5.3023,5.3005,5.2842,5.2516,5.2498,5.2498,5.2498,5.2498,5.2498,5.2498,5.2498,5.2498,5.2498,5.2498,5.2498,0.0,0.0,0.0,0.0,0.0,0.0,4.3055,4.4087,4.4928,0.0,0.0,0.0,0.0,0.0,0.0,0.0,0.0,0.0,0.0,0.0,0.0,0.0,0.0,0.0,0.0,4.7707,4.7707,4.7707,4.7707,4.7707,4.7707,4.7707,4.7707,4.7707,4.7707,4.7707,4.7707,4.7707,4.7707,4.7707,4.7707,4.7707,4.7725,4.854,4.9347,5.0137,5.0952,5.1767,5.2498,5.2498,5.2498,5.2498,5.2498,5.2498,5.2498,5.2498,5.2498,5.2498,5.2498,5.2498,5.2498,5.2498,5.2498,5.2498,5.2498,5.2498,5.2498,5.2498,5.2787,5.3182,5.3528,5.3663,5.3692,5.3692,5.3692,5.3692,5.3692,5.3692,5.3786,5.4114,5.4202,5.4133,5.3822,5.3774,5.3905,5.4304,5.4367,5.4505,5.4846,5.4894,5.4894,5.4894,5.4894,5.4894,5.4894,5.4894,5.4599,5.3874,5.3838,5.3512,5.2788,5.2679,5.2625,5.2625,5.2552,5.2498,5.2498,5.2498,5.2498,5.2498,5.2498,5.2498,0.0,0.0,0.0,0.0,0.0,0.0,4.2928,4.3634,4.4105,0.0,0.0,0.0,0.0,0.0,0.0,0.0,0.0,0.0,0.0,0.0,0.0,0.0,0.0,0.0,0.0,4.7707,4.7707,4.7707,4.7707,4.7707,4.7707,4.7707,4.7707,4.7707,4.7707,4.7707,4.7707,4.7707,4.7707,4.7707,4.7707,4.7707,4.7725,4.854,4.9347,5.0137,5.0952,5.1767,5.2498,5.2498,5.2498,5.2498,5.2498,5.2498,5.2498,5.2498,5.2498,5.2498,5.2498,5.2498,5.2498,5.2498,5.2498,5.2498,5.2498,5.2498,5.2498,5.2498,5.2787,5.3128,5.3193,5.3458,5.3692,5.3692,5.3692,5.3692,5.3692,5.3692,5.3625,5.3378,5.3605,5.3877,5.4141,5.4178,5.433,5.4722,5.4778,5.4803,5.4888,5.4894,5.4894,5.4894,5.4894,5.4894,5.4894,5.4894,5.4834,5.4677,5.4671,5.4599,5.4454,5.382,5.3476,5.3476,5.2824,5.2498,5.2498,5.2498,5.2498,5.2498,5.2498,5.2498,0.0,0.0,0.0,4.2892,0.0,0.0,0.0,4.3218,4.3381,0.0,0.0,0.0,0.0,0.0,0.0,0.0,0.0,0.0,0.0,0.0,0.0,0.0,0.0,0.0,0.0,4.7707,4.7707,4.7707,4.7707,4.7707,4.7707,4.7707,4.7707,4.7707,4.7707,4.7707,4.7707,4.7707,4.7707,4.7707,4.7707,4.7707,4.7707,4.8123,4.8967,5.0119,5.0535,5.1387,5.2498,5.2498,5.2498,5.2498,5.2498,5.2498,5.2498,5.2498,5.2498,5.2498,5.2498,5.2498,5.2498,5.2498,5.2498,5.2498,5.2498,5.2498,5.2498,5.2498,5.2645,5.2798,5.2798,5.2955,5.3107,5.3107,5.3107,5.3107,5.3107,5.3107,5.3161,5.3361,5.3558,5.3755,5.397,5.4326,5.4792,5.536,5.545,5.5595,5.5993,5.6047,5.6047,5.6047,5.6047,5.6047,5.6047,5.6047,5.5884,5.5468,5.545,5.5287,5.4913,5.4508,5.4309,5.4309,5.3892,5.3693,5.3693,5.3693,5.3277,5.2498,5.2498,5.2498,0.0,0.0,0.0,0.0,0.0,4.2892,0.0,0.0,0.0,4.2892,0.0,0.0,0.0,0.0,0.0,0.0,0.0,0.0,0.0,0.0,0.0,0.0,0.0,0.0,0.0,4.7707,4.7707,4.7707,4.7707,4.7707,4.7707,4.7707,4.7707,4.7707,4.7707,4.7707,4.7707,4.7707,4.7707,4.7707,4.7707,4.7707,4.7707,4.7707,4.8586,5.0101,5.0101,5.1006,5.2498,5.2498,5.2498,5.2498,5.2498,5.2498,5.2498,5.2498,5.2498,5.2498,5.2498,5.2498,5.2498,5.2498,5.2498,5.2498,5.2498,5.2498,5.2498,5.2498,5.2498,5.2498,5.2498,5.2498,5.2498,5.2498,5.2498,5.2498,5.2498,5.2625,5.2915,5.3566,5.3947,5.4146,5.4146,5.4689,5.5377,5.6132,5.6241,5.6476,5.7116,5.7188,5.7188,5.7188,5.7188,5.7188,5.7188,5.7188,5.6917,5.6277,5.6241,5.5957,5.5377,5.5196,5.5051,5.4894,5.4894,5.4894,5.4894,5.4894,5.4237,5.2951,5.2951,5.2951,0.0,0.0,0.0,0.0,4.3114,0.0,0.0,0.0,4.2892,4.2892,0.0,0.0,0.0,0.0,0.0,0.0,0.0,0.0,0.0,0.0,0.0,0.0,0.0,0.0,0.0,0.0,4.7707,4.7707,4.7707,4.7707,4.7707,4.7707,4.7707,4.7707,4.7707,4.7707,4.7707,4.7707,4.7707,4.7707,4.7707,4.7707,4.7707,4.7707,4.8586,5.0101,5.0101,5.1006,5.2498,5.2498,5.2498,5.2498,5.2498,5.2498,5.2498,5.2498,5.2498,5.2498,5.2498,5.2498,5.2498,5.2498,5.2498,5.2498,5.2498,5.2498,5.2498,5.2498,5.2498,5.2498,5.2498,5.2498,5.2498,5.2498,5.2498,5.2498,5.2498,5.3059,5.3585,5.3675,5.4798,5.5752,5.5752,5.5824,5.6138,5.6935,5.7062,5.7098,5.7188,5.7188,5.7188,5.7188,5.7188,5.7188,5.7188,5.7188,5.7152,5.7062,5.7062,5.7025,5.6935,5.6247,5.5558,5.4907,5.4894,5.4894,5.4894,5.4894,5.4816,5.4623,5.4623,5.4623,0.0,0.0,0.0,0.0,0.0,0.0,0.0,0.0,4.29,0.0,0.0,0.0,0.0,0.0,0.0,0.0,0.0,0.0,0.0,0.0,0.0,0.0,0.0,0.0,0.0,0.0,0.0,0.0,0.0,4.7707,4.7707,4.7707,4.7707,4.7707,4.7707,4.7707,4.7707,4.7707,4.7707,4.7707,4.7707,4.7707,4.7707,4.7707,4.8586,5.0101,5.0101,5.1006,5.2498,5.2498,5.2498,5.2498,5.2498,5.2498,5.2498,5.2498,5.2498,5.2498,5.2498,5.2498,5.2498,5.2498,5.2498,5.2498,5.2498,5.2498,5.2498,5.2498,5.2498,5.2498,5.2498,5.2498,5.2498,5.2498,5.2498,5.2625,5.3096,5.3458,5.3965,5.4852,5.5571,5.615,5.6609,5.6712,5.6808,5.7152,5.7188,5.7188,5.7188,5.7188,5.7025,5.6536,5.65,5.6319,5.5903,5.5866,5.6047,5.6494,5.6935,5.7188,5.7188,5.6893,5.6554,5.6247,5.6228,5.6228,5.6228,5.6228,5.6228,5.621,5.5323,5.4894,4.4234,0.0,0.0,0.0,0.0,0.0,0.0,0.0,0.0,0.0,0.0,0.0,0.0,0.0,0.0,0.0,0.0,0.0,0.0,0.0,0.0,0.0,0.0,0.0,0.0,0.0,0.0,4.7707,4.7707,4.7707,4.7707,4.7707,4.7707,4.7707,4.7707,4.7707,4.7707,4.7707,4.7707,4.7707,4.7707,4.7707,4.7707,4.7707,4.8586,5.0101,5.0101,5.1006,5.2498,5.2498,5.2498,5.2498,5.2498,5.2498,5.2498,5.2498,5.2498,5.2498,5.2498,5.2498,5.2498,5.2498,5.2498,5.2498,5.2498,5.2498,5.2498,5.2498,5.2498,5.2498,5.2498,5.2498,5.2498,5.2498,5.2498,5.2715,5.353,5.3874,5.4418,5.5752,5.6005,5.6187,5.6772,5.7043,5.7134,5.6899,5.6862,5.679,5.6591,5.6573,5.6355,5.5758,5.5703,5.5486,5.4949,5.4894,5.5214,5.5951,5.6766,5.7188,5.7188,5.7188,5.7188,5.7188,5.7188,5.7188,5.7188,5.7188,5.7188,5.717,5.6047,5.554,0.0,0.0,0.0,4.3873,0.0,0.0,0.0,0.0,4.2881,0.0,0.0,0.0,0.0,0.0,0.0,0.0,0.0,0.0,0.0,0.0,0.0,0.0,0.0,0.0,0.0,0.0,0.0,4.7707,4.7707,4.7707,4.7707,4.7707,4.7707,4.7707,4.7707,4.7707,4.7707,4.7707,4.7707,4.7707,4.7707,4.7707,4.7707,4.7707,4.8586,5.0101,5.0101,5.1006,5.2498,5.2498,5.2498,5.2498,5.2498,5.2498,5.2498,5.2498,5.2498,5.2498,5.2498,5.2498,5.2498,5.2498,5.2498,5.2498,5.2498,5.2498,5.2498,5.2498,5.2498,5.2498,5.2498,5.2498,5.2498,5.2498,5.2498,5.2715,5.353,5.4309,5.5088,5.5848,5.6005,5.6005,5.6042,5.6681,5.6935,5.6168,5.6042,5.5776,5.507,5.4967,5.4961,5.4943,5.4943,5.4943,5.4894,5.4894,5.5214,5.5951,5.6766,5.7188,5.7188,5.7188,5.7188,5.7188,5.7188,5.7188,5.7188,5.7188,5.7188,5.7188,5.7152,5.7134,0.0,0.0,4.4038,4.382,0.0,0.0,0.0,0.0,0.0,0.0,0.0,0.0,0.0,0.0,0.0,0.0,0.0,0.0,0.0,0.0,0.0,0.0,0.0,0.0,0.0,0.0,0.0,4.7707,4.7707,4.7707,0.0,4.7707,4.7707,4.7707,4.7707,4.7707,4.7707,4.7707,4.7707,4.7707,4.7707,4.7707,4.7707,4.7707,4.8586,5.0101,5.0101,5.1006,5.2498,5.2498,5.2498,5.2498,5.2498,5.2498,5.2498,5.2498,5.2498,5.2498,5.2498,5.2498,5.2498,5.2498,5.2498,5.2498,5.2498,5.2498,5.2498,5.2498,5.2498,5.2498,5.2498,5.2498,5.2498,5.2498,5.2915,5.3512,5.4327,5.5088,5.5848,5.6627,5.6368,5.6005,5.6005,5.5812,5.5595,5.5305,5.5269,5.5178,5.4943,5.4894,5.4695,5.4164,5.411,5.3892,5.3367,5.3802,5.4436,5.5214,5.5993,5.6627,5.717,5.7188,5.7188,5.7188,5.7188,5.7188,5.7188,5.7188,5.7188,5.7188,5.7188,5.7188,4.4402,4.4254,0.0,4.3863,4.3637,0.0,4.3294,0.0,0.0,0.0,0.0,0.0,0.0,0.0,0.0,0.0,0.0,0.0,0.0,4.4286,0.0,0.0,0.0,0.0,0.0,0.0,4.7707,4.7707,4.7707,4.7707,0.0,0.0,4.7707,4.7707,4.7707,4.7707,4.7707,4.7707,4.7707,4.7707,4.7707,4.7707,4.7707,4.7707,4.8586,5.0101,5.0101,5.1006,5.2498,5.2498,5.2498,5.2498,5.2498,5.2498,5.2498,5.2498,5.2498,5.2498,5.2498,5.2498,5.2498,5.2498,5.2498,5.2498,5.2498,5.2498,5.2498,5.2498,5.2498,5.2498,5.2498,5.2498,5.257,5.286,5.3313,5.4001,5.507,5.5649,5.6241,5.7043,5.6536,5.5933,5.5649,5.4979,5.4472,5.4472,5.4472,5.4381,5.4092,5.4055,5.3856,5.3331,5.3277,5.3059,5.2534,5.3241,5.4037,5.484,5.5595,5.6368,5.717,5.7188,5.7062,5.6784,5.7043,5.7062,5.6772,5.7062,5.7188,5.7188,5.7188,5.7188]}]]